<?xml version="1.0" encoding="UTF-8" standalone="no" ?>
<gpx xmlns="http://www.topografix.com/GPX/1/1" xmlns:xsi="http://www.w3.org/2001/XMLSchema-instance" xsi:schemaLocation="http://www.topografix.com/GPX/1/1 http://www.topografix.com/GPX/1/1/gpx.xsd" version="1.1" creator="VisuGPX - https://www.visugpx.com">
  <metadata>
    <name>journee a hautacam</name>
    <desc><![CDATA[sortie avec jean et stef]]></desc>
  </metadata>
  <trk>
    <name><![CDATA[Hautacam]]></name>
    <desc><![CDATA[]]></desc>
    <trkseg>
      <trkpt lat="42.97319" lon="-0.00819">
        <ele>1517.2</ele>
        <time>2013-11-29T10:06:12.460Z</time>
      </trkpt>
      <trkpt lat="42.97315" lon="-0.00824">
        <ele>1517.2</ele>
        <time>2013-11-29T10:06:21.553Z</time>
      </trkpt>
      <trkpt lat="42.97315" lon="-0.00825">
        <ele>1517.2</ele>
        <time>2013-11-29T10:06:22.509Z</time>
      </trkpt>
      <trkpt lat="42.97314" lon="-0.00825">
        <ele>1517.2</ele>
        <time>2013-11-29T10:07:00.563Z</time>
      </trkpt>
      <trkpt lat="42.97313" lon="-0.00826">
        <ele>1523.9</ele>
        <time>2013-11-29T10:07:01.512Z</time>
      </trkpt>
      <trkpt lat="42.97313" lon="-0.00821">
        <ele>1516.8</ele>
        <time>2013-11-29T10:07:16.509Z</time>
      </trkpt>
      <trkpt lat="42.97313" lon="-0.00821">
        <ele>1516.8</ele>
        <time>2013-11-29T10:07:17.509Z</time>
      </trkpt>
      <trkpt lat="42.97313" lon="-0.00823">
        <ele>1516.5</ele>
        <time>2013-11-29T10:07:23.387Z</time>
      </trkpt>
      <trkpt lat="42.97313" lon="-0.00824">
        <ele>1516.5</ele>
        <time>2013-11-29T10:07:24.047Z</time>
      </trkpt>
      <trkpt lat="42.97307" lon="-0.00825">
        <ele>1515.9</ele>
        <time>2013-11-29T10:07:37.945Z</time>
      </trkpt>
      <trkpt lat="42.97307" lon="-0.00825">
        <ele>1515.9</ele>
        <time>2013-11-29T10:07:38.943Z</time>
      </trkpt>
      <trkpt lat="42.97306" lon="-0.00824">
        <ele>1515.8</ele>
        <time>2013-11-29T10:07:39.944Z</time>
      </trkpt>
      <trkpt lat="42.97301" lon="-0.00814">
        <ele>1515.7</ele>
        <time>2013-11-29T10:07:47.943Z</time>
      </trkpt>
      <trkpt lat="42.973" lon="-0.00813">
        <ele>1515.7</ele>
        <time>2013-11-29T10:07:48.944Z</time>
      </trkpt>
      <trkpt lat="42.97294" lon="-0.00804">
        <ele>1515.6</ele>
        <time>2013-11-29T10:07:54.943Z</time>
      </trkpt>
      <trkpt lat="42.97293" lon="-0.00802">
        <ele>1515.5</ele>
        <time>2013-11-29T10:07:55.946Z</time>
      </trkpt>
      <trkpt lat="42.97289" lon="-0.00794">
        <ele>1516</ele>
        <time>2013-11-29T10:08:00.945Z</time>
      </trkpt>
      <trkpt lat="42.97288" lon="-0.00792">
        <ele>1516.3</ele>
        <time>2013-11-29T10:08:01.945Z</time>
      </trkpt>
      <trkpt lat="42.97283" lon="-0.00783">
        <ele>1516.5</ele>
        <time>2013-11-29T10:08:08.997Z</time>
      </trkpt>
      <trkpt lat="42.97282" lon="-0.00782">
        <ele>1516.8</ele>
        <time>2013-11-29T10:08:09.944Z</time>
      </trkpt>
      <trkpt lat="42.97282" lon="-0.00784">
        <ele>1517.6</ele>
        <time>2013-11-29T10:08:12.942Z</time>
      </trkpt>
      <trkpt lat="42.97282" lon="-0.00784">
        <ele>1517.8</ele>
        <time>2013-11-29T10:08:13.945Z</time>
      </trkpt>
      <trkpt lat="42.97282" lon="-0.00785">
        <ele>1517.8</ele>
        <time>2013-11-29T10:08:14.942Z</time>
      </trkpt>
      <trkpt lat="42.97282" lon="-0.00785">
        <ele>1517.9</ele>
        <time>2013-11-29T10:08:15.943Z</time>
      </trkpt>
      <trkpt lat="42.97282" lon="-0.00785">
        <ele>1517.9</ele>
        <time>2013-11-29T10:08:16.942Z</time>
      </trkpt>
      <trkpt lat="42.97283" lon="-0.00786">
        <ele>1517.9</ele>
        <time>2013-11-29T10:08:17.942Z</time>
      </trkpt>
      <trkpt lat="42.97287" lon="-0.00793">
        <ele>1518.2</ele>
        <time>2013-11-29T10:08:21.944Z</time>
      </trkpt>
      <trkpt lat="42.97289" lon="-0.00797">
        <ele>1518.2</ele>
        <time>2013-11-29T10:08:22.942Z</time>
      </trkpt>
      <trkpt lat="42.97293" lon="-0.00803">
        <ele>1518.3</ele>
        <time>2013-11-29T10:08:24.942Z</time>
      </trkpt>
      <trkpt lat="42.97296" lon="-0.00806">
        <ele>1518.3</ele>
        <time>2013-11-29T10:08:25.945Z</time>
      </trkpt>
      <trkpt lat="42.97302" lon="-0.00814">
        <ele>1518.9</ele>
        <time>2013-11-29T10:08:28.941Z</time>
      </trkpt>
      <trkpt lat="42.97303" lon="-0.00815">
        <ele>1519</ele>
        <time>2013-11-29T10:08:29.942Z</time>
      </trkpt>
      <trkpt lat="42.97308" lon="-0.00824">
        <ele>1519.8</ele>
        <time>2013-11-29T10:08:35.942Z</time>
      </trkpt>
      <trkpt lat="42.97309" lon="-0.00825">
        <ele>1519.9</ele>
        <time>2013-11-29T10:08:36.942Z</time>
      </trkpt>
      <trkpt lat="42.97304" lon="-0.00817">
        <ele>1520.2</ele>
        <time>2013-11-29T10:08:49.945Z</time>
      </trkpt>
      <trkpt lat="42.97303" lon="-0.00816">
        <ele>1520.2</ele>
        <time>2013-11-29T10:08:50.942Z</time>
      </trkpt>
      <trkpt lat="42.97296" lon="-0.00809">
        <ele>1520.1</ele>
        <time>2013-11-29T10:08:55.945Z</time>
      </trkpt>
      <trkpt lat="42.97295" lon="-0.00808">
        <ele>1520</ele>
        <time>2013-11-29T10:08:56.942Z</time>
      </trkpt>
      <trkpt lat="42.97289" lon="-0.00799">
        <ele>1519.8</ele>
        <time>2013-11-29T10:09:02.942Z</time>
      </trkpt>
      <trkpt lat="42.97288" lon="-0.00797">
        <ele>1519.7</ele>
        <time>2013-11-29T10:09:03.944Z</time>
      </trkpt>
      <trkpt lat="42.97283" lon="-0.00789">
        <ele>1519.7</ele>
        <time>2013-11-29T10:09:08.942Z</time>
      </trkpt>
      <trkpt lat="42.97282" lon="-0.00787">
        <ele>1519.6</ele>
        <time>2013-11-29T10:09:09.943Z</time>
      </trkpt>
      <trkpt lat="42.97279" lon="-0.00777">
        <ele>1518.8</ele>
        <time>2013-11-29T10:09:20.942Z</time>
      </trkpt>
      <trkpt lat="42.97278" lon="-0.00775">
        <ele>1518.8</ele>
        <time>2013-11-29T10:09:21.943Z</time>
      </trkpt>
      <trkpt lat="42.97273" lon="-0.00767">
        <ele>1518.7</ele>
        <time>2013-11-29T10:09:26.942Z</time>
      </trkpt>
      <trkpt lat="42.97272" lon="-0.00765">
        <ele>1518.7</ele>
        <time>2013-11-29T10:09:27.944Z</time>
      </trkpt>
      <trkpt lat="42.97266" lon="-0.00756">
        <ele>1518.5</ele>
        <time>2013-11-29T10:09:32.943Z</time>
      </trkpt>
      <trkpt lat="42.97265" lon="-0.00755">
        <ele>1518.5</ele>
        <time>2013-11-29T10:09:33.944Z</time>
      </trkpt>
      <trkpt lat="42.97257" lon="-0.00748">
        <ele>1518.1</ele>
        <time>2013-11-29T10:09:38.942Z</time>
      </trkpt>
      <trkpt lat="42.97256" lon="-0.00747">
        <ele>1518</ele>
        <time>2013-11-29T10:09:39.944Z</time>
      </trkpt>
      <trkpt lat="42.97248" lon="-0.00744">
        <ele>1517.6</ele>
        <time>2013-11-29T10:09:44.942Z</time>
      </trkpt>
      <trkpt lat="42.97246" lon="-0.00744">
        <ele>1517.5</ele>
        <time>2013-11-29T10:09:45.964Z</time>
      </trkpt>
      <trkpt lat="42.97238" lon="-0.00741">
        <ele>1517</ele>
        <time>2013-11-29T10:09:51.944Z</time>
      </trkpt>
      <trkpt lat="42.97237" lon="-0.00741">
        <ele>1516.9</ele>
        <time>2013-11-29T10:09:52.942Z</time>
      </trkpt>
      <trkpt lat="42.97229" lon="-0.00745">
        <ele>1516.8</ele>
        <time>2013-11-29T10:10:02.942Z</time>
      </trkpt>
      <trkpt lat="42.9723" lon="-0.00745">
        <ele>1516.8</ele>
        <time>2013-11-29T10:10:03.943Z</time>
      </trkpt>
      <trkpt lat="42.97231" lon="-0.00745">
        <ele>1516.8</ele>
        <time>2013-11-29T10:11:18.968Z</time>
      </trkpt>
      <trkpt lat="42.97231" lon="-0.00745">
        <ele>1516.8</ele>
        <time>2013-11-29T10:11:19.945Z</time>
      </trkpt>
      <trkpt lat="42.97232" lon="-0.00747">
        <ele>1516.8</ele>
        <time>2013-11-29T10:11:27.942Z</time>
      </trkpt>
      <trkpt lat="42.97232" lon="-0.00747">
        <ele>1516.8</ele>
        <time>2013-11-29T10:11:28.941Z</time>
      </trkpt>
      <trkpt lat="42.97232" lon="-0.00747">
        <ele>1516.8</ele>
        <time>2013-11-29T10:12:39.180Z</time>
      </trkpt>
      <trkpt lat="42.97231" lon="-0.00748">
        <ele>1516.8</ele>
        <time>2013-11-29T10:12:40.179Z</time>
      </trkpt>
      <trkpt lat="42.97223" lon="-0.00749">
        <ele>1516.6</ele>
        <time>2013-11-29T10:12:45.180Z</time>
      </trkpt>
      <trkpt lat="42.97221" lon="-0.00749">
        <ele>1516.6</ele>
        <time>2013-11-29T10:12:46.179Z</time>
      </trkpt>
      <trkpt lat="42.97213" lon="-0.00746">
        <ele>1516.6</ele>
        <time>2013-11-29T10:12:51.180Z</time>
      </trkpt>
      <trkpt lat="42.97212" lon="-0.00746">
        <ele>1516.6</ele>
        <time>2013-11-29T10:12:52.179Z</time>
      </trkpt>
      <trkpt lat="42.97203" lon="-0.00744">
        <ele>1516</ele>
        <time>2013-11-29T10:13:01.184Z</time>
      </trkpt>
      <trkpt lat="42.97202" lon="-0.00744">
        <ele>1516</ele>
        <time>2013-11-29T10:13:02.179Z</time>
      </trkpt>
      <trkpt lat="42.97193" lon="-0.00742">
        <ele>1515.3</ele>
        <time>2013-11-29T10:13:10.179Z</time>
      </trkpt>
      <trkpt lat="42.97193" lon="-0.00741">
        <ele>1515.3</ele>
        <time>2013-11-29T10:13:11.179Z</time>
      </trkpt>
      <trkpt lat="42.97185" lon="-0.00735">
        <ele>1515</ele>
        <time>2013-11-29T10:13:24.179Z</time>
      </trkpt>
      <trkpt lat="42.97184" lon="-0.00735">
        <ele>1515</ele>
        <time>2013-11-29T10:13:25.182Z</time>
      </trkpt>
      <trkpt lat="42.97176" lon="-0.00729">
        <ele>1515.1</ele>
        <time>2013-11-29T10:13:34.179Z</time>
      </trkpt>
      <trkpt lat="42.97175" lon="-0.00728">
        <ele>1515.1</ele>
        <time>2013-11-29T10:13:35.179Z</time>
      </trkpt>
      <trkpt lat="42.97167" lon="-0.00729">
        <ele>1516</ele>
        <time>2013-11-29T10:13:49.182Z</time>
      </trkpt>
      <trkpt lat="42.97166" lon="-0.00729">
        <ele>1516.1</ele>
        <time>2013-11-29T10:13:50.179Z</time>
      </trkpt>
      <trkpt lat="42.97157" lon="-0.00728">
        <ele>1516.7</ele>
        <time>2013-11-29T10:14:02.178Z</time>
      </trkpt>
      <trkpt lat="42.97157" lon="-0.00728">
        <ele>1516.8</ele>
        <time>2013-11-29T10:14:03.180Z</time>
      </trkpt>
      <trkpt lat="42.97148" lon="-0.00724">
        <ele>1517.8</ele>
        <time>2013-11-29T10:14:20.179Z</time>
      </trkpt>
      <trkpt lat="42.97148" lon="-0.00724">
        <ele>1517.9</ele>
        <time>2013-11-29T10:14:21.180Z</time>
      </trkpt>
      <trkpt lat="42.9714" lon="-0.00719">
        <ele>1518.8</ele>
        <time>2013-11-29T10:14:39.180Z</time>
      </trkpt>
      <trkpt lat="42.97139" lon="-0.00718">
        <ele>1518.9</ele>
        <time>2013-11-29T10:14:40.178Z</time>
      </trkpt>
      <trkpt lat="42.97133" lon="-0.0071">
        <ele>1519.5</ele>
        <time>2013-11-29T10:14:53.179Z</time>
      </trkpt>
      <trkpt lat="42.97132" lon="-0.0071">
        <ele>1519.6</ele>
        <time>2013-11-29T10:14:54.179Z</time>
      </trkpt>
      <trkpt lat="42.97125" lon="-0.00702">
        <ele>1521</ele>
        <time>2013-11-29T10:15:07.237Z</time>
      </trkpt>
      <trkpt lat="42.97125" lon="-0.00701">
        <ele>1521.1</ele>
        <time>2013-11-29T10:15:08.179Z</time>
      </trkpt>
      <trkpt lat="42.97121" lon="-0.00691">
        <ele>1522.1</ele>
        <time>2013-11-29T10:15:19.181Z</time>
      </trkpt>
      <trkpt lat="42.9712" lon="-0.00691">
        <ele>1522.1</ele>
        <time>2013-11-29T10:15:20.179Z</time>
      </trkpt>
      <trkpt lat="42.97115" lon="-0.0068">
        <ele>1523.2</ele>
        <time>2013-11-29T10:15:33.180Z</time>
      </trkpt>
      <trkpt lat="42.97114" lon="-0.0068">
        <ele>1523.6</ele>
        <time>2013-11-29T10:15:34.179Z</time>
      </trkpt>
      <trkpt lat="42.97111" lon="-0.00669">
        <ele>1525.9</ele>
        <time>2013-11-29T10:15:51.180Z</time>
      </trkpt>
      <trkpt lat="42.97111" lon="-0.00668">
        <ele>1526</ele>
        <time>2013-11-29T10:15:52.178Z</time>
      </trkpt>
      <trkpt lat="42.97106" lon="-0.00664">
        <ele>1527.5</ele>
        <time>2013-11-29T10:16:04.217Z</time>
      </trkpt>
      <trkpt lat="42.97106" lon="-0.00664">
        <ele>1527.5</ele>
        <time>2013-11-29T10:16:05.187Z</time>
      </trkpt>
      <trkpt lat="42.97107" lon="-0.00664">
        <ele>1527.5</ele>
        <time>2013-11-29T10:16:11.182Z</time>
      </trkpt>
      <trkpt lat="42.97107" lon="-0.00663">
        <ele>1528.1</ele>
        <time>2013-11-29T10:16:12.181Z</time>
      </trkpt>
      <trkpt lat="42.971" lon="-0.00656">
        <ele>1530.1</ele>
        <time>2013-11-29T10:16:24.182Z</time>
      </trkpt>
      <trkpt lat="42.971" lon="-0.00655">
        <ele>1530.2</ele>
        <time>2013-11-29T10:16:25.184Z</time>
      </trkpt>
      <trkpt lat="42.97093" lon="-0.00647">
        <ele>1533</ele>
        <time>2013-11-29T10:16:40.180Z</time>
      </trkpt>
      <trkpt lat="42.97093" lon="-0.00646">
        <ele>1533.3</ele>
        <time>2013-11-29T10:16:41.181Z</time>
      </trkpt>
      <trkpt lat="42.97086" lon="-0.00637">
        <ele>1535.5</ele>
        <time>2013-11-29T10:16:54.179Z</time>
      </trkpt>
      <trkpt lat="42.97086" lon="-0.00637">
        <ele>1535.6</ele>
        <time>2013-11-29T10:16:55.182Z</time>
      </trkpt>
      <trkpt lat="42.97077" lon="-0.00634">
        <ele>1538.5</ele>
        <time>2013-11-29T10:17:15.180Z</time>
      </trkpt>
      <trkpt lat="42.97077" lon="-0.00633">
        <ele>1538.6</ele>
        <time>2013-11-29T10:17:16.237Z</time>
      </trkpt>
      <trkpt lat="42.97069" lon="-0.00626">
        <ele>1541.5</ele>
        <time>2013-11-29T10:17:32.179Z</time>
      </trkpt>
      <trkpt lat="42.97069" lon="-0.00627">
        <ele>1541.8</ele>
        <time>2013-11-29T10:17:33.180Z</time>
      </trkpt>
      <trkpt lat="42.97062" lon="-0.00619">
        <ele>1545.9</ele>
        <time>2013-11-29T10:17:53.179Z</time>
      </trkpt>
      <trkpt lat="42.97061" lon="-0.00619">
        <ele>1546.1</ele>
        <time>2013-11-29T10:17:54.179Z</time>
      </trkpt>
      <trkpt lat="42.97053" lon="-0.00614">
        <ele>1549.5</ele>
        <time>2013-11-29T10:18:11.178Z</time>
      </trkpt>
      <trkpt lat="42.97053" lon="-0.00613">
        <ele>1549.6</ele>
        <time>2013-11-29T10:18:12.178Z</time>
      </trkpt>
      <trkpt lat="42.97045" lon="-0.00609">
        <ele>1552</ele>
        <time>2013-11-29T10:18:25.181Z</time>
      </trkpt>
      <trkpt lat="42.97044" lon="-0.00608">
        <ele>1552.2</ele>
        <time>2013-11-29T10:18:26.178Z</time>
      </trkpt>
      <trkpt lat="42.97036" lon="-0.00605">
        <ele>1555.6</ele>
        <time>2013-11-29T10:18:48.178Z</time>
      </trkpt>
      <trkpt lat="42.97035" lon="-0.00605">
        <ele>1555.7</ele>
        <time>2013-11-29T10:18:49.182Z</time>
      </trkpt>
      <trkpt lat="42.97027" lon="-0.00601">
        <ele>1558.6</ele>
        <time>2013-11-29T10:19:07.182Z</time>
      </trkpt>
      <trkpt lat="42.97027" lon="-0.00601">
        <ele>1558.8</ele>
        <time>2013-11-29T10:19:08.179Z</time>
      </trkpt>
      <trkpt lat="42.97025" lon="-0.006">
        <ele>1559.6</ele>
        <time>2013-11-29T10:19:14.178Z</time>
      </trkpt>
      <trkpt lat="42.97025" lon="-0.006">
        <ele>1559.6</ele>
        <time>2013-11-29T10:19:15.179Z</time>
      </trkpt>
      <trkpt lat="42.97024" lon="-0.00599">
        <ele>1560</ele>
        <time>2013-11-29T10:19:16.178Z</time>
      </trkpt>
      <trkpt lat="42.97017" lon="-0.00594">
        <ele>1562.5</ele>
        <time>2013-11-29T10:19:32.179Z</time>
      </trkpt>
      <trkpt lat="42.97016" lon="-0.00594">
        <ele>1562.6</ele>
        <time>2013-11-29T10:19:33.179Z</time>
      </trkpt>
      <trkpt lat="42.97008" lon="-0.00587">
        <ele>1564.6</ele>
        <time>2013-11-29T10:19:47.179Z</time>
      </trkpt>
      <trkpt lat="42.97008" lon="-0.00587">
        <ele>1564.7</ele>
        <time>2013-11-29T10:19:48.178Z</time>
      </trkpt>
      <trkpt lat="42.97001" lon="-0.00579">
        <ele>1566.8</ele>
        <time>2013-11-29T10:20:00.178Z</time>
      </trkpt>
      <trkpt lat="42.97" lon="-0.00579">
        <ele>1566.9</ele>
        <time>2013-11-29T10:20:01.183Z</time>
      </trkpt>
      <trkpt lat="42.96992" lon="-0.00574">
        <ele>1570.2</ele>
        <time>2013-11-29T10:20:23.208Z</time>
      </trkpt>
      <trkpt lat="42.96992" lon="-0.00574">
        <ele>1570.3</ele>
        <time>2013-11-29T10:20:24.178Z</time>
      </trkpt>
      <trkpt lat="42.96984" lon="-0.0057">
        <ele>1572.5</ele>
        <time>2013-11-29T10:20:39.178Z</time>
      </trkpt>
      <trkpt lat="42.96983" lon="-0.0057">
        <ele>1572.7</ele>
        <time>2013-11-29T10:20:40.177Z</time>
      </trkpt>
      <trkpt lat="42.96976" lon="-0.00564">
        <ele>1575.8</ele>
        <time>2013-11-29T10:21:00.177Z</time>
      </trkpt>
      <trkpt lat="42.96975" lon="-0.00563">
        <ele>1575.9</ele>
        <time>2013-11-29T10:21:01.237Z</time>
      </trkpt>
      <trkpt lat="42.96968" lon="-0.00558">
        <ele>1578.3</ele>
        <time>2013-11-29T10:21:15.179Z</time>
      </trkpt>
      <trkpt lat="42.96967" lon="-0.00557">
        <ele>1578.4</ele>
        <time>2013-11-29T10:21:16.177Z</time>
      </trkpt>
      <trkpt lat="42.9696" lon="-0.0055">
        <ele>1582.1</ele>
        <time>2013-11-29T10:21:35.178Z</time>
      </trkpt>
      <trkpt lat="42.9696" lon="-0.0055">
        <ele>1582.3</ele>
        <time>2013-11-29T10:21:36.176Z</time>
      </trkpt>
      <trkpt lat="42.96955" lon="-0.00547">
        <ele>1583.8</ele>
        <time>2013-11-29T10:21:47.217Z</time>
      </trkpt>
      <trkpt lat="42.96955" lon="-0.00547">
        <ele>1583.8</ele>
        <time>2013-11-29T10:21:48.217Z</time>
      </trkpt>
      <trkpt lat="42.96955" lon="-0.00547">
        <ele>1583.8</ele>
        <time>2013-11-29T10:21:52.177Z</time>
      </trkpt>
      <trkpt lat="42.96954" lon="-0.00547">
        <ele>1584.6</ele>
        <time>2013-11-29T10:21:53.176Z</time>
      </trkpt>
      <trkpt lat="42.96945" lon="-0.00546">
        <ele>1586.7</ele>
        <time>2013-11-29T10:22:07.180Z</time>
      </trkpt>
      <trkpt lat="42.96944" lon="-0.00546">
        <ele>1586.8</ele>
        <time>2013-11-29T10:22:08.176Z</time>
      </trkpt>
      <trkpt lat="42.96936" lon="-0.00544">
        <ele>1589.1</ele>
        <time>2013-11-29T10:22:25.180Z</time>
      </trkpt>
      <trkpt lat="42.96935" lon="-0.00544">
        <ele>1589.2</ele>
        <time>2013-11-29T10:22:26.176Z</time>
      </trkpt>
      <trkpt lat="42.96927" lon="-0.0054">
        <ele>1591.8</ele>
        <time>2013-11-29T10:22:45.236Z</time>
      </trkpt>
      <trkpt lat="42.96926" lon="-0.0054">
        <ele>1592</ele>
        <time>2013-11-29T10:22:46.176Z</time>
      </trkpt>
      <trkpt lat="42.96919" lon="-0.00535">
        <ele>1593.9</ele>
        <time>2013-11-29T10:23:03.177Z</time>
      </trkpt>
      <trkpt lat="42.96918" lon="-0.00534">
        <ele>1594</ele>
        <time>2013-11-29T10:23:04.176Z</time>
      </trkpt>
      <trkpt lat="42.96909" lon="-0.00533">
        <ele>1596.5</ele>
        <time>2013-11-29T10:23:26.176Z</time>
      </trkpt>
      <trkpt lat="42.96909" lon="-0.00533">
        <ele>1596.6</ele>
        <time>2013-11-29T10:23:27.177Z</time>
      </trkpt>
      <trkpt lat="42.96904" lon="-0.00523">
        <ele>1599.9</ele>
        <time>2013-11-29T10:23:54.176Z</time>
      </trkpt>
      <trkpt lat="42.96904" lon="-0.00522">
        <ele>1600</ele>
        <time>2013-11-29T10:23:55.180Z</time>
      </trkpt>
      <trkpt lat="42.96911" lon="-0.00513">
        <ele>1602.6</ele>
        <time>2013-11-29T10:24:15.177Z</time>
      </trkpt>
      <trkpt lat="42.96911" lon="-0.00513">
        <ele>1602.7</ele>
        <time>2013-11-29T10:24:16.176Z</time>
      </trkpt>
      <trkpt lat="42.96915" lon="-0.00507">
        <ele>1605.9</ele>
        <time>2013-11-29T10:24:35.176Z</time>
      </trkpt>
      <trkpt lat="42.96915" lon="-0.00507">
        <ele>1605.9</ele>
        <time>2013-11-29T10:24:36.176Z</time>
      </trkpt>
      <trkpt lat="42.96915" lon="-0.00506">
        <ele>1606.3</ele>
        <time>2013-11-29T10:24:37.179Z</time>
      </trkpt>
      <trkpt lat="42.96921" lon="-0.00498">
        <ele>1608.4</ele>
        <time>2013-11-29T10:24:50.175Z</time>
      </trkpt>
      <trkpt lat="42.96921" lon="-0.00497">
        <ele>1608.6</ele>
        <time>2013-11-29T10:24:51.177Z</time>
      </trkpt>
      <trkpt lat="42.96928" lon="-0.00489">
        <ele>1610.5</ele>
        <time>2013-11-29T10:25:05.175Z</time>
      </trkpt>
      <trkpt lat="42.96928" lon="-0.00488">
        <ele>1610.7</ele>
        <time>2013-11-29T10:25:06.175Z</time>
      </trkpt>
      <trkpt lat="42.96933" lon="-0.00478">
        <ele>1612.9</ele>
        <time>2013-11-29T10:25:21.176Z</time>
      </trkpt>
      <trkpt lat="42.96933" lon="-0.00477">
        <ele>1613.1</ele>
        <time>2013-11-29T10:25:22.175Z</time>
      </trkpt>
      <trkpt lat="42.96939" lon="-0.00468">
        <ele>1615.8</ele>
        <time>2013-11-29T10:25:39.176Z</time>
      </trkpt>
      <trkpt lat="42.9694" lon="-0.00468">
        <ele>1615.9</ele>
        <time>2013-11-29T10:25:40.175Z</time>
      </trkpt>
      <trkpt lat="42.96945" lon="-0.00458">
        <ele>1619.1</ele>
        <time>2013-11-29T10:25:58.175Z</time>
      </trkpt>
      <trkpt lat="42.96945" lon="-0.00458">
        <ele>1619.3</ele>
        <time>2013-11-29T10:25:59.176Z</time>
      </trkpt>
      <trkpt lat="42.96953" lon="-0.00452">
        <ele>1622.5</ele>
        <time>2013-11-29T10:26:17.175Z</time>
      </trkpt>
      <trkpt lat="42.96953" lon="-0.00451">
        <ele>1622.6</ele>
        <time>2013-11-29T10:26:18.175Z</time>
      </trkpt>
      <trkpt lat="42.96957" lon="-0.0044">
        <ele>1625.4</ele>
        <time>2013-11-29T10:26:33.176Z</time>
      </trkpt>
      <trkpt lat="42.96957" lon="-0.0044">
        <ele>1625.6</ele>
        <time>2013-11-29T10:26:34.175Z</time>
      </trkpt>
      <trkpt lat="42.9696" lon="-0.00434">
        <ele>1627.5</ele>
        <time>2013-11-29T10:26:47.175Z</time>
      </trkpt>
      <trkpt lat="42.9696" lon="-0.00434">
        <ele>1627.5</ele>
        <time>2013-11-29T10:26:48.175Z</time>
      </trkpt>
      <trkpt lat="42.9696" lon="-0.00434">
        <ele>1627.5</ele>
        <time>2013-11-29T10:26:54.175Z</time>
      </trkpt>
      <trkpt lat="42.96961" lon="-0.00432">
        <ele>1628.9</ele>
        <time>2013-11-29T10:26:55.179Z</time>
      </trkpt>
      <trkpt lat="42.96966" lon="-0.00422">
        <ele>1630.8</ele>
        <time>2013-11-29T10:27:08.139Z</time>
      </trkpt>
      <trkpt lat="42.96967" lon="-0.00421">
        <ele>1630.9</ele>
        <time>2013-11-29T10:27:09.140Z</time>
      </trkpt>
      <trkpt lat="42.96961" lon="-0.00412">
        <ele>1632.5</ele>
        <time>2013-11-29T10:27:20.139Z</time>
      </trkpt>
      <trkpt lat="42.9696" lon="-0.00412">
        <ele>1632.6</ele>
        <time>2013-11-29T10:27:21.140Z</time>
      </trkpt>
      <trkpt lat="42.96952" lon="-0.00416">
        <ele>1634.7</ele>
        <time>2013-11-29T10:27:36.140Z</time>
      </trkpt>
      <trkpt lat="42.96951" lon="-0.00416">
        <ele>1634.8</ele>
        <time>2013-11-29T10:27:37.143Z</time>
      </trkpt>
      <trkpt lat="42.96943" lon="-0.00421">
        <ele>1636</ele>
        <time>2013-11-29T10:27:48.139Z</time>
      </trkpt>
      <trkpt lat="42.96943" lon="-0.00422">
        <ele>1636</ele>
        <time>2013-11-29T10:27:49.143Z</time>
      </trkpt>
      <trkpt lat="42.96935" lon="-0.00425">
        <ele>1637.1</ele>
        <time>2013-11-29T10:27:58.139Z</time>
      </trkpt>
      <trkpt lat="42.96934" lon="-0.00425">
        <ele>1637.2</ele>
        <time>2013-11-29T10:27:59.139Z</time>
      </trkpt>
      <trkpt lat="42.96926" lon="-0.0043">
        <ele>1638.2</ele>
        <time>2013-11-29T10:28:07.143Z</time>
      </trkpt>
      <trkpt lat="42.96925" lon="-0.0043">
        <ele>1638.3</ele>
        <time>2013-11-29T10:28:08.139Z</time>
      </trkpt>
      <trkpt lat="42.96917" lon="-0.00434">
        <ele>1639.3</ele>
        <time>2013-11-29T10:28:18.139Z</time>
      </trkpt>
      <trkpt lat="42.96916" lon="-0.00434">
        <ele>1639.4</ele>
        <time>2013-11-29T10:28:19.143Z</time>
      </trkpt>
      <trkpt lat="42.96907" lon="-0.00436">
        <ele>1640.2</ele>
        <time>2013-11-29T10:28:27.140Z</time>
      </trkpt>
      <trkpt lat="42.96906" lon="-0.00436">
        <ele>1640.3</ele>
        <time>2013-11-29T10:28:28.139Z</time>
      </trkpt>
      <trkpt lat="42.96898" lon="-0.0044">
        <ele>1641.2</ele>
        <time>2013-11-29T10:28:38.139Z</time>
      </trkpt>
      <trkpt lat="42.96896" lon="-0.0044">
        <ele>1641.3</ele>
        <time>2013-11-29T10:28:39.140Z</time>
      </trkpt>
      <trkpt lat="42.96888" lon="-0.00443">
        <ele>1642</ele>
        <time>2013-11-29T10:28:47.140Z</time>
      </trkpt>
      <trkpt lat="42.96887" lon="-0.00444">
        <ele>1642.1</ele>
        <time>2013-11-29T10:28:48.139Z</time>
      </trkpt>
      <trkpt lat="42.96879" lon="-0.00447">
        <ele>1642.8</ele>
        <time>2013-11-29T10:28:56.139Z</time>
      </trkpt>
      <trkpt lat="42.96878" lon="-0.00447">
        <ele>1642.9</ele>
        <time>2013-11-29T10:28:57.169Z</time>
      </trkpt>
      <trkpt lat="42.96871" lon="-0.0045">
        <ele>1644</ele>
        <time>2013-11-29T10:29:06.257Z</time>
      </trkpt>
      <trkpt lat="42.9687" lon="-0.00451">
        <ele>1644.1</ele>
        <time>2013-11-29T10:29:08.325Z</time>
      </trkpt>
      <trkpt lat="42.96861" lon="-0.00453">
        <ele>1645</ele>
        <time>2013-11-29T10:29:17.139Z</time>
      </trkpt>
      <trkpt lat="42.9686" lon="-0.00454">
        <ele>1645.1</ele>
        <time>2013-11-29T10:29:18.197Z</time>
      </trkpt>
      <trkpt lat="42.96852" lon="-0.00458">
        <ele>1646.2</ele>
        <time>2013-11-29T10:29:29.139Z</time>
      </trkpt>
      <trkpt lat="42.96851" lon="-0.00459">
        <ele>1646.2</ele>
        <time>2013-11-29T10:29:30.140Z</time>
      </trkpt>
      <trkpt lat="42.96843" lon="-0.00464">
        <ele>1647.1</ele>
        <time>2013-11-29T10:29:38.139Z</time>
      </trkpt>
      <trkpt lat="42.96842" lon="-0.00464">
        <ele>1647.2</ele>
        <time>2013-11-29T10:29:39.139Z</time>
      </trkpt>
      <trkpt lat="42.96835" lon="-0.00471">
        <ele>1648.2</ele>
        <time>2013-11-29T10:29:46.139Z</time>
      </trkpt>
      <trkpt lat="42.96834" lon="-0.00472">
        <ele>1648.3</ele>
        <time>2013-11-29T10:29:47.139Z</time>
      </trkpt>
      <trkpt lat="42.96828" lon="-0.0048">
        <ele>1649.4</ele>
        <time>2013-11-29T10:29:56.139Z</time>
      </trkpt>
      <trkpt lat="42.96827" lon="-0.00481">
        <ele>1649.6</ele>
        <time>2013-11-29T10:29:57.140Z</time>
      </trkpt>
      <trkpt lat="42.96822" lon="-0.00489">
        <ele>1650.6</ele>
        <time>2013-11-29T10:30:05.138Z</time>
      </trkpt>
      <trkpt lat="42.96821" lon="-0.00491">
        <ele>1650.7</ele>
        <time>2013-11-29T10:30:06.138Z</time>
      </trkpt>
      <trkpt lat="42.96815" lon="-0.00499">
        <ele>1651.4</ele>
        <time>2013-11-29T10:30:14.138Z</time>
      </trkpt>
      <trkpt lat="42.96814" lon="-0.005">
        <ele>1651.5</ele>
        <time>2013-11-29T10:30:15.139Z</time>
      </trkpt>
      <trkpt lat="42.9681" lon="-0.0051">
        <ele>1652.8</ele>
        <time>2013-11-29T10:30:26.138Z</time>
      </trkpt>
      <trkpt lat="42.9681" lon="-0.00511">
        <ele>1652.9</ele>
        <time>2013-11-29T10:30:27.139Z</time>
      </trkpt>
      <trkpt lat="42.96805" lon="-0.00521">
        <ele>1654</ele>
        <time>2013-11-29T10:30:36.138Z</time>
      </trkpt>
      <trkpt lat="42.96805" lon="-0.00522">
        <ele>1654.2</ele>
        <time>2013-11-29T10:30:37.141Z</time>
      </trkpt>
      <trkpt lat="42.96799" lon="-0.0053">
        <ele>1654.9</ele>
        <time>2013-11-29T10:30:46.139Z</time>
      </trkpt>
      <trkpt lat="42.96798" lon="-0.00531">
        <ele>1655</ele>
        <time>2013-11-29T10:30:47.138Z</time>
      </trkpt>
      <trkpt lat="42.96792" lon="-0.00539">
        <ele>1655.5</ele>
        <time>2013-11-29T10:30:57.139Z</time>
      </trkpt>
      <trkpt lat="42.96791" lon="-0.00539">
        <ele>1655.5</ele>
        <time>2013-11-29T10:30:58.138Z</time>
      </trkpt>
      <trkpt lat="42.96784" lon="-0.00545">
        <ele>1655.9</ele>
        <time>2013-11-29T10:31:06.138Z</time>
      </trkpt>
      <trkpt lat="42.96783" lon="-0.00546">
        <ele>1655.9</ele>
        <time>2013-11-29T10:31:07.141Z</time>
      </trkpt>
      <trkpt lat="42.96778" lon="-0.00551">
        <ele>1656.3</ele>
        <time>2013-11-29T10:31:17.139Z</time>
      </trkpt>
      <trkpt lat="42.96778" lon="-0.00551">
        <ele>1656.3</ele>
        <time>2013-11-29T10:31:18.139Z</time>
      </trkpt>
      <trkpt lat="42.96778" lon="-0.00551">
        <ele>1656.3</ele>
        <time>2013-11-29T10:31:20.139Z</time>
      </trkpt>
      <trkpt lat="42.96777" lon="-0.00552">
        <ele>1656.3</ele>
        <time>2013-11-29T10:31:21.140Z</time>
      </trkpt>
      <trkpt lat="42.96769" lon="-0.00558">
        <ele>1656</ele>
        <time>2013-11-29T10:31:28.139Z</time>
      </trkpt>
      <trkpt lat="42.96768" lon="-0.00558">
        <ele>1656</ele>
        <time>2013-11-29T10:31:29.138Z</time>
      </trkpt>
      <trkpt lat="42.96765" lon="-0.00547">
        <ele>1656.9</ele>
        <time>2013-11-29T10:31:45.139Z</time>
      </trkpt>
      <trkpt lat="42.96765" lon="-0.00546">
        <ele>1656.9</ele>
        <time>2013-11-29T10:31:46.138Z</time>
      </trkpt>
      <trkpt lat="42.96769" lon="-0.00535">
        <ele>1657</ele>
        <time>2013-11-29T10:31:55.187Z</time>
      </trkpt>
      <trkpt lat="42.96769" lon="-0.00534">
        <ele>1656.9</ele>
        <time>2013-11-29T10:31:56.139Z</time>
      </trkpt>
      <trkpt lat="42.96769" lon="-0.00524">
        <ele>1656.9</ele>
        <time>2013-11-29T10:32:04.138Z</time>
      </trkpt>
      <trkpt lat="42.96769" lon="-0.00522">
        <ele>1656.9</ele>
        <time>2013-11-29T10:32:05.138Z</time>
      </trkpt>
      <trkpt lat="42.96775" lon="-0.00513">
        <ele>1657.3</ele>
        <time>2013-11-29T10:32:15.139Z</time>
      </trkpt>
      <trkpt lat="42.96775" lon="-0.00512">
        <ele>1657.3</ele>
        <time>2013-11-29T10:32:16.139Z</time>
      </trkpt>
      <trkpt lat="42.96781" lon="-0.00505">
        <ele>1657.6</ele>
        <time>2013-11-29T10:32:23.138Z</time>
      </trkpt>
      <trkpt lat="42.96782" lon="-0.00503">
        <ele>1657.7</ele>
        <time>2013-11-29T10:32:24.138Z</time>
      </trkpt>
      <trkpt lat="42.96785" lon="-0.00492">
        <ele>1657.9</ele>
        <time>2013-11-29T10:32:31.142Z</time>
      </trkpt>
      <trkpt lat="42.96786" lon="-0.00491">
        <ele>1658</ele>
        <time>2013-11-29T10:32:32.138Z</time>
      </trkpt>
      <trkpt lat="42.96791" lon="-0.00482">
        <ele>1658.1</ele>
        <time>2013-11-29T10:32:40.138Z</time>
      </trkpt>
      <trkpt lat="42.96791" lon="-0.00481">
        <ele>1658.1</ele>
        <time>2013-11-29T10:32:41.138Z</time>
      </trkpt>
      <trkpt lat="42.96792" lon="-0.00469">
        <ele>1658.4</ele>
        <time>2013-11-29T10:32:50.138Z</time>
      </trkpt>
      <trkpt lat="42.96792" lon="-0.00468">
        <ele>1658.5</ele>
        <time>2013-11-29T10:32:51.139Z</time>
      </trkpt>
      <trkpt lat="42.96795" lon="-0.00458">
        <ele>1659.2</ele>
        <time>2013-11-29T10:33:00.138Z</time>
      </trkpt>
      <trkpt lat="42.96795" lon="-0.00456">
        <ele>1659.3</ele>
        <time>2013-11-29T10:33:01.143Z</time>
      </trkpt>
      <trkpt lat="42.96795" lon="-0.00445">
        <ele>1659.6</ele>
        <time>2013-11-29T10:33:10.138Z</time>
      </trkpt>
      <trkpt lat="42.96796" lon="-0.00444">
        <ele>1659.7</ele>
        <time>2013-11-29T10:33:11.139Z</time>
      </trkpt>
      <trkpt lat="42.96799" lon="-0.00433">
        <ele>1660.7</ele>
        <time>2013-11-29T10:33:22.138Z</time>
      </trkpt>
      <trkpt lat="42.96798" lon="-0.00432">
        <ele>1660.8</ele>
        <time>2013-11-29T10:33:23.138Z</time>
      </trkpt>
      <trkpt lat="42.968" lon="-0.0042">
        <ele>1661.4</ele>
        <time>2013-11-29T10:33:33.139Z</time>
      </trkpt>
      <trkpt lat="42.968" lon="-0.00419">
        <ele>1661.4</ele>
        <time>2013-11-29T10:33:34.138Z</time>
      </trkpt>
      <trkpt lat="42.96802" lon="-0.00409">
        <ele>1661.7</ele>
        <time>2013-11-29T10:33:41.138Z</time>
      </trkpt>
      <trkpt lat="42.96803" lon="-0.00407">
        <ele>1661.7</ele>
        <time>2013-11-29T10:33:42.138Z</time>
      </trkpt>
      <trkpt lat="42.96806" lon="-0.00397">
        <ele>1661.9</ele>
        <time>2013-11-29T10:33:50.138Z</time>
      </trkpt>
      <trkpt lat="42.96806" lon="-0.00394">
        <ele>1661.9</ele>
        <time>2013-11-29T10:33:51.139Z</time>
      </trkpt>
      <trkpt lat="42.9681" lon="-0.00384">
        <ele>1662.3</ele>
        <time>2013-11-29T10:34:00.138Z</time>
      </trkpt>
      <trkpt lat="42.96811" lon="-0.00383">
        <ele>1662.3</ele>
        <time>2013-11-29T10:34:01.144Z</time>
      </trkpt>
      <trkpt lat="42.96815" lon="-0.00373">
        <ele>1662.6</ele>
        <time>2013-11-29T10:34:10.138Z</time>
      </trkpt>
      <trkpt lat="42.96816" lon="-0.00372">
        <ele>1662.6</ele>
        <time>2013-11-29T10:34:11.137Z</time>
      </trkpt>
      <trkpt lat="42.9682" lon="-0.00362">
        <ele>1662.9</ele>
        <time>2013-11-29T10:34:19.141Z</time>
      </trkpt>
      <trkpt lat="42.96821" lon="-0.00361">
        <ele>1662.9</ele>
        <time>2013-11-29T10:34:20.138Z</time>
      </trkpt>
      <trkpt lat="42.96826" lon="-0.00353">
        <ele>1663.2</ele>
        <time>2013-11-29T10:34:28.137Z</time>
      </trkpt>
      <trkpt lat="42.96827" lon="-0.00352">
        <ele>1663.2</ele>
        <time>2013-11-29T10:34:29.137Z</time>
      </trkpt>
      <trkpt lat="42.96831" lon="-0.00343">
        <ele>1663.2</ele>
        <time>2013-11-29T10:34:37.141Z</time>
      </trkpt>
      <trkpt lat="42.96832" lon="-0.00341">
        <ele>1663.2</ele>
        <time>2013-11-29T10:34:38.137Z</time>
      </trkpt>
      <trkpt lat="42.96837" lon="-0.00331">
        <ele>1663.2</ele>
        <time>2013-11-29T10:34:45.138Z</time>
      </trkpt>
      <trkpt lat="42.96837" lon="-0.0033">
        <ele>1663.1</ele>
        <time>2013-11-29T10:34:46.137Z</time>
      </trkpt>
      <trkpt lat="42.96839" lon="-0.00319">
        <ele>1662.9</ele>
        <time>2013-11-29T10:34:54.137Z</time>
      </trkpt>
      <trkpt lat="42.9684" lon="-0.00318">
        <ele>1662.9</ele>
        <time>2013-11-29T10:34:55.142Z</time>
      </trkpt>
      <trkpt lat="42.96841" lon="-0.00306">
        <ele>1662.9</ele>
        <time>2013-11-29T10:35:05.138Z</time>
      </trkpt>
      <trkpt lat="42.96841" lon="-0.00305">
        <ele>1663</ele>
        <time>2013-11-29T10:35:06.138Z</time>
      </trkpt>
      <trkpt lat="42.96843" lon="-0.00293">
        <ele>1663.2</ele>
        <time>2013-11-29T10:35:17.138Z</time>
      </trkpt>
      <trkpt lat="42.96843" lon="-0.00292">
        <ele>1663.3</ele>
        <time>2013-11-29T10:35:18.138Z</time>
      </trkpt>
      <trkpt lat="42.96842" lon="-0.00281">
        <ele>1663.3</ele>
        <time>2013-11-29T10:35:26.138Z</time>
      </trkpt>
      <trkpt lat="42.96842" lon="-0.00279">
        <ele>1663.3</ele>
        <time>2013-11-29T10:35:27.139Z</time>
      </trkpt>
      <trkpt lat="42.96843" lon="-0.00267">
        <ele>1663.6</ele>
        <time>2013-11-29T10:35:35.137Z</time>
      </trkpt>
      <trkpt lat="42.96843" lon="-0.00266">
        <ele>1663.5</ele>
        <time>2013-11-29T10:35:36.137Z</time>
      </trkpt>
      <trkpt lat="42.96843" lon="-0.00255">
        <ele>1663.7</ele>
        <time>2013-11-29T10:35:43.142Z</time>
      </trkpt>
      <trkpt lat="42.96843" lon="-0.00253">
        <ele>1663.7</ele>
        <time>2013-11-29T10:35:44.138Z</time>
      </trkpt>
      <trkpt lat="42.96845" lon="-0.00243">
        <ele>1664.1</ele>
        <time>2013-11-29T10:35:52.137Z</time>
      </trkpt>
      <trkpt lat="42.96846" lon="-0.00241">
        <ele>1664</ele>
        <time>2013-11-29T10:35:53.138Z</time>
      </trkpt>
      <trkpt lat="42.96846" lon="-0.0023">
        <ele>1664</ele>
        <time>2013-11-29T10:36:00.139Z</time>
      </trkpt>
      <trkpt lat="42.96845" lon="-0.00229">
        <ele>1664</ele>
        <time>2013-11-29T10:36:01.143Z</time>
      </trkpt>
      <trkpt lat="42.96844" lon="-0.00217">
        <ele>1663.8</ele>
        <time>2013-11-29T10:36:09.139Z</time>
      </trkpt>
      <trkpt lat="42.96844" lon="-0.00215">
        <ele>1663.8</ele>
        <time>2013-11-29T10:36:10.139Z</time>
      </trkpt>
      <trkpt lat="42.96845" lon="-0.00203">
        <ele>1663.8</ele>
        <time>2013-11-29T10:36:18.137Z</time>
      </trkpt>
      <trkpt lat="42.96844" lon="-0.00201">
        <ele>1663.8</ele>
        <time>2013-11-29T10:36:19.141Z</time>
      </trkpt>
      <trkpt lat="42.96845" lon="-0.00189">
        <ele>1664</ele>
        <time>2013-11-29T10:36:27.139Z</time>
      </trkpt>
      <trkpt lat="42.96845" lon="-0.00188">
        <ele>1664.1</ele>
        <time>2013-11-29T10:36:28.138Z</time>
      </trkpt>
      <trkpt lat="42.96845" lon="-0.00176">
        <ele>1664.4</ele>
        <time>2013-11-29T10:36:37.142Z</time>
      </trkpt>
      <trkpt lat="42.96845" lon="-0.00174">
        <ele>1664.4</ele>
        <time>2013-11-29T10:36:38.138Z</time>
      </trkpt>
      <trkpt lat="42.96845" lon="-0.00163">
        <ele>1665.1</ele>
        <time>2013-11-29T10:36:46.138Z</time>
      </trkpt>
      <trkpt lat="42.96845" lon="-0.00161">
        <ele>1665.1</ele>
        <time>2013-11-29T10:36:47.138Z</time>
      </trkpt>
      <trkpt lat="42.96847" lon="-0.0015">
        <ele>1665.7</ele>
        <time>2013-11-29T10:36:55.168Z</time>
      </trkpt>
      <trkpt lat="42.96847" lon="-0.00149">
        <ele>1665.8</ele>
        <time>2013-11-29T10:36:56.138Z</time>
      </trkpt>
      <trkpt lat="42.96849" lon="-0.00138">
        <ele>1666.4</ele>
        <time>2013-11-29T10:37:03.138Z</time>
      </trkpt>
      <trkpt lat="42.96849" lon="-0.00136">
        <ele>1666.5</ele>
        <time>2013-11-29T10:37:04.137Z</time>
      </trkpt>
      <trkpt lat="42.9685" lon="-0.00125">
        <ele>1667.2</ele>
        <time>2013-11-29T10:37:13.141Z</time>
      </trkpt>
      <trkpt lat="42.9685" lon="-0.00123">
        <ele>1667.4</ele>
        <time>2013-11-29T10:37:14.137Z</time>
      </trkpt>
      <trkpt lat="42.96851" lon="-0.00111">
        <ele>1668.5</ele>
        <time>2013-11-29T10:37:25.141Z</time>
      </trkpt>
      <trkpt lat="42.96851" lon="-0.0011">
        <ele>1668.6</ele>
        <time>2013-11-29T10:37:26.167Z</time>
      </trkpt>
      <trkpt lat="42.96851" lon="-0.00098">
        <ele>1669.1</ele>
        <time>2013-11-29T10:37:34.137Z</time>
      </trkpt>
      <trkpt lat="42.96851" lon="-0.00097">
        <ele>1669.2</ele>
        <time>2013-11-29T10:37:35.137Z</time>
      </trkpt>
      <trkpt lat="42.96853" lon="-0.00086">
        <ele>1670.2</ele>
        <time>2013-11-29T10:37:43.177Z</time>
      </trkpt>
      <trkpt lat="42.96854" lon="-0.00085">
        <ele>1670.3</ele>
        <time>2013-11-29T10:37:44.176Z</time>
      </trkpt>
      <trkpt lat="42.96855" lon="-0.00073">
        <ele>1670.8</ele>
        <time>2013-11-29T10:37:52.137Z</time>
      </trkpt>
      <trkpt lat="42.96856" lon="-0.00072">
        <ele>1670.9</ele>
        <time>2013-11-29T10:37:53.137Z</time>
      </trkpt>
      <trkpt lat="42.9686" lon="-0.00062">
        <ele>1671.4</ele>
        <time>2013-11-29T10:38:01.143Z</time>
      </trkpt>
      <trkpt lat="42.96861" lon="-0.00061">
        <ele>1671.4</ele>
        <time>2013-11-29T10:38:02.137Z</time>
      </trkpt>
      <trkpt lat="42.96864" lon="-0.0005">
        <ele>1671.9</ele>
        <time>2013-11-29T10:38:10.139Z</time>
      </trkpt>
      <trkpt lat="42.96865" lon="-0.00048">
        <ele>1672</ele>
        <time>2013-11-29T10:38:11.137Z</time>
      </trkpt>
      <trkpt lat="42.96869" lon="-0.00039">
        <ele>1672.7</ele>
        <time>2013-11-29T10:38:18.137Z</time>
      </trkpt>
      <trkpt lat="42.9687" lon="-0.00038">
        <ele>1672.8</ele>
        <time>2013-11-29T10:38:19.197Z</time>
      </trkpt>
      <trkpt lat="42.96879" lon="-0.00036">
        <ele>1674.3</ele>
        <time>2013-11-29T10:38:29.137Z</time>
      </trkpt>
      <trkpt lat="42.96879" lon="-0.00036">
        <ele>1674.4</ele>
        <time>2013-11-29T10:38:30.139Z</time>
      </trkpt>
      <trkpt lat="42.96887" lon="-0.0004">
        <ele>1675.3</ele>
        <time>2013-11-29T10:38:39.139Z</time>
      </trkpt>
      <trkpt lat="42.96888" lon="-0.00041">
        <ele>1675.4</ele>
        <time>2013-11-29T10:38:40.139Z</time>
      </trkpt>
      <trkpt lat="42.96897" lon="-0.00042">
        <ele>1676.6</ele>
        <time>2013-11-29T10:38:50.139Z</time>
      </trkpt>
      <trkpt lat="42.96898" lon="-0.00042">
        <ele>1676.6</ele>
        <time>2013-11-29T10:38:51.139Z</time>
      </trkpt>
      <trkpt lat="42.96902" lon="-0.00032">
        <ele>1678</ele>
        <time>2013-11-29T10:39:03.139Z</time>
      </trkpt>
      <trkpt lat="42.96903" lon="-0.00031">
        <ele>1678.1</ele>
        <time>2013-11-29T10:39:04.137Z</time>
      </trkpt>
      <trkpt lat="42.96908" lon="-0.00022">
        <ele>1680</ele>
        <time>2013-11-29T10:39:16.138Z</time>
      </trkpt>
      <trkpt lat="42.96908" lon="-0.00021">
        <ele>1680.2</ele>
        <time>2013-11-29T10:39:17.138Z</time>
      </trkpt>
      <trkpt lat="42.96908" lon="-0.00015">
        <ele>1681.3</ele>
        <time>2013-11-29T10:39:26.137Z</time>
      </trkpt>
      <trkpt lat="42.96908" lon="-0.00015">
        <ele>1681.3</ele>
        <time>2013-11-29T10:39:27.139Z</time>
      </trkpt>
      <trkpt lat="42.96908" lon="-0.00015">
        <ele>1681.3</ele>
        <time>2013-11-29T10:40:59.138Z</time>
      </trkpt>
      <trkpt lat="42.96908" lon="-0.00012">
        <ele>1681.4</ele>
        <time>2013-11-29T10:41:00.138Z</time>
      </trkpt>
      <trkpt lat="42.96909" lon="-1.0E-5">
        <ele>1680.8</ele>
        <time>2013-11-29T10:41:14.137Z</time>
      </trkpt>
      <trkpt lat="42.9691" lon="0">
        <ele>1680.8</ele>
        <time>2013-11-29T10:41:15.139Z</time>
      </trkpt>
      <trkpt lat="42.9691" lon="2.0E-5">
        <ele>1680.7</ele>
        <time>2013-11-29T10:41:22.138Z</time>
      </trkpt>
      <trkpt lat="42.9691" lon="3.0E-5">
        <ele>1680.7</ele>
        <time>2013-11-29T10:41:23.138Z</time>
      </trkpt>
      <trkpt lat="42.9691" lon="4.0E-5">
        <ele>1680.7</ele>
        <time>2013-11-29T10:41:24.138Z</time>
      </trkpt>
      <trkpt lat="42.9691" lon="0.00016">
        <ele>1680.6</ele>
        <time>2013-11-29T10:41:34.137Z</time>
      </trkpt>
      <trkpt lat="42.9691" lon="0.00017">
        <ele>1680.6</ele>
        <time>2013-11-29T10:41:35.176Z</time>
      </trkpt>
      <trkpt lat="42.9691" lon="0.00028">
        <ele>1680.6</ele>
        <time>2013-11-29T10:41:46.138Z</time>
      </trkpt>
      <trkpt lat="42.9691" lon="0.00029">
        <ele>1680.6</ele>
        <time>2013-11-29T10:41:47.138Z</time>
      </trkpt>
      <trkpt lat="42.96912" lon="0.00041">
        <ele>1680.6</ele>
        <time>2013-11-29T10:41:58.138Z</time>
      </trkpt>
      <trkpt lat="42.96912" lon="0.00042">
        <ele>1680.6</ele>
        <time>2013-11-29T10:41:59.137Z</time>
      </trkpt>
      <trkpt lat="42.96915" lon="0.00052">
        <ele>1680.6</ele>
        <time>2013-11-29T10:42:08.138Z</time>
      </trkpt>
      <trkpt lat="42.96915" lon="0.00054">
        <ele>1680.6</ele>
        <time>2013-11-29T10:42:09.425Z</time>
      </trkpt>
      <trkpt lat="42.96918" lon="0.00065">
        <ele>1680.6</ele>
        <time>2013-11-29T10:42:18.137Z</time>
      </trkpt>
      <trkpt lat="42.96918" lon="0.00066">
        <ele>1680.6</ele>
        <time>2013-11-29T10:42:19.141Z</time>
      </trkpt>
      <trkpt lat="42.96919" lon="0.00071">
        <ele>1680.5</ele>
        <time>2013-11-29T10:42:26.137Z</time>
      </trkpt>
      <trkpt lat="42.96919" lon="0.00071">
        <ele>1680.5</ele>
        <time>2013-11-29T10:42:27.139Z</time>
      </trkpt>
      <trkpt lat="42.96919" lon="0.0007">
        <ele>1680.5</ele>
        <time>2013-11-29T10:42:32.137Z</time>
      </trkpt>
      <trkpt lat="42.9692" lon="0.00072">
        <ele>1680.5</ele>
        <time>2013-11-29T10:42:33.139Z</time>
      </trkpt>
      <trkpt lat="42.96921" lon="0.00084">
        <ele>1680.3</ele>
        <time>2013-11-29T10:42:40.137Z</time>
      </trkpt>
      <trkpt lat="42.96921" lon="0.00085">
        <ele>1680.3</ele>
        <time>2013-11-29T10:42:41.137Z</time>
      </trkpt>
      <trkpt lat="42.96924" lon="0.00095">
        <ele>1680.4</ele>
        <time>2013-11-29T10:42:52.138Z</time>
      </trkpt>
      <trkpt lat="42.96925" lon="0.00097">
        <ele>1680.4</ele>
        <time>2013-11-29T10:42:53.137Z</time>
      </trkpt>
      <trkpt lat="42.96929" lon="0.00105">
        <ele>1680.4</ele>
        <time>2013-11-29T10:42:56.137Z</time>
      </trkpt>
      <trkpt lat="42.9693" lon="0.00108">
        <ele>1680.2</ele>
        <time>2013-11-29T10:42:57.138Z</time>
      </trkpt>
      <trkpt lat="42.9693" lon="0.0012">
        <ele>1680.3</ele>
        <time>2013-11-29T10:43:03.139Z</time>
      </trkpt>
      <trkpt lat="42.9693" lon="0.00122">
        <ele>1680.2</ele>
        <time>2013-11-29T10:43:04.137Z</time>
      </trkpt>
      <trkpt lat="42.96929" lon="0.00133">
        <ele>1679.7</ele>
        <time>2013-11-29T10:43:15.138Z</time>
      </trkpt>
      <trkpt lat="42.96929" lon="0.00134">
        <ele>1679.7</ele>
        <time>2013-11-29T10:43:16.139Z</time>
      </trkpt>
      <trkpt lat="42.9693" lon="0.00145">
        <ele>1679.4</ele>
        <time>2013-11-29T10:43:24.137Z</time>
      </trkpt>
      <trkpt lat="42.9693" lon="0.00147">
        <ele>1679.4</ele>
        <time>2013-11-29T10:43:25.141Z</time>
      </trkpt>
      <trkpt lat="42.9693" lon="0.00158">
        <ele>1679</ele>
        <time>2013-11-29T10:43:33.138Z</time>
      </trkpt>
      <trkpt lat="42.96929" lon="0.0016">
        <ele>1678.9</ele>
        <time>2013-11-29T10:43:34.137Z</time>
      </trkpt>
      <trkpt lat="42.96929" lon="0.00172">
        <ele>1678.5</ele>
        <time>2013-11-29T10:43:41.137Z</time>
      </trkpt>
      <trkpt lat="42.9693" lon="0.00173">
        <ele>1678.4</ele>
        <time>2013-11-29T10:43:42.137Z</time>
      </trkpt>
      <trkpt lat="42.9693" lon="0.00183">
        <ele>1678.1</ele>
        <time>2013-11-29T10:43:48.137Z</time>
      </trkpt>
      <trkpt lat="42.96931" lon="0.00186">
        <ele>1678.1</ele>
        <time>2013-11-29T10:43:49.141Z</time>
      </trkpt>
      <trkpt lat="42.96931" lon="0.00196">
        <ele>1677.8</ele>
        <time>2013-11-29T10:43:52.137Z</time>
      </trkpt>
      <trkpt lat="42.96931" lon="0.002">
        <ele>1677.6</ele>
        <time>2013-11-29T10:43:53.137Z</time>
      </trkpt>
      <trkpt lat="42.96933" lon="0.00211">
        <ele>1677.2</ele>
        <time>2013-11-29T10:43:56.138Z</time>
      </trkpt>
      <trkpt lat="42.96933" lon="0.00214">
        <ele>1677.1</ele>
        <time>2013-11-29T10:43:57.139Z</time>
      </trkpt>
      <trkpt lat="42.96935" lon="0.00225">
        <ele>1676.6</ele>
        <time>2013-11-29T10:44:04.137Z</time>
      </trkpt>
      <trkpt lat="42.96936" lon="0.00227">
        <ele>1676.5</ele>
        <time>2013-11-29T10:44:05.137Z</time>
      </trkpt>
      <trkpt lat="42.96938" lon="0.00238">
        <ele>1676.2</ele>
        <time>2013-11-29T10:44:10.177Z</time>
      </trkpt>
      <trkpt lat="42.96938" lon="0.00239">
        <ele>1676.1</ele>
        <time>2013-11-29T10:44:11.138Z</time>
      </trkpt>
      <trkpt lat="42.96938" lon="0.00251">
        <ele>1675.9</ele>
        <time>2013-11-29T10:44:19.140Z</time>
      </trkpt>
      <trkpt lat="42.96937" lon="0.00252">
        <ele>1675.9</ele>
        <time>2013-11-29T10:44:20.137Z</time>
      </trkpt>
      <trkpt lat="42.96934" lon="0.00262">
        <ele>1675.5</ele>
        <time>2013-11-29T10:44:25.140Z</time>
      </trkpt>
      <trkpt lat="42.96933" lon="0.00264">
        <ele>1675.4</ele>
        <time>2013-11-29T10:44:26.137Z</time>
      </trkpt>
      <trkpt lat="42.96929" lon="0.00274">
        <ele>1675.3</ele>
        <time>2013-11-29T10:44:33.139Z</time>
      </trkpt>
      <trkpt lat="42.96929" lon="0.00276">
        <ele>1675.3</ele>
        <time>2013-11-29T10:44:34.138Z</time>
      </trkpt>
      <trkpt lat="42.96923" lon="0.00285">
        <ele>1675.2</ele>
        <time>2013-11-29T10:44:41.138Z</time>
      </trkpt>
      <trkpt lat="42.96922" lon="0.00286">
        <ele>1675.1</ele>
        <time>2013-11-29T10:44:42.137Z</time>
      </trkpt>
      <trkpt lat="42.96918" lon="0.00295">
        <ele>1675.3</ele>
        <time>2013-11-29T10:44:46.137Z</time>
      </trkpt>
      <trkpt lat="42.96917" lon="0.00298">
        <ele>1675.4</ele>
        <time>2013-11-29T10:44:47.137Z</time>
      </trkpt>
      <trkpt lat="42.96913" lon="0.00308">
        <ele>1675.4</ele>
        <time>2013-11-29T10:44:52.137Z</time>
      </trkpt>
      <trkpt lat="42.96912" lon="0.00309">
        <ele>1675.6</ele>
        <time>2013-11-29T10:44:53.137Z</time>
      </trkpt>
      <trkpt lat="42.96909" lon="0.0032">
        <ele>1675.4</ele>
        <time>2013-11-29T10:45:00.137Z</time>
      </trkpt>
      <trkpt lat="42.96908" lon="0.00322">
        <ele>1675.3</ele>
        <time>2013-11-29T10:45:01.142Z</time>
      </trkpt>
      <trkpt lat="42.96906" lon="0.00334">
        <ele>1674.9</ele>
        <time>2013-11-29T10:45:09.138Z</time>
      </trkpt>
      <trkpt lat="42.96906" lon="0.00335">
        <ele>1674.8</ele>
        <time>2013-11-29T10:45:10.137Z</time>
      </trkpt>
      <trkpt lat="42.96901" lon="0.00343">
        <ele>1674.1</ele>
        <time>2013-11-29T10:45:22.137Z</time>
      </trkpt>
      <trkpt lat="42.96901" lon="0.00343">
        <ele>1674.1</ele>
        <time>2013-11-29T10:45:23.137Z</time>
      </trkpt>
      <trkpt lat="42.96902" lon="0.00342">
        <ele>1674.1</ele>
        <time>2013-11-29T10:45:29.137Z</time>
      </trkpt>
      <trkpt lat="42.96901" lon="0.00344">
        <ele>1674.3</ele>
        <time>2013-11-29T10:45:30.137Z</time>
      </trkpt>
      <trkpt lat="42.96898" lon="0.00355">
        <ele>1674.6</ele>
        <time>2013-11-29T10:45:36.137Z</time>
      </trkpt>
      <trkpt lat="42.96898" lon="0.00356">
        <ele>1674.6</ele>
        <time>2013-11-29T10:45:37.140Z</time>
      </trkpt>
      <trkpt lat="42.96895" lon="0.00366">
        <ele>1674.9</ele>
        <time>2013-11-29T10:45:44.136Z</time>
      </trkpt>
      <trkpt lat="42.96895" lon="0.00368">
        <ele>1675</ele>
        <time>2013-11-29T10:45:45.138Z</time>
      </trkpt>
      <trkpt lat="42.96893" lon="0.00379">
        <ele>1675.5</ele>
        <time>2013-11-29T10:45:55.140Z</time>
      </trkpt>
      <trkpt lat="42.96893" lon="0.0038">
        <ele>1675.5</ele>
        <time>2013-11-29T10:45:56.137Z</time>
      </trkpt>
      <trkpt lat="42.96892" lon="0.00391">
        <ele>1675.8</ele>
        <time>2013-11-29T10:46:03.137Z</time>
      </trkpt>
      <trkpt lat="42.96892" lon="0.00393">
        <ele>1675.9</ele>
        <time>2013-11-29T10:46:04.177Z</time>
      </trkpt>
      <trkpt lat="42.96893" lon="0.00405">
        <ele>1676.1</ele>
        <time>2013-11-29T10:46:11.137Z</time>
      </trkpt>
      <trkpt lat="42.96893" lon="0.00407">
        <ele>1676.1</ele>
        <time>2013-11-29T10:46:12.137Z</time>
      </trkpt>
      <trkpt lat="42.96893" lon="0.00419">
        <ele>1676.2</ele>
        <time>2013-11-29T10:46:21.138Z</time>
      </trkpt>
      <trkpt lat="42.96893" lon="0.0042">
        <ele>1676.2</ele>
        <time>2013-11-29T10:46:22.136Z</time>
      </trkpt>
      <trkpt lat="42.96894" lon="0.00431">
        <ele>1676.6</ele>
        <time>2013-11-29T10:46:30.137Z</time>
      </trkpt>
      <trkpt lat="42.96894" lon="0.00433">
        <ele>1676.7</ele>
        <time>2013-11-29T10:46:31.140Z</time>
      </trkpt>
      <trkpt lat="42.96893" lon="0.00445">
        <ele>1676.8</ele>
        <time>2013-11-29T10:46:39.137Z</time>
      </trkpt>
      <trkpt lat="42.96893" lon="0.00447">
        <ele>1676.8</ele>
        <time>2013-11-29T10:46:40.136Z</time>
      </trkpt>
      <trkpt lat="42.96893" lon="0.00458">
        <ele>1676.9</ele>
        <time>2013-11-29T10:46:47.137Z</time>
      </trkpt>
      <trkpt lat="42.96893" lon="0.0046">
        <ele>1677</ele>
        <time>2013-11-29T10:46:48.137Z</time>
      </trkpt>
      <trkpt lat="42.96892" lon="0.00471">
        <ele>1677</ele>
        <time>2013-11-29T10:46:58.136Z</time>
      </trkpt>
      <trkpt lat="42.96892" lon="0.00472">
        <ele>1677</ele>
        <time>2013-11-29T10:46:59.136Z</time>
      </trkpt>
      <trkpt lat="42.9689" lon="0.00482">
        <ele>1677</ele>
        <time>2013-11-29T10:47:06.137Z</time>
      </trkpt>
      <trkpt lat="42.96889" lon="0.00484">
        <ele>1677</ele>
        <time>2013-11-29T10:47:07.140Z</time>
      </trkpt>
      <trkpt lat="42.96887" lon="0.00495">
        <ele>1677.4</ele>
        <time>2013-11-29T10:47:19.140Z</time>
      </trkpt>
      <trkpt lat="42.96887" lon="0.00496">
        <ele>1677.4</ele>
        <time>2013-11-29T10:47:20.176Z</time>
      </trkpt>
      <trkpt lat="42.96888" lon="0.00496">
        <ele>1677.6</ele>
        <time>2013-11-29T10:47:23.137Z</time>
      </trkpt>
      <trkpt lat="42.96888" lon="0.00496">
        <ele>1677.7</ele>
        <time>2013-11-29T10:47:24.137Z</time>
      </trkpt>
      <trkpt lat="42.96888" lon="0.00496">
        <ele>1677.7</ele>
        <time>2013-11-29T10:48:11.136Z</time>
      </trkpt>
      <trkpt lat="42.96887" lon="0.00498">
        <ele>1678</ele>
        <time>2013-11-29T10:48:12.136Z</time>
      </trkpt>
      <trkpt lat="42.96883" lon="0.00507">
        <ele>1678</ele>
        <time>2013-11-29T10:48:17.136Z</time>
      </trkpt>
      <trkpt lat="42.96882" lon="0.00508">
        <ele>1678</ele>
        <time>2013-11-29T10:48:18.136Z</time>
      </trkpt>
      <trkpt lat="42.96879" lon="0.00519">
        <ele>1677.7</ele>
        <time>2013-11-29T10:48:24.137Z</time>
      </trkpt>
      <trkpt lat="42.96878" lon="0.00521">
        <ele>1677.7</ele>
        <time>2013-11-29T10:48:25.140Z</time>
      </trkpt>
      <trkpt lat="42.96874" lon="0.0053">
        <ele>1677.4</ele>
        <time>2013-11-29T10:48:30.137Z</time>
      </trkpt>
      <trkpt lat="42.96873" lon="0.00531">
        <ele>1677.4</ele>
        <time>2013-11-29T10:48:31.139Z</time>
      </trkpt>
      <trkpt lat="42.96868" lon="0.00541">
        <ele>1677.7</ele>
        <time>2013-11-29T10:48:37.139Z</time>
      </trkpt>
      <trkpt lat="42.96868" lon="0.00543">
        <ele>1677.6</ele>
        <time>2013-11-29T10:48:38.136Z</time>
      </trkpt>
      <trkpt lat="42.96865" lon="0.00554">
        <ele>1678.2</ele>
        <time>2013-11-29T10:48:44.136Z</time>
      </trkpt>
      <trkpt lat="42.96864" lon="0.00555">
        <ele>1678.2</ele>
        <time>2013-11-29T10:48:45.138Z</time>
      </trkpt>
      <trkpt lat="42.96862" lon="0.00565">
        <ele>1678.7</ele>
        <time>2013-11-29T10:48:51.138Z</time>
      </trkpt>
      <trkpt lat="42.96861" lon="0.00567">
        <ele>1678.8</ele>
        <time>2013-11-29T10:48:52.136Z</time>
      </trkpt>
      <trkpt lat="42.96857" lon="0.00577">
        <ele>1679.1</ele>
        <time>2013-11-29T10:48:57.137Z</time>
      </trkpt>
      <trkpt lat="42.96856" lon="0.00579">
        <ele>1679.1</ele>
        <time>2013-11-29T10:48:58.136Z</time>
      </trkpt>
      <trkpt lat="42.96855" lon="0.00589">
        <ele>1679</ele>
        <time>2013-11-29T10:49:02.136Z</time>
      </trkpt>
      <trkpt lat="42.96855" lon="0.00592">
        <ele>1678.8</ele>
        <time>2013-11-29T10:49:03.138Z</time>
      </trkpt>
      <trkpt lat="42.96853" lon="0.00604">
        <ele>1678.6</ele>
        <time>2013-11-29T10:49:07.139Z</time>
      </trkpt>
      <trkpt lat="42.96853" lon="0.00606">
        <ele>1678.5</ele>
        <time>2013-11-29T10:49:08.136Z</time>
      </trkpt>
      <trkpt lat="42.96852" lon="0.00616">
        <ele>1677.9</ele>
        <time>2013-11-29T10:49:13.139Z</time>
      </trkpt>
      <trkpt lat="42.96852" lon="0.0062">
        <ele>1677.7</ele>
        <time>2013-11-29T10:49:14.136Z</time>
      </trkpt>
      <trkpt lat="42.96851" lon="0.0063">
        <ele>1677.5</ele>
        <time>2013-11-29T10:49:17.136Z</time>
      </trkpt>
      <trkpt lat="42.9685" lon="0.00633">
        <ele>1677.3</ele>
        <time>2013-11-29T10:49:18.136Z</time>
      </trkpt>
      <trkpt lat="42.9685" lon="0.00641">
        <ele>1676.3</ele>
        <time>2013-11-29T10:49:20.136Z</time>
      </trkpt>
      <trkpt lat="42.96849" lon="0.00646">
        <ele>1676.2</ele>
        <time>2013-11-29T10:49:21.138Z</time>
      </trkpt>
      <trkpt lat="42.96848" lon="0.00655">
        <ele>1676</ele>
        <time>2013-11-29T10:49:23.136Z</time>
      </trkpt>
      <trkpt lat="42.96848" lon="0.00659">
        <ele>1675.9</ele>
        <time>2013-11-29T10:49:24.136Z</time>
      </trkpt>
      <trkpt lat="42.96848" lon="0.0067">
        <ele>1675.6</ele>
        <time>2013-11-29T10:49:27.137Z</time>
      </trkpt>
      <trkpt lat="42.96848" lon="0.00674">
        <ele>1674.4</ele>
        <time>2013-11-29T10:49:28.136Z</time>
      </trkpt>
      <trkpt lat="42.96847" lon="0.00684">
        <ele>1672.9</ele>
        <time>2013-11-29T10:49:30.136Z</time>
      </trkpt>
      <trkpt lat="42.96847" lon="0.00689">
        <ele>1672.5</ele>
        <time>2013-11-29T10:49:31.139Z</time>
      </trkpt>
      <trkpt lat="42.96846" lon="0.00698">
        <ele>1671.3</ele>
        <time>2013-11-29T10:49:33.137Z</time>
      </trkpt>
      <trkpt lat="42.96846" lon="0.00703">
        <ele>1670.5</ele>
        <time>2013-11-29T10:49:34.136Z</time>
      </trkpt>
      <trkpt lat="42.96844" lon="0.00713">
        <ele>1669.7</ele>
        <time>2013-11-29T10:49:36.136Z</time>
      </trkpt>
      <trkpt lat="42.96844" lon="0.00718">
        <ele>1669.2</ele>
        <time>2013-11-29T10:49:37.140Z</time>
      </trkpt>
      <trkpt lat="42.96843" lon="0.00722">
        <ele>1669.3</ele>
        <time>2013-11-29T10:49:43.139Z</time>
      </trkpt>
      <trkpt lat="42.96843" lon="0.00722">
        <ele>1669.3</ele>
        <time>2013-11-29T10:49:44.136Z</time>
      </trkpt>
      <trkpt lat="42.96843" lon="0.00721">
        <ele>1669.3</ele>
        <time>2013-11-29T10:50:11.136Z</time>
      </trkpt>
      <trkpt lat="42.96842" lon="0.00721">
        <ele>1669</ele>
        <time>2013-11-29T10:50:12.136Z</time>
      </trkpt>
      <trkpt lat="42.96834" lon="0.00724">
        <ele>1669</ele>
        <time>2013-11-29T10:50:22.136Z</time>
      </trkpt>
      <trkpt lat="42.96833" lon="0.00723">
        <ele>1669</ele>
        <time>2013-11-29T10:50:23.136Z</time>
      </trkpt>
      <trkpt lat="42.96834" lon="0.00723">
        <ele>1668.8</ele>
        <time>2013-11-29T10:50:26.136Z</time>
      </trkpt>
      <trkpt lat="42.96834" lon="0.00724">
        <ele>1668.7</ele>
        <time>2013-11-29T10:50:27.137Z</time>
      </trkpt>
      <trkpt lat="42.96834" lon="0.00724">
        <ele>1668.7</ele>
        <time>2013-11-29T10:50:30.136Z</time>
      </trkpt>
      <trkpt lat="42.96834" lon="0.00726">
        <ele>1668.5</ele>
        <time>2013-11-29T10:50:31.139Z</time>
      </trkpt>
      <trkpt lat="42.96829" lon="0.00735">
        <ele>1668.4</ele>
        <time>2013-11-29T10:50:39.137Z</time>
      </trkpt>
      <trkpt lat="42.96828" lon="0.00737">
        <ele>1668.4</ele>
        <time>2013-11-29T10:50:40.136Z</time>
      </trkpt>
      <trkpt lat="42.96825" lon="0.00748">
        <ele>1668.5</ele>
        <time>2013-11-29T10:50:47.136Z</time>
      </trkpt>
      <trkpt lat="42.96825" lon="0.00749">
        <ele>1668.4</ele>
        <time>2013-11-29T10:50:48.136Z</time>
      </trkpt>
      <trkpt lat="42.9682" lon="0.00759">
        <ele>1668.9</ele>
        <time>2013-11-29T10:50:57.137Z</time>
      </trkpt>
      <trkpt lat="42.9682" lon="0.0076">
        <ele>1669</ele>
        <time>2013-11-29T10:50:58.136Z</time>
      </trkpt>
      <trkpt lat="42.96814" lon="0.00768">
        <ele>1669.4</ele>
        <time>2013-11-29T10:51:09.137Z</time>
      </trkpt>
      <trkpt lat="42.96813" lon="0.00769">
        <ele>1669.4</ele>
        <time>2013-11-29T10:51:10.136Z</time>
      </trkpt>
      <trkpt lat="42.96811" lon="0.00781">
        <ele>1669.8</ele>
        <time>2013-11-29T10:51:24.136Z</time>
      </trkpt>
      <trkpt lat="42.96811" lon="0.00781">
        <ele>1669.8</ele>
        <time>2013-11-29T10:51:25.139Z</time>
      </trkpt>
      <trkpt lat="42.96808" lon="0.00793">
        <ele>1670.3</ele>
        <time>2013-11-29T10:51:38.136Z</time>
      </trkpt>
      <trkpt lat="42.96808" lon="0.00793">
        <ele>1670.3</ele>
        <time>2013-11-29T10:51:39.137Z</time>
      </trkpt>
      <trkpt lat="42.96807" lon="0.00805">
        <ele>1671</ele>
        <time>2013-11-29T10:51:50.136Z</time>
      </trkpt>
      <trkpt lat="42.96806" lon="0.00806">
        <ele>1671</ele>
        <time>2013-11-29T10:51:51.137Z</time>
      </trkpt>
      <trkpt lat="42.96806" lon="0.00817">
        <ele>1671.4</ele>
        <time>2013-11-29T10:51:58.136Z</time>
      </trkpt>
      <trkpt lat="42.96806" lon="0.00819">
        <ele>1671.4</ele>
        <time>2013-11-29T10:51:59.136Z</time>
      </trkpt>
      <trkpt lat="42.96805" lon="0.0083">
        <ele>1672.1</ele>
        <time>2013-11-29T10:52:13.139Z</time>
      </trkpt>
      <trkpt lat="42.96805" lon="0.00831">
        <ele>1672.2</ele>
        <time>2013-11-29T10:52:14.135Z</time>
      </trkpt>
      <trkpt lat="42.96803" lon="0.00843">
        <ele>1672.8</ele>
        <time>2013-11-29T10:52:25.139Z</time>
      </trkpt>
      <trkpt lat="42.96803" lon="0.00844">
        <ele>1672.8</ele>
        <time>2013-11-29T10:52:26.136Z</time>
      </trkpt>
      <trkpt lat="42.968" lon="0.00856">
        <ele>1673.3</ele>
        <time>2013-11-29T10:52:37.187Z</time>
      </trkpt>
      <trkpt lat="42.968" lon="0.00858">
        <ele>1673.4</ele>
        <time>2013-11-29T10:52:38.135Z</time>
      </trkpt>
      <trkpt lat="42.96799" lon="0.00869">
        <ele>1674</ele>
        <time>2013-11-29T10:52:49.138Z</time>
      </trkpt>
      <trkpt lat="42.96799" lon="0.0087">
        <ele>1674.1</ele>
        <time>2013-11-29T10:52:50.135Z</time>
      </trkpt>
      <trkpt lat="42.96798" lon="0.00882">
        <ele>1675</ele>
        <time>2013-11-29T10:53:03.137Z</time>
      </trkpt>
      <trkpt lat="42.96797" lon="0.00883">
        <ele>1675</ele>
        <time>2013-11-29T10:53:04.135Z</time>
      </trkpt>
      <trkpt lat="42.96796" lon="0.00895">
        <ele>1676</ele>
        <time>2013-11-29T10:53:17.135Z</time>
      </trkpt>
      <trkpt lat="42.96796" lon="0.00896">
        <ele>1676.1</ele>
        <time>2013-11-29T10:53:18.135Z</time>
      </trkpt>
      <trkpt lat="42.96797" lon="0.00907">
        <ele>1677.5</ele>
        <time>2013-11-29T10:53:32.135Z</time>
      </trkpt>
      <trkpt lat="42.96797" lon="0.00908">
        <ele>1677.6</ele>
        <time>2013-11-29T10:53:33.136Z</time>
      </trkpt>
      <trkpt lat="42.968" lon="0.00919">
        <ele>1679.1</ele>
        <time>2013-11-29T10:53:47.135Z</time>
      </trkpt>
      <trkpt lat="42.96799" lon="0.0092">
        <ele>1679.4</ele>
        <time>2013-11-29T10:53:48.135Z</time>
      </trkpt>
      <trkpt lat="42.96805" lon="0.00929">
        <ele>1681.1</ele>
        <time>2013-11-29T10:54:03.136Z</time>
      </trkpt>
      <trkpt lat="42.96805" lon="0.0093">
        <ele>1681.2</ele>
        <time>2013-11-29T10:54:04.135Z</time>
      </trkpt>
      <trkpt lat="42.96806" lon="0.00941">
        <ele>1682.6</ele>
        <time>2013-11-29T10:54:17.135Z</time>
      </trkpt>
      <trkpt lat="42.96806" lon="0.00942">
        <ele>1682.7</ele>
        <time>2013-11-29T10:54:18.135Z</time>
      </trkpt>
      <trkpt lat="42.96806" lon="0.00955">
        <ele>1684.1</ele>
        <time>2013-11-29T10:54:29.135Z</time>
      </trkpt>
      <trkpt lat="42.96806" lon="0.00956">
        <ele>1684.2</ele>
        <time>2013-11-29T10:54:30.135Z</time>
      </trkpt>
      <trkpt lat="42.96807" lon="0.00967">
        <ele>1685.6</ele>
        <time>2013-11-29T10:54:42.135Z</time>
      </trkpt>
      <trkpt lat="42.96807" lon="0.00968">
        <ele>1685.7</ele>
        <time>2013-11-29T10:54:43.138Z</time>
      </trkpt>
      <trkpt lat="42.96805" lon="0.00979">
        <ele>1687.4</ele>
        <time>2013-11-29T10:54:55.138Z</time>
      </trkpt>
      <trkpt lat="42.96805" lon="0.0098">
        <ele>1687.5</ele>
        <time>2013-11-29T10:54:56.135Z</time>
      </trkpt>
      <trkpt lat="42.96804" lon="0.00991">
        <ele>1689.3</ele>
        <time>2013-11-29T10:55:10.135Z</time>
      </trkpt>
      <trkpt lat="42.96804" lon="0.00992">
        <ele>1689.4</ele>
        <time>2013-11-29T10:55:11.135Z</time>
      </trkpt>
      <trkpt lat="42.96801" lon="0.01003">
        <ele>1691.2</ele>
        <time>2013-11-29T10:55:25.138Z</time>
      </trkpt>
      <trkpt lat="42.968" lon="0.01004">
        <ele>1691.4</ele>
        <time>2013-11-29T10:55:26.135Z</time>
      </trkpt>
      <trkpt lat="42.96799" lon="0.01015">
        <ele>1693.1</ele>
        <time>2013-11-29T10:55:37.138Z</time>
      </trkpt>
      <trkpt lat="42.96799" lon="0.01016">
        <ele>1693.3</ele>
        <time>2013-11-29T10:55:38.135Z</time>
      </trkpt>
      <trkpt lat="42.96798" lon="0.01028">
        <ele>1695.4</ele>
        <time>2013-11-29T10:55:52.135Z</time>
      </trkpt>
      <trkpt lat="42.96798" lon="0.01029">
        <ele>1695.5</ele>
        <time>2013-11-29T10:55:53.135Z</time>
      </trkpt>
      <trkpt lat="42.968" lon="0.0104">
        <ele>1698.8</ele>
        <time>2013-11-29T10:56:11.135Z</time>
      </trkpt>
      <trkpt lat="42.968" lon="0.01041">
        <ele>1699</ele>
        <time>2013-11-29T10:56:12.135Z</time>
      </trkpt>
      <trkpt lat="42.96802" lon="0.01052">
        <ele>1702.6</ele>
        <time>2013-11-29T10:56:32.134Z</time>
      </trkpt>
      <trkpt lat="42.96803" lon="0.01052">
        <ele>1702.8</ele>
        <time>2013-11-29T10:56:33.136Z</time>
      </trkpt>
      <trkpt lat="42.96801" lon="0.01064">
        <ele>1705.6</ele>
        <time>2013-11-29T10:56:51.136Z</time>
      </trkpt>
      <trkpt lat="42.96801" lon="0.01065">
        <ele>1705.8</ele>
        <time>2013-11-29T10:56:52.135Z</time>
      </trkpt>
      <trkpt lat="42.968" lon="0.01071">
        <ele>1707.3</ele>
        <time>2013-11-29T10:57:04.134Z</time>
      </trkpt>
      <trkpt lat="42.968" lon="0.01071">
        <ele>1707.3</ele>
        <time>2013-11-29T10:57:05.134Z</time>
      </trkpt>
      <trkpt lat="42.968" lon="0.01071">
        <ele>1707.3</ele>
        <time>2013-11-29T10:57:15.136Z</time>
      </trkpt>
      <trkpt lat="42.968" lon="0.01075">
        <ele>1709</ele>
        <time>2013-11-29T10:57:16.134Z</time>
      </trkpt>
      <trkpt lat="42.96798" lon="0.01087">
        <ele>1710.2</ele>
        <time>2013-11-29T10:57:27.136Z</time>
      </trkpt>
      <trkpt lat="42.96799" lon="0.01088">
        <ele>1710.3</ele>
        <time>2013-11-29T10:57:28.134Z</time>
      </trkpt>
      <trkpt lat="42.96804" lon="0.01096">
        <ele>1713</ele>
        <time>2013-11-29T10:57:45.135Z</time>
      </trkpt>
      <trkpt lat="42.96805" lon="0.01097">
        <ele>1713.3</ele>
        <time>2013-11-29T10:57:46.135Z</time>
      </trkpt>
      <trkpt lat="42.9681" lon="0.01102">
        <ele>1715.1</ele>
        <time>2013-11-29T10:57:59.134Z</time>
      </trkpt>
      <trkpt lat="42.9681" lon="0.01102">
        <ele>1715.1</ele>
        <time>2013-11-29T10:58:00.134Z</time>
      </trkpt>
      <trkpt lat="42.9681" lon="0.01103">
        <ele>1715.4</ele>
        <time>2013-11-29T10:58:16.134Z</time>
      </trkpt>
      <trkpt lat="42.9681" lon="0.01103">
        <ele>1715.5</ele>
        <time>2013-11-29T10:58:17.134Z</time>
      </trkpt>
      <trkpt lat="42.96805" lon="0.01114">
        <ele>1716.2</ele>
        <time>2013-11-29T10:58:31.138Z</time>
      </trkpt>
      <trkpt lat="42.96805" lon="0.01115">
        <ele>1716.3</ele>
        <time>2013-11-29T10:58:32.187Z</time>
      </trkpt>
      <trkpt lat="42.96804" lon="0.01125">
        <ele>1716.7</ele>
        <time>2013-11-29T10:58:36.134Z</time>
      </trkpt>
      <trkpt lat="42.96803" lon="0.01128">
        <ele>1716.6</ele>
        <time>2013-11-29T10:58:37.137Z</time>
      </trkpt>
      <trkpt lat="42.96799" lon="0.01138">
        <ele>1717</ele>
        <time>2013-11-29T10:58:44.134Z</time>
      </trkpt>
      <trkpt lat="42.96798" lon="0.0114">
        <ele>1717.2</ele>
        <time>2013-11-29T10:58:45.135Z</time>
      </trkpt>
      <trkpt lat="42.96795" lon="0.01151">
        <ele>1717.6</ele>
        <time>2013-11-29T10:58:51.135Z</time>
      </trkpt>
      <trkpt lat="42.96795" lon="0.01153">
        <ele>1717.5</ele>
        <time>2013-11-29T10:58:52.134Z</time>
      </trkpt>
      <trkpt lat="42.96796" lon="0.01164">
        <ele>1717.8</ele>
        <time>2013-11-29T10:59:01.139Z</time>
      </trkpt>
      <trkpt lat="42.96796" lon="0.01166">
        <ele>1717.8</ele>
        <time>2013-11-29T10:59:02.134Z</time>
      </trkpt>
      <trkpt lat="42.96798" lon="0.01176">
        <ele>1718.5</ele>
        <time>2013-11-29T10:59:12.134Z</time>
      </trkpt>
      <trkpt lat="42.96798" lon="0.01178">
        <ele>1718.6</ele>
        <time>2013-11-29T10:59:13.137Z</time>
      </trkpt>
      <trkpt lat="42.96801" lon="0.01188">
        <ele>1719.5</ele>
        <time>2013-11-29T10:59:23.134Z</time>
      </trkpt>
      <trkpt lat="42.96802" lon="0.01189">
        <ele>1719.5</ele>
        <time>2013-11-29T10:59:24.134Z</time>
      </trkpt>
      <trkpt lat="42.96807" lon="0.01198">
        <ele>1720.3</ele>
        <time>2013-11-29T10:59:33.135Z</time>
      </trkpt>
      <trkpt lat="42.96807" lon="0.01199">
        <ele>1720.3</ele>
        <time>2013-11-29T10:59:34.133Z</time>
      </trkpt>
      <trkpt lat="42.9681" lon="0.0121">
        <ele>1721.5</ele>
        <time>2013-11-29T10:59:46.134Z</time>
      </trkpt>
      <trkpt lat="42.9681" lon="0.01211">
        <ele>1721.6</ele>
        <time>2013-11-29T10:59:47.133Z</time>
      </trkpt>
      <trkpt lat="42.96815" lon="0.01221">
        <ele>1722.7</ele>
        <time>2013-11-29T10:59:59.134Z</time>
      </trkpt>
      <trkpt lat="42.96815" lon="0.01222">
        <ele>1722.8</ele>
        <time>2013-11-29T11:00:00.134Z</time>
      </trkpt>
      <trkpt lat="42.96824" lon="0.01224">
        <ele>1725.4</ele>
        <time>2013-11-29T11:00:20.134Z</time>
      </trkpt>
      <trkpt lat="42.96825" lon="0.01223">
        <ele>1725.5</ele>
        <time>2013-11-29T11:00:21.135Z</time>
      </trkpt>
      <trkpt lat="42.96832" lon="0.01217">
        <ele>1726.9</ele>
        <time>2013-11-29T11:00:33.145Z</time>
      </trkpt>
      <trkpt lat="42.96833" lon="0.01217">
        <ele>1727</ele>
        <time>2013-11-29T11:00:34.133Z</time>
      </trkpt>
      <trkpt lat="42.96842" lon="0.01215">
        <ele>1729.1</ele>
        <time>2013-11-29T11:00:47.133Z</time>
      </trkpt>
      <trkpt lat="42.96843" lon="0.01215">
        <ele>1729.5</ele>
        <time>2013-11-29T11:00:48.134Z</time>
      </trkpt>
      <trkpt lat="42.96849" lon="0.01207">
        <ele>1731.3</ele>
        <time>2013-11-29T11:00:59.134Z</time>
      </trkpt>
      <trkpt lat="42.96849" lon="0.01207">
        <ele>1731.4</ele>
        <time>2013-11-29T11:01:00.134Z</time>
      </trkpt>
      <trkpt lat="42.96856" lon="0.01199">
        <ele>1733.2</ele>
        <time>2013-11-29T11:01:12.134Z</time>
      </trkpt>
      <trkpt lat="42.96856" lon="0.01198">
        <ele>1733.3</ele>
        <time>2013-11-29T11:01:13.137Z</time>
      </trkpt>
      <trkpt lat="42.96865" lon="0.012">
        <ele>1735.2</ele>
        <time>2013-11-29T11:01:27.134Z</time>
      </trkpt>
      <trkpt lat="42.96865" lon="0.012">
        <ele>1735.3</ele>
        <time>2013-11-29T11:01:28.133Z</time>
      </trkpt>
      <trkpt lat="42.96869" lon="0.01205">
        <ele>1736.8</ele>
        <time>2013-11-29T11:01:39.134Z</time>
      </trkpt>
      <trkpt lat="42.96869" lon="0.01205">
        <ele>1736.9</ele>
        <time>2013-11-29T11:01:40.133Z</time>
      </trkpt>
      <trkpt lat="42.96869" lon="0.01204">
        <ele>1738.9</ele>
        <time>2013-11-29T11:16:39.130Z</time>
      </trkpt>
      <trkpt lat="42.9687" lon="0.01204">
        <ele>1738.9</ele>
        <time>2013-11-29T11:16:40.129Z</time>
      </trkpt>
      <trkpt lat="42.96872" lon="0.01203">
        <ele>1738.9</ele>
        <time>2013-11-29T11:16:46.129Z</time>
      </trkpt>
      <trkpt lat="42.96872" lon="0.01203">
        <ele>1738.9</ele>
        <time>2013-11-29T11:16:47.129Z</time>
      </trkpt>
      <trkpt lat="42.96872" lon="0.01203">
        <ele>1738.9</ele>
        <time>2013-11-29T11:16:50.130Z</time>
      </trkpt>
      <trkpt lat="42.96873" lon="0.01203">
        <ele>1738.9</ele>
        <time>2013-11-29T11:16:51.131Z</time>
      </trkpt>
      <trkpt lat="42.96875" lon="0.01206">
        <ele>1738.9</ele>
        <time>2013-11-29T11:16:56.129Z</time>
      </trkpt>
      <trkpt lat="42.96874" lon="0.01206">
        <ele>1738.9</ele>
        <time>2013-11-29T11:16:57.130Z</time>
      </trkpt>
      <trkpt lat="42.96874" lon="0.01206">
        <ele>1738.9</ele>
        <time>2013-11-29T11:16:58.129Z</time>
      </trkpt>
      <trkpt lat="42.96873" lon="0.01206">
        <ele>1738.9</ele>
        <time>2013-11-29T11:16:59.129Z</time>
      </trkpt>
      <trkpt lat="42.9687" lon="0.01205">
        <ele>1739.1</ele>
        <time>2013-11-29T11:17:06.129Z</time>
      </trkpt>
      <trkpt lat="42.9687" lon="0.01205">
        <ele>1739.1</ele>
        <time>2013-11-29T11:17:07.133Z</time>
      </trkpt>
      <trkpt lat="42.9687" lon="0.01205">
        <ele>1739.1</ele>
        <time>2013-11-29T11:21:03.130Z</time>
      </trkpt>
      <trkpt lat="42.96871" lon="0.01206">
        <ele>1740.7</ele>
        <time>2013-11-29T11:21:04.129Z</time>
      </trkpt>
      <trkpt lat="42.96877" lon="0.01215">
        <ele>1741.1</ele>
        <time>2013-11-29T11:21:11.129Z</time>
      </trkpt>
      <trkpt lat="42.96879" lon="0.01217">
        <ele>1741.1</ele>
        <time>2013-11-29T11:21:12.129Z</time>
      </trkpt>
      <trkpt lat="42.96884" lon="0.01226">
        <ele>1741.2</ele>
        <time>2013-11-29T11:21:14.130Z</time>
      </trkpt>
      <trkpt lat="42.96887" lon="0.01231">
        <ele>1741.3</ele>
        <time>2013-11-29T11:21:15.130Z</time>
      </trkpt>
      <trkpt lat="42.96893" lon="0.01239">
        <ele>1741.4</ele>
        <time>2013-11-29T11:21:17.129Z</time>
      </trkpt>
      <trkpt lat="42.96895" lon="0.01242">
        <ele>1741.3</ele>
        <time>2013-11-29T11:21:18.130Z</time>
      </trkpt>
      <trkpt lat="42.96902" lon="0.01248">
        <ele>1741.3</ele>
        <time>2013-11-29T11:21:21.130Z</time>
      </trkpt>
      <trkpt lat="42.96904" lon="0.01248">
        <ele>1741.2</ele>
        <time>2013-11-29T11:21:22.129Z</time>
      </trkpt>
      <trkpt lat="42.96911" lon="0.01247">
        <ele>1740.9</ele>
        <time>2013-11-29T11:21:24.129Z</time>
      </trkpt>
      <trkpt lat="42.96914" lon="0.01246">
        <ele>1740.9</ele>
        <time>2013-11-29T11:21:25.132Z</time>
      </trkpt>
      <trkpt lat="42.96919" lon="0.01244">
        <ele>1740.6</ele>
        <time>2013-11-29T11:21:26.129Z</time>
      </trkpt>
      <trkpt lat="42.96923" lon="0.01242">
        <ele>1740.4</ele>
        <time>2013-11-29T11:21:27.131Z</time>
      </trkpt>
      <trkpt lat="42.96928" lon="0.0124">
        <ele>1740.1</ele>
        <time>2013-11-29T11:21:28.129Z</time>
      </trkpt>
      <trkpt lat="42.96933" lon="0.01238">
        <ele>1739.8</ele>
        <time>2013-11-29T11:21:29.128Z</time>
      </trkpt>
      <trkpt lat="42.96937" lon="0.01236">
        <ele>1739.5</ele>
        <time>2013-11-29T11:21:30.128Z</time>
      </trkpt>
      <trkpt lat="42.96941" lon="0.01234">
        <ele>1739.2</ele>
        <time>2013-11-29T11:21:31.132Z</time>
      </trkpt>
      <trkpt lat="42.96946" lon="0.01231">
        <ele>1739</ele>
        <time>2013-11-29T11:21:32.129Z</time>
      </trkpt>
      <trkpt lat="42.96951" lon="0.01229">
        <ele>1739</ele>
        <time>2013-11-29T11:21:33.130Z</time>
      </trkpt>
      <trkpt lat="42.96957" lon="0.01228">
        <ele>1738.5</ele>
        <time>2013-11-29T11:21:34.129Z</time>
      </trkpt>
      <trkpt lat="42.96961" lon="0.01229">
        <ele>1738.3</ele>
        <time>2013-11-29T11:21:35.128Z</time>
      </trkpt>
      <trkpt lat="42.96968" lon="0.01233">
        <ele>1737.7</ele>
        <time>2013-11-29T11:21:37.132Z</time>
      </trkpt>
      <trkpt lat="42.9697" lon="0.01234">
        <ele>1737.4</ele>
        <time>2013-11-29T11:21:38.129Z</time>
      </trkpt>
      <trkpt lat="42.96978" lon="0.01233">
        <ele>1736.2</ele>
        <time>2013-11-29T11:21:41.129Z</time>
      </trkpt>
      <trkpt lat="42.9698" lon="0.01233">
        <ele>1735.9</ele>
        <time>2013-11-29T11:21:42.129Z</time>
      </trkpt>
      <trkpt lat="42.96979" lon="0.01224">
        <ele>1730</ele>
        <time>2013-11-29T11:21:50.129Z</time>
      </trkpt>
      <trkpt lat="42.96978" lon="0.01224">
        <ele>1730</ele>
        <time>2013-11-29T11:21:51.130Z</time>
      </trkpt>
      <trkpt lat="42.96978" lon="0.01225">
        <ele>1730</ele>
        <time>2013-11-29T11:22:03.131Z</time>
      </trkpt>
      <trkpt lat="42.96978" lon="0.01226">
        <ele>1728.8</ele>
        <time>2013-11-29T11:22:04.130Z</time>
      </trkpt>
      <trkpt lat="42.96982" lon="0.01232">
        <ele>1728.6</ele>
        <time>2013-11-29T11:22:06.130Z</time>
      </trkpt>
      <trkpt lat="42.96985" lon="0.01237">
        <ele>1728.2</ele>
        <time>2013-11-29T11:22:07.133Z</time>
      </trkpt>
      <trkpt lat="42.96988" lon="0.01242">
        <ele>1728</ele>
        <time>2013-11-29T11:22:08.129Z</time>
      </trkpt>
      <trkpt lat="42.96991" lon="0.01247">
        <ele>1727.8</ele>
        <time>2013-11-29T11:22:09.131Z</time>
      </trkpt>
      <trkpt lat="42.96998" lon="0.01251">
        <ele>1726.7</ele>
        <time>2013-11-29T11:22:11.129Z</time>
      </trkpt>
      <trkpt lat="42.97001" lon="0.01251">
        <ele>1726.5</ele>
        <time>2013-11-29T11:22:12.197Z</time>
      </trkpt>
      <trkpt lat="42.97007" lon="0.01251">
        <ele>1726</ele>
        <time>2013-11-29T11:22:14.184Z</time>
      </trkpt>
      <trkpt lat="42.97011" lon="0.01249">
        <ele>1725.5</ele>
        <time>2013-11-29T11:22:15.130Z</time>
      </trkpt>
      <trkpt lat="42.97015" lon="0.01245">
        <ele>1725.2</ele>
        <time>2013-11-29T11:22:16.129Z</time>
      </trkpt>
      <trkpt lat="42.97019" lon="0.01242">
        <ele>1725</ele>
        <time>2013-11-29T11:22:17.192Z</time>
      </trkpt>
      <trkpt lat="42.97026" lon="0.01241">
        <ele>1724.7</ele>
        <time>2013-11-29T11:22:18.129Z</time>
      </trkpt>
      <trkpt lat="42.97033" lon="0.01241">
        <ele>1724.5</ele>
        <time>2013-11-29T11:22:19.132Z</time>
      </trkpt>
      <trkpt lat="42.97042" lon="0.01241">
        <ele>1724.3</ele>
        <time>2013-11-29T11:22:20.129Z</time>
      </trkpt>
      <trkpt lat="42.97051" lon="0.01241">
        <ele>1723.8</ele>
        <time>2013-11-29T11:22:21.130Z</time>
      </trkpt>
      <trkpt lat="42.97059" lon="0.0124">
        <ele>1723.2</ele>
        <time>2013-11-29T11:22:22.129Z</time>
      </trkpt>
      <trkpt lat="42.97066" lon="0.01238">
        <ele>1722.3</ele>
        <time>2013-11-29T11:22:23.129Z</time>
      </trkpt>
      <trkpt lat="42.97072" lon="0.01235">
        <ele>1722</ele>
        <time>2013-11-29T11:22:24.129Z</time>
      </trkpt>
      <trkpt lat="42.97076" lon="0.01232">
        <ele>1721.6</ele>
        <time>2013-11-29T11:22:25.132Z</time>
      </trkpt>
      <trkpt lat="42.9708" lon="0.01229">
        <ele>1720.9</ele>
        <time>2013-11-29T11:22:26.129Z</time>
      </trkpt>
      <trkpt lat="42.97084" lon="0.01226">
        <ele>1720.5</ele>
        <time>2013-11-29T11:22:27.130Z</time>
      </trkpt>
      <trkpt lat="42.97089" lon="0.01223">
        <ele>1719.6</ele>
        <time>2013-11-29T11:22:28.129Z</time>
      </trkpt>
      <trkpt lat="42.97093" lon="0.0122">
        <ele>1719.1</ele>
        <time>2013-11-29T11:22:29.129Z</time>
      </trkpt>
      <trkpt lat="42.97101" lon="0.01217">
        <ele>1717.7</ele>
        <time>2013-11-29T11:22:31.132Z</time>
      </trkpt>
      <trkpt lat="42.97104" lon="0.01214">
        <ele>1717.3</ele>
        <time>2013-11-29T11:22:32.129Z</time>
      </trkpt>
      <trkpt lat="42.97111" lon="0.01213">
        <ele>1716.3</ele>
        <time>2013-11-29T11:22:34.129Z</time>
      </trkpt>
      <trkpt lat="42.97115" lon="0.01213">
        <ele>1715.4</ele>
        <time>2013-11-29T11:22:35.129Z</time>
      </trkpt>
      <trkpt lat="42.9712" lon="0.01212">
        <ele>1714.9</ele>
        <time>2013-11-29T11:22:36.129Z</time>
      </trkpt>
      <trkpt lat="42.97125" lon="0.01211">
        <ele>1714.4</ele>
        <time>2013-11-29T11:22:37.133Z</time>
      </trkpt>
      <trkpt lat="42.97131" lon="0.0121">
        <ele>1712.2</ele>
        <time>2013-11-29T11:22:38.130Z</time>
      </trkpt>
      <trkpt lat="42.97137" lon="0.01207">
        <ele>1711.3</ele>
        <time>2013-11-29T11:22:39.130Z</time>
      </trkpt>
      <trkpt lat="42.97142" lon="0.01203">
        <ele>1708.6</ele>
        <time>2013-11-29T11:22:40.129Z</time>
      </trkpt>
      <trkpt lat="42.97146" lon="0.01198">
        <ele>1708</ele>
        <time>2013-11-29T11:22:41.130Z</time>
      </trkpt>
      <trkpt lat="42.97151" lon="0.01193">
        <ele>1707.4</ele>
        <time>2013-11-29T11:22:42.163Z</time>
      </trkpt>
      <trkpt lat="42.97156" lon="0.01191">
        <ele>1706.7</ele>
        <time>2013-11-29T11:22:43.133Z</time>
      </trkpt>
      <trkpt lat="42.97161" lon="0.01189">
        <ele>1706</ele>
        <time>2013-11-29T11:22:44.129Z</time>
      </trkpt>
      <trkpt lat="42.97166" lon="0.01189">
        <ele>1705.1</ele>
        <time>2013-11-29T11:22:45.130Z</time>
      </trkpt>
      <trkpt lat="42.97173" lon="0.0119">
        <ele>1704.5</ele>
        <time>2013-11-29T11:22:46.129Z</time>
      </trkpt>
      <trkpt lat="42.97178" lon="0.01192">
        <ele>1703.5</ele>
        <time>2013-11-29T11:22:47.163Z</time>
      </trkpt>
      <trkpt lat="42.97184" lon="0.01199">
        <ele>1701.2</ele>
        <time>2013-11-29T11:22:57.130Z</time>
      </trkpt>
      <trkpt lat="42.97184" lon="0.01198">
        <ele>1701.2</ele>
        <time>2013-11-29T11:22:58.167Z</time>
      </trkpt>
      <trkpt lat="42.97184" lon="0.01198">
        <ele>1701.2</ele>
        <time>2013-11-29T11:23:01.132Z</time>
      </trkpt>
      <trkpt lat="42.97186" lon="0.01198">
        <ele>1700.6</ele>
        <time>2013-11-29T11:23:02.130Z</time>
      </trkpt>
      <trkpt lat="42.97193" lon="0.01202">
        <ele>1699.1</ele>
        <time>2013-11-29T11:23:04.128Z</time>
      </trkpt>
      <trkpt lat="42.97197" lon="0.01206">
        <ele>1697.6</ele>
        <time>2013-11-29T11:23:05.128Z</time>
      </trkpt>
      <trkpt lat="42.972" lon="0.01211">
        <ele>1696.5</ele>
        <time>2013-11-29T11:23:06.128Z</time>
      </trkpt>
      <trkpt lat="42.97204" lon="0.01216">
        <ele>1695</ele>
        <time>2013-11-29T11:23:07.137Z</time>
      </trkpt>
      <trkpt lat="42.97208" lon="0.01222">
        <ele>1693</ele>
        <time>2013-11-29T11:23:08.128Z</time>
      </trkpt>
      <trkpt lat="42.97211" lon="0.01226">
        <ele>1692.2</ele>
        <time>2013-11-29T11:23:09.129Z</time>
      </trkpt>
      <trkpt lat="42.97219" lon="0.0123">
        <ele>1691.1</ele>
        <time>2013-11-29T11:23:11.128Z</time>
      </trkpt>
      <trkpt lat="42.97223" lon="0.01231">
        <ele>1690.5</ele>
        <time>2013-11-29T11:23:12.184Z</time>
      </trkpt>
      <trkpt lat="42.97229" lon="0.01229">
        <ele>1689.6</ele>
        <time>2013-11-29T11:23:14.130Z</time>
      </trkpt>
      <trkpt lat="42.97233" lon="0.01228">
        <ele>1689</ele>
        <time>2013-11-29T11:23:15.129Z</time>
      </trkpt>
      <trkpt lat="42.97241" lon="0.01224">
        <ele>1687.9</ele>
        <time>2013-11-29T11:23:17.128Z</time>
      </trkpt>
      <trkpt lat="42.97245" lon="0.01222">
        <ele>1686.1</ele>
        <time>2013-11-29T11:23:18.128Z</time>
      </trkpt>
      <trkpt lat="42.97248" lon="0.01219">
        <ele>1685.5</ele>
        <time>2013-11-29T11:23:19.132Z</time>
      </trkpt>
      <trkpt lat="42.97253" lon="0.01215">
        <ele>1684.8</ele>
        <time>2013-11-29T11:23:20.128Z</time>
      </trkpt>
      <trkpt lat="42.97258" lon="0.01212">
        <ele>1683.3</ele>
        <time>2013-11-29T11:23:21.130Z</time>
      </trkpt>
      <trkpt lat="42.97262" lon="0.01208">
        <ele>1682.3</ele>
        <time>2013-11-29T11:23:22.128Z</time>
      </trkpt>
      <trkpt lat="42.97267" lon="0.01203">
        <ele>1681.8</ele>
        <time>2013-11-29T11:23:23.128Z</time>
      </trkpt>
      <trkpt lat="42.97273" lon="0.01198">
        <ele>1680.2</ele>
        <time>2013-11-29T11:23:24.128Z</time>
      </trkpt>
      <trkpt lat="42.97279" lon="0.01194">
        <ele>1678.4</ele>
        <time>2013-11-29T11:23:25.132Z</time>
      </trkpt>
      <trkpt lat="42.97284" lon="0.01188">
        <ele>1676.5</ele>
        <time>2013-11-29T11:23:26.129Z</time>
      </trkpt>
      <trkpt lat="42.97287" lon="0.01182">
        <ele>1674.7</ele>
        <time>2013-11-29T11:23:27.129Z</time>
      </trkpt>
      <trkpt lat="42.9729" lon="0.01175">
        <ele>1672.5</ele>
        <time>2013-11-29T11:23:28.129Z</time>
      </trkpt>
      <trkpt lat="42.97294" lon="0.01165">
        <ele>1670.9</ele>
        <time>2013-11-29T11:23:30.129Z</time>
      </trkpt>
      <trkpt lat="42.97295" lon="0.01162">
        <ele>1670.4</ele>
        <time>2013-11-29T11:23:31.132Z</time>
      </trkpt>
      <trkpt lat="42.97293" lon="0.0117">
        <ele>1665.5</ele>
        <time>2013-11-29T11:23:42.167Z</time>
      </trkpt>
      <trkpt lat="42.97293" lon="0.0117">
        <ele>1665.5</ele>
        <time>2013-11-29T11:23:43.132Z</time>
      </trkpt>
      <trkpt lat="42.97294" lon="0.0117">
        <ele>1665.1</ele>
        <time>2013-11-29T11:24:27.130Z</time>
      </trkpt>
      <trkpt lat="42.97295" lon="0.0117">
        <ele>1663.4</ele>
        <time>2013-11-29T11:24:28.129Z</time>
      </trkpt>
      <trkpt lat="42.973" lon="0.01167">
        <ele>1660.6</ele>
        <time>2013-11-29T11:24:31.131Z</time>
      </trkpt>
      <trkpt lat="42.97304" lon="0.01168">
        <ele>1659.5</ele>
        <time>2013-11-29T11:24:32.128Z</time>
      </trkpt>
      <trkpt lat="42.97308" lon="0.01169">
        <ele>1657.4</ele>
        <time>2013-11-29T11:24:33.129Z</time>
      </trkpt>
      <trkpt lat="42.97313" lon="0.0117">
        <ele>1655.5</ele>
        <time>2013-11-29T11:24:34.128Z</time>
      </trkpt>
      <trkpt lat="42.97321" lon="0.01168">
        <ele>1651.5</ele>
        <time>2013-11-29T11:24:36.128Z</time>
      </trkpt>
      <trkpt lat="42.97326" lon="0.01164">
        <ele>1650.3</ele>
        <time>2013-11-29T11:24:37.131Z</time>
      </trkpt>
      <trkpt lat="42.97331" lon="0.0116">
        <ele>1649.5</ele>
        <time>2013-11-29T11:24:38.128Z</time>
      </trkpt>
      <trkpt lat="42.97336" lon="0.01155">
        <ele>1647.9</ele>
        <time>2013-11-29T11:24:39.187Z</time>
      </trkpt>
      <trkpt lat="42.97342" lon="0.0115">
        <ele>1646.3</ele>
        <time>2013-11-29T11:24:40.128Z</time>
      </trkpt>
      <trkpt lat="42.97347" lon="0.01144">
        <ele>1643.7</ele>
        <time>2013-11-29T11:24:41.129Z</time>
      </trkpt>
      <trkpt lat="42.97352" lon="0.01136">
        <ele>1637.3</ele>
        <time>2013-11-29T11:24:42.167Z</time>
      </trkpt>
      <trkpt lat="42.97356" lon="0.01129">
        <ele>1634</ele>
        <time>2013-11-29T11:24:43.131Z</time>
      </trkpt>
      <trkpt lat="42.9736" lon="0.01122">
        <ele>1630.6</ele>
        <time>2013-11-29T11:24:44.128Z</time>
      </trkpt>
      <trkpt lat="42.97365" lon="0.01115">
        <ele>1625.5</ele>
        <time>2013-11-29T11:24:45.129Z</time>
      </trkpt>
      <trkpt lat="42.97368" lon="0.0111">
        <ele>1621.4</ele>
        <time>2013-11-29T11:24:46.128Z</time>
      </trkpt>
      <trkpt lat="42.97371" lon="0.01104">
        <ele>1617.5</ele>
        <time>2013-11-29T11:24:47.128Z</time>
      </trkpt>
      <trkpt lat="42.9737" lon="0.01101">
        <ele>1608.2</ele>
        <time>2013-11-29T11:24:54.127Z</time>
      </trkpt>
      <trkpt lat="42.9737" lon="0.01102">
        <ele>1608.2</ele>
        <time>2013-11-29T11:24:55.131Z</time>
      </trkpt>
      <trkpt lat="42.9737" lon="0.01102">
        <ele>1608.2</ele>
        <time>2013-11-29T11:24:56.127Z</time>
      </trkpt>
      <trkpt lat="42.97369" lon="0.01103">
        <ele>1608.2</ele>
        <time>2013-11-29T11:24:57.129Z</time>
      </trkpt>
      <trkpt lat="42.97369" lon="0.01103">
        <ele>1608.2</ele>
        <time>2013-11-29T11:24:58.127Z</time>
      </trkpt>
      <trkpt lat="42.97369" lon="0.01103">
        <ele>1608.2</ele>
        <time>2013-11-29T11:24:59.127Z</time>
      </trkpt>
      <trkpt lat="42.97369" lon="0.01103">
        <ele>1607.1</ele>
        <time>2013-11-29T11:25:11.127Z</time>
      </trkpt>
      <trkpt lat="42.97369" lon="0.01104">
        <ele>1605.1</ele>
        <time>2013-11-29T11:25:12.127Z</time>
      </trkpt>
      <trkpt lat="42.97363" lon="0.01108">
        <ele>1603</ele>
        <time>2013-11-29T11:25:14.127Z</time>
      </trkpt>
      <trkpt lat="42.97361" lon="0.01111">
        <ele>1602.2</ele>
        <time>2013-11-29T11:25:15.129Z</time>
      </trkpt>
      <trkpt lat="42.97356" lon="0.0112">
        <ele>1598.9</ele>
        <time>2013-11-29T11:25:18.128Z</time>
      </trkpt>
      <trkpt lat="42.97355" lon="0.01123">
        <ele>1596.5</ele>
        <time>2013-11-29T11:25:19.130Z</time>
      </trkpt>
      <trkpt lat="42.97355" lon="0.01134">
        <ele>1593.3</ele>
        <time>2013-11-29T11:25:21.129Z</time>
      </trkpt>
      <trkpt lat="42.97356" lon="0.01139">
        <ele>1592.9</ele>
        <time>2013-11-29T11:25:22.127Z</time>
      </trkpt>
      <trkpt lat="42.97361" lon="0.01145">
        <ele>1592.1</ele>
        <time>2013-11-29T11:25:24.127Z</time>
      </trkpt>
      <trkpt lat="42.97364" lon="0.01148">
        <ele>1591.7</ele>
        <time>2013-11-29T11:25:25.131Z</time>
      </trkpt>
      <trkpt lat="42.97371" lon="0.01147">
        <ele>1591</ele>
        <time>2013-11-29T11:25:27.128Z</time>
      </trkpt>
      <trkpt lat="42.97375" lon="0.01146">
        <ele>1590.7</ele>
        <time>2013-11-29T11:25:28.127Z</time>
      </trkpt>
      <trkpt lat="42.97383" lon="0.01147">
        <ele>1589.9</ele>
        <time>2013-11-29T11:25:30.128Z</time>
      </trkpt>
      <trkpt lat="42.97387" lon="0.01149">
        <ele>1588.9</ele>
        <time>2013-11-29T11:25:31.130Z</time>
      </trkpt>
      <trkpt lat="42.97392" lon="0.01153">
        <ele>1588.5</ele>
        <time>2013-11-29T11:25:32.127Z</time>
      </trkpt>
      <trkpt lat="42.97396" lon="0.01158">
        <ele>1588.1</ele>
        <time>2013-11-29T11:25:33.128Z</time>
      </trkpt>
      <trkpt lat="42.97399" lon="0.01162">
        <ele>1587</ele>
        <time>2013-11-29T11:25:34.127Z</time>
      </trkpt>
      <trkpt lat="42.97404" lon="0.01167">
        <ele>1585.2</ele>
        <time>2013-11-29T11:25:35.177Z</time>
      </trkpt>
      <trkpt lat="42.97409" lon="0.01174">
        <ele>1580.5</ele>
        <time>2013-11-29T11:25:43.130Z</time>
      </trkpt>
      <trkpt lat="42.97409" lon="0.01173">
        <ele>1580.5</ele>
        <time>2013-11-29T11:25:44.127Z</time>
      </trkpt>
      <trkpt lat="42.97409" lon="0.01172">
        <ele>1580.1</ele>
        <time>2013-11-29T11:26:26.126Z</time>
      </trkpt>
      <trkpt lat="42.97409" lon="0.01172">
        <ele>1580.1</ele>
        <time>2013-11-29T11:26:27.128Z</time>
      </trkpt>
      <trkpt lat="42.97412" lon="0.01164">
        <ele>1578.8</ele>
        <time>2013-11-29T11:26:30.127Z</time>
      </trkpt>
      <trkpt lat="42.97415" lon="0.01159">
        <ele>1578.9</ele>
        <time>2013-11-29T11:26:31.130Z</time>
      </trkpt>
      <trkpt lat="42.97419" lon="0.01155">
        <ele>1578.6</ele>
        <time>2013-11-29T11:26:32.157Z</time>
      </trkpt>
      <trkpt lat="42.97422" lon="0.0115">
        <ele>1578.6</ele>
        <time>2013-11-29T11:26:33.197Z</time>
      </trkpt>
      <trkpt lat="42.97428" lon="0.01148">
        <ele>1579.1</ele>
        <time>2013-11-29T11:26:34.177Z</time>
      </trkpt>
      <trkpt lat="42.97432" lon="0.01147">
        <ele>1579.2</ele>
        <time>2013-11-29T11:26:35.138Z</time>
      </trkpt>
      <trkpt lat="42.9744" lon="0.01148">
        <ele>1578.8</ele>
        <time>2013-11-29T11:26:37.130Z</time>
      </trkpt>
      <trkpt lat="42.97443" lon="0.0115">
        <ele>1578.6</ele>
        <time>2013-11-29T11:26:38.127Z</time>
      </trkpt>
      <trkpt lat="42.97448" lon="0.01153">
        <ele>1578.2</ele>
        <time>2013-11-29T11:26:40.127Z</time>
      </trkpt>
      <trkpt lat="42.97451" lon="0.01155">
        <ele>1577.8</ele>
        <time>2013-11-29T11:26:41.126Z</time>
      </trkpt>
      <trkpt lat="42.97458" lon="0.01157">
        <ele>1575.4</ele>
        <time>2013-11-29T11:26:52.127Z</time>
      </trkpt>
      <trkpt lat="42.97461" lon="0.01159">
        <ele>1575.2</ele>
        <time>2013-11-29T11:26:53.127Z</time>
      </trkpt>
      <trkpt lat="42.97468" lon="0.0116">
        <ele>1574.8</ele>
        <time>2013-11-29T11:26:55.130Z</time>
      </trkpt>
      <trkpt lat="42.97473" lon="0.01159">
        <ele>1574.7</ele>
        <time>2013-11-29T11:26:56.126Z</time>
      </trkpt>
      <trkpt lat="42.97478" lon="0.01158">
        <ele>1574.5</ele>
        <time>2013-11-29T11:26:57.128Z</time>
      </trkpt>
      <trkpt lat="42.97483" lon="0.01159">
        <ele>1574.3</ele>
        <time>2013-11-29T11:26:58.126Z</time>
      </trkpt>
      <trkpt lat="42.97492" lon="0.01161">
        <ele>1574.1</ele>
        <time>2013-11-29T11:27:00.126Z</time>
      </trkpt>
      <trkpt lat="42.97495" lon="0.01161">
        <ele>1574</ele>
        <time>2013-11-29T11:27:01.130Z</time>
      </trkpt>
      <trkpt lat="42.97495" lon="0.01162">
        <ele>1573.7</ele>
        <time>2013-11-29T11:27:08.127Z</time>
      </trkpt>
      <trkpt lat="42.97494" lon="0.01161">
        <ele>1573.7</ele>
        <time>2013-11-29T11:27:09.128Z</time>
      </trkpt>
      <trkpt lat="42.97494" lon="0.01162">
        <ele>1573.7</ele>
        <time>2013-11-29T11:27:38.126Z</time>
      </trkpt>
      <trkpt lat="42.97495" lon="0.01163">
        <ele>1572.6</ele>
        <time>2013-11-29T11:27:39.177Z</time>
      </trkpt>
      <trkpt lat="42.97501" lon="0.01171">
        <ele>1572.2</ele>
        <time>2013-11-29T11:27:42.127Z</time>
      </trkpt>
      <trkpt lat="42.97504" lon="0.01177">
        <ele>1570.3</ele>
        <time>2013-11-29T11:27:43.130Z</time>
      </trkpt>
      <trkpt lat="42.97506" lon="0.01185">
        <ele>1570.2</ele>
        <time>2013-11-29T11:27:44.126Z</time>
      </trkpt>
      <trkpt lat="42.97509" lon="0.01193">
        <ele>1570.1</ele>
        <time>2013-11-29T11:27:45.128Z</time>
      </trkpt>
      <trkpt lat="42.9751" lon="0.012">
        <ele>1569.3</ele>
        <time>2013-11-29T11:27:46.126Z</time>
      </trkpt>
      <trkpt lat="42.97511" lon="0.01207">
        <ele>1569</ele>
        <time>2013-11-29T11:27:47.126Z</time>
      </trkpt>
      <trkpt lat="42.97512" lon="0.01214">
        <ele>1568.7</ele>
        <time>2013-11-29T11:27:48.126Z</time>
      </trkpt>
      <trkpt lat="42.97513" lon="0.01221">
        <ele>1568.5</ele>
        <time>2013-11-29T11:27:49.130Z</time>
      </trkpt>
      <trkpt lat="42.97515" lon="0.01227">
        <ele>1568.3</ele>
        <time>2013-11-29T11:27:50.126Z</time>
      </trkpt>
      <trkpt lat="42.97519" lon="0.01232">
        <ele>1568.1</ele>
        <time>2013-11-29T11:27:51.128Z</time>
      </trkpt>
      <trkpt lat="42.97526" lon="0.01236">
        <ele>1567.3</ele>
        <time>2013-11-29T11:27:53.126Z</time>
      </trkpt>
      <trkpt lat="42.9753" lon="0.01236">
        <ele>1567.1</ele>
        <time>2013-11-29T11:27:54.126Z</time>
      </trkpt>
      <trkpt lat="42.97535" lon="0.01236">
        <ele>1566.3</ele>
        <time>2013-11-29T11:27:55.129Z</time>
      </trkpt>
      <trkpt lat="42.9754" lon="0.01236">
        <ele>1565.9</ele>
        <time>2013-11-29T11:27:56.126Z</time>
      </trkpt>
      <trkpt lat="42.97548" lon="0.01235">
        <ele>1565.1</ele>
        <time>2013-11-29T11:27:58.126Z</time>
      </trkpt>
      <trkpt lat="42.97551" lon="0.01234">
        <ele>1564.9</ele>
        <time>2013-11-29T11:27:59.127Z</time>
      </trkpt>
      <trkpt lat="42.97559" lon="0.0123">
        <ele>1564</ele>
        <time>2013-11-29T11:28:02.129Z</time>
      </trkpt>
      <trkpt lat="42.97561" lon="0.01228">
        <ele>1563.6</ele>
        <time>2013-11-29T11:28:03.128Z</time>
      </trkpt>
      <trkpt lat="42.97564" lon="0.0122">
        <ele>1563</ele>
        <time>2013-11-29T11:28:05.126Z</time>
      </trkpt>
      <trkpt lat="42.97565" lon="0.01215">
        <ele>1562.7</ele>
        <time>2013-11-29T11:28:06.126Z</time>
      </trkpt>
      <trkpt lat="42.97569" lon="0.01205">
        <ele>1562</ele>
        <time>2013-11-29T11:28:09.127Z</time>
      </trkpt>
      <trkpt lat="42.97571" lon="0.01205">
        <ele>1561.9</ele>
        <time>2013-11-29T11:28:10.126Z</time>
      </trkpt>
      <trkpt lat="42.9758" lon="0.01206">
        <ele>1561.2</ele>
        <time>2013-11-29T11:28:14.126Z</time>
      </trkpt>
      <trkpt lat="42.9758" lon="0.01206">
        <ele>1561.1</ele>
        <time>2013-11-29T11:28:15.127Z</time>
      </trkpt>
      <trkpt lat="42.9758" lon="0.01209">
        <ele>1560.8</ele>
        <time>2013-11-29T11:28:21.128Z</time>
      </trkpt>
      <trkpt lat="42.9758" lon="0.01209">
        <ele>1560.8</ele>
        <time>2013-11-29T11:28:22.159Z</time>
      </trkpt>
      <trkpt lat="42.97579" lon="0.01208">
        <ele>1560.2</ele>
        <time>2013-11-29T11:29:07.130Z</time>
      </trkpt>
      <trkpt lat="42.9758" lon="0.01209">
        <ele>1559.9</ele>
        <time>2013-11-29T11:29:08.126Z</time>
      </trkpt>
      <trkpt lat="42.97587" lon="0.01214">
        <ele>1559</ele>
        <time>2013-11-29T11:29:13.129Z</time>
      </trkpt>
      <trkpt lat="42.9759" lon="0.01214">
        <ele>1558.7</ele>
        <time>2013-11-29T11:29:14.126Z</time>
      </trkpt>
      <trkpt lat="42.97596" lon="0.01212">
        <ele>1557.7</ele>
        <time>2013-11-29T11:29:16.126Z</time>
      </trkpt>
      <trkpt lat="42.97599" lon="0.01212">
        <ele>1557</ele>
        <time>2013-11-29T11:29:17.126Z</time>
      </trkpt>
      <trkpt lat="42.97604" lon="0.01211">
        <ele>1556.4</ele>
        <time>2013-11-29T11:29:18.126Z</time>
      </trkpt>
      <trkpt lat="42.97609" lon="0.01209">
        <ele>1555.7</ele>
        <time>2013-11-29T11:29:19.129Z</time>
      </trkpt>
      <trkpt lat="42.97614" lon="0.01207">
        <ele>1555.1</ele>
        <time>2013-11-29T11:29:20.126Z</time>
      </trkpt>
      <trkpt lat="42.9762" lon="0.01206">
        <ele>1554.5</ele>
        <time>2013-11-29T11:29:21.128Z</time>
      </trkpt>
      <trkpt lat="42.97625" lon="0.01204">
        <ele>1554.3</ele>
        <time>2013-11-29T11:29:22.126Z</time>
      </trkpt>
      <trkpt lat="42.97631" lon="0.01202">
        <ele>1554</ele>
        <time>2013-11-29T11:29:23.126Z</time>
      </trkpt>
      <trkpt lat="42.97636" lon="0.012">
        <ele>1553.5</ele>
        <time>2013-11-29T11:29:24.126Z</time>
      </trkpt>
      <trkpt lat="42.97641" lon="0.01201">
        <ele>1552.8</ele>
        <time>2013-11-29T11:29:25.129Z</time>
      </trkpt>
      <trkpt lat="42.97646" lon="0.01204">
        <ele>1552.3</ele>
        <time>2013-11-29T11:29:26.125Z</time>
      </trkpt>
      <trkpt lat="42.97652" lon="0.01205">
        <ele>1552</ele>
        <time>2013-11-29T11:29:27.127Z</time>
      </trkpt>
      <trkpt lat="42.97658" lon="0.01206">
        <ele>1551.2</ele>
        <time>2013-11-29T11:29:28.126Z</time>
      </trkpt>
      <trkpt lat="42.97663" lon="0.01208">
        <ele>1550.7</ele>
        <time>2013-11-29T11:29:29.126Z</time>
      </trkpt>
      <trkpt lat="42.9767" lon="0.0121">
        <ele>1549.9</ele>
        <time>2013-11-29T11:29:30.180Z</time>
      </trkpt>
      <trkpt lat="42.97677" lon="0.0121">
        <ele>1549.1</ele>
        <time>2013-11-29T11:29:31.129Z</time>
      </trkpt>
      <trkpt lat="42.97683" lon="0.0121">
        <ele>1548.5</ele>
        <time>2013-11-29T11:29:32.126Z</time>
      </trkpt>
      <trkpt lat="42.97688" lon="0.0121">
        <ele>1548.1</ele>
        <time>2013-11-29T11:29:33.128Z</time>
      </trkpt>
      <trkpt lat="42.97693" lon="0.01212">
        <ele>1547.4</ele>
        <time>2013-11-29T11:29:34.126Z</time>
      </trkpt>
      <trkpt lat="42.97698" lon="0.01213">
        <ele>1546.7</ele>
        <time>2013-11-29T11:29:35.126Z</time>
      </trkpt>
      <trkpt lat="42.97706" lon="0.01212">
        <ele>1545.7</ele>
        <time>2013-11-29T11:29:37.129Z</time>
      </trkpt>
      <trkpt lat="42.9771" lon="0.01214">
        <ele>1544.4</ele>
        <time>2013-11-29T11:29:38.127Z</time>
      </trkpt>
      <trkpt lat="42.97716" lon="0.01221">
        <ele>1542.3</ele>
        <time>2013-11-29T11:29:40.126Z</time>
      </trkpt>
      <trkpt lat="42.97719" lon="0.01225">
        <ele>1541.7</ele>
        <time>2013-11-29T11:29:41.126Z</time>
      </trkpt>
      <trkpt lat="42.97726" lon="0.01231">
        <ele>1540.6</ele>
        <time>2013-11-29T11:29:43.130Z</time>
      </trkpt>
      <trkpt lat="42.97729" lon="0.01234">
        <ele>1540.1</ele>
        <time>2013-11-29T11:29:44.126Z</time>
      </trkpt>
      <trkpt lat="42.97738" lon="0.01235">
        <ele>1539.4</ele>
        <time>2013-11-29T11:29:46.126Z</time>
      </trkpt>
      <trkpt lat="42.97742" lon="0.01234">
        <ele>1539.1</ele>
        <time>2013-11-29T11:29:47.126Z</time>
      </trkpt>
      <trkpt lat="42.97749" lon="0.01229">
        <ele>1538.1</ele>
        <time>2013-11-29T11:29:49.129Z</time>
      </trkpt>
      <trkpt lat="42.9775" lon="0.01227">
        <ele>1537.1</ele>
        <time>2013-11-29T11:29:50.125Z</time>
      </trkpt>
      <trkpt lat="42.9775" lon="0.01224">
        <ele>1535</ele>
        <time>2013-11-29T11:29:57.127Z</time>
      </trkpt>
      <trkpt lat="42.97749" lon="0.01224">
        <ele>1535</ele>
        <time>2013-11-29T11:29:58.126Z</time>
      </trkpt>
      <trkpt lat="42.97748" lon="0.01225">
        <ele>1534.7</ele>
        <time>2013-11-29T11:30:11.126Z</time>
      </trkpt>
      <trkpt lat="42.97748" lon="0.01226">
        <ele>1533.3</ele>
        <time>2013-11-29T11:30:12.126Z</time>
      </trkpt>
      <trkpt lat="42.97749" lon="0.01234">
        <ele>1532.1</ele>
        <time>2013-11-29T11:30:14.126Z</time>
      </trkpt>
      <trkpt lat="42.9775" lon="0.0124">
        <ele>1530.2</ele>
        <time>2013-11-29T11:30:15.127Z</time>
      </trkpt>
      <trkpt lat="42.97751" lon="0.01247">
        <ele>1529.5</ele>
        <time>2013-11-29T11:30:16.126Z</time>
      </trkpt>
      <trkpt lat="42.97752" lon="0.01254">
        <ele>1528.6</ele>
        <time>2013-11-29T11:30:17.126Z</time>
      </trkpt>
      <trkpt lat="42.97754" lon="0.01261">
        <ele>1527.6</ele>
        <time>2013-11-29T11:30:18.126Z</time>
      </trkpt>
      <trkpt lat="42.97756" lon="0.01268">
        <ele>1527.2</ele>
        <time>2013-11-29T11:30:19.129Z</time>
      </trkpt>
      <trkpt lat="42.97758" lon="0.01274">
        <ele>1526.2</ele>
        <time>2013-11-29T11:30:20.126Z</time>
      </trkpt>
      <trkpt lat="42.9776" lon="0.0128">
        <ele>1524.5</ele>
        <time>2013-11-29T11:30:21.127Z</time>
      </trkpt>
      <trkpt lat="42.97763" lon="0.01285">
        <ele>1523.4</ele>
        <time>2013-11-29T11:30:22.126Z</time>
      </trkpt>
      <trkpt lat="42.97766" lon="0.01289">
        <ele>1522.3</ele>
        <time>2013-11-29T11:30:23.125Z</time>
      </trkpt>
      <trkpt lat="42.9777" lon="0.01294">
        <ele>1521.6</ele>
        <time>2013-11-29T11:30:24.126Z</time>
      </trkpt>
      <trkpt lat="42.97774" lon="0.01299">
        <ele>1520.7</ele>
        <time>2013-11-29T11:30:25.129Z</time>
      </trkpt>
      <trkpt lat="42.97779" lon="0.01303">
        <ele>1519.6</ele>
        <time>2013-11-29T11:30:26.125Z</time>
      </trkpt>
      <trkpt lat="42.97785" lon="0.01308">
        <ele>1518.4</ele>
        <time>2013-11-29T11:30:27.127Z</time>
      </trkpt>
      <trkpt lat="42.9779" lon="0.01311">
        <ele>1517.8</ele>
        <time>2013-11-29T11:30:28.125Z</time>
      </trkpt>
      <trkpt lat="42.97796" lon="0.01313">
        <ele>1517.2</ele>
        <time>2013-11-29T11:30:29.126Z</time>
      </trkpt>
      <trkpt lat="42.97801" lon="0.01315">
        <ele>1516.5</ele>
        <time>2013-11-29T11:30:30.126Z</time>
      </trkpt>
      <trkpt lat="42.97805" lon="0.01317">
        <ele>1515.5</ele>
        <time>2013-11-29T11:30:31.129Z</time>
      </trkpt>
      <trkpt lat="42.97809" lon="0.01322">
        <ele>1505.6</ele>
        <time>2013-11-29T11:30:41.125Z</time>
      </trkpt>
      <trkpt lat="42.97808" lon="0.01322">
        <ele>1505.6</ele>
        <time>2013-11-29T11:30:42.131Z</time>
      </trkpt>
      <trkpt lat="42.97808" lon="0.01321">
        <ele>1505.3</ele>
        <time>2013-11-29T11:31:18.126Z</time>
      </trkpt>
      <trkpt lat="42.97809" lon="0.01322">
        <ele>1504.7</ele>
        <time>2013-11-29T11:31:19.129Z</time>
      </trkpt>
      <trkpt lat="42.97816" lon="0.01316">
        <ele>1502.3</ele>
        <time>2013-11-29T11:31:26.126Z</time>
      </trkpt>
      <trkpt lat="42.97819" lon="0.01313">
        <ele>1500.5</ele>
        <time>2013-11-29T11:31:27.127Z</time>
      </trkpt>
      <trkpt lat="42.97827" lon="0.01313">
        <ele>1499.4</ele>
        <time>2013-11-29T11:31:30.126Z</time>
      </trkpt>
      <trkpt lat="42.9783" lon="0.01314">
        <ele>1499.2</ele>
        <time>2013-11-29T11:31:31.130Z</time>
      </trkpt>
      <trkpt lat="42.97838" lon="0.01311">
        <ele>1498.5</ele>
        <time>2013-11-29T11:31:35.126Z</time>
      </trkpt>
      <trkpt lat="42.9784" lon="0.0131">
        <ele>1498.4</ele>
        <time>2013-11-29T11:31:36.126Z</time>
      </trkpt>
      <trkpt lat="42.97844" lon="0.01312">
        <ele>1497.7</ele>
        <time>2013-11-29T11:31:47.167Z</time>
      </trkpt>
      <trkpt lat="42.97844" lon="0.01312">
        <ele>1497.7</ele>
        <time>2013-11-29T11:31:48.126Z</time>
      </trkpt>
      <trkpt lat="42.97844" lon="0.01312">
        <ele>1497.7</ele>
        <time>2013-11-29T11:31:52.144Z</time>
      </trkpt>
      <trkpt lat="42.97846" lon="0.01311">
        <ele>1497.1</ele>
        <time>2013-11-29T11:31:53.126Z</time>
      </trkpt>
      <trkpt lat="42.97854" lon="0.01309">
        <ele>1496.4</ele>
        <time>2013-11-29T11:31:58.126Z</time>
      </trkpt>
      <trkpt lat="42.97855" lon="0.01308">
        <ele>1496.4</ele>
        <time>2013-11-29T11:31:59.166Z</time>
      </trkpt>
      <trkpt lat="42.97855" lon="0.01308">
        <ele>1496.4</ele>
        <time>2013-11-29T11:32:04.126Z</time>
      </trkpt>
      <trkpt lat="42.97855" lon="0.01308">
        <ele>1496.4</ele>
        <time>2013-11-29T11:32:05.126Z</time>
      </trkpt>
      <trkpt lat="42.97854" lon="0.01308">
        <ele>1496.4</ele>
        <time>2013-11-29T11:32:06.126Z</time>
      </trkpt>
      <trkpt lat="42.97857" lon="0.01309">
        <ele>1495.9</ele>
        <time>2013-11-29T11:32:07.129Z</time>
      </trkpt>
      <trkpt lat="42.97866" lon="0.0131">
        <ele>1495.1</ele>
        <time>2013-11-29T11:32:10.126Z</time>
      </trkpt>
      <trkpt lat="42.97868" lon="0.0131">
        <ele>1495.1</ele>
        <time>2013-11-29T11:32:11.126Z</time>
      </trkpt>
      <trkpt lat="42.97876" lon="0.01309">
        <ele>1494.7</ele>
        <time>2013-11-29T11:32:20.126Z</time>
      </trkpt>
      <trkpt lat="42.9788" lon="0.01309">
        <ele>1494.5</ele>
        <time>2013-11-29T11:32:21.127Z</time>
      </trkpt>
      <trkpt lat="42.97887" lon="0.01312">
        <ele>1494</ele>
        <time>2013-11-29T11:32:23.167Z</time>
      </trkpt>
      <trkpt lat="42.9789" lon="0.01314">
        <ele>1494</ele>
        <time>2013-11-29T11:32:24.179Z</time>
      </trkpt>
      <trkpt lat="42.97899" lon="0.01316">
        <ele>1493.8</ele>
        <time>2013-11-29T11:32:28.126Z</time>
      </trkpt>
      <trkpt lat="42.97901" lon="0.01316">
        <ele>1493.7</ele>
        <time>2013-11-29T11:32:29.126Z</time>
      </trkpt>
      <trkpt lat="42.97908" lon="0.01317">
        <ele>1493.3</ele>
        <time>2013-11-29T11:32:32.126Z</time>
      </trkpt>
      <trkpt lat="42.97911" lon="0.01319">
        <ele>1493.1</ele>
        <time>2013-11-29T11:32:33.127Z</time>
      </trkpt>
      <trkpt lat="42.97918" lon="0.01324">
        <ele>1492.2</ele>
        <time>2013-11-29T11:32:36.126Z</time>
      </trkpt>
      <trkpt lat="42.9792" lon="0.01326">
        <ele>1491.9</ele>
        <time>2013-11-29T11:32:37.128Z</time>
      </trkpt>
      <trkpt lat="42.97923" lon="0.01335">
        <ele>1488.4</ele>
        <time>2013-11-29T11:32:40.126Z</time>
      </trkpt>
      <trkpt lat="42.97925" lon="0.01337">
        <ele>1488.3</ele>
        <time>2013-11-29T11:32:41.126Z</time>
      </trkpt>
      <trkpt lat="42.97933" lon="0.01337">
        <ele>1487.6</ele>
        <time>2013-11-29T11:32:44.126Z</time>
      </trkpt>
      <trkpt lat="42.97936" lon="0.01336">
        <ele>1487.2</ele>
        <time>2013-11-29T11:32:45.127Z</time>
      </trkpt>
      <trkpt lat="42.97939" lon="0.01346">
        <ele>1482.3</ele>
        <time>2013-11-29T11:32:50.126Z</time>
      </trkpt>
      <trkpt lat="42.97939" lon="0.01349">
        <ele>1482</ele>
        <time>2013-11-29T11:32:51.127Z</time>
      </trkpt>
      <trkpt lat="42.97939" lon="0.01353">
        <ele>1481.4</ele>
        <time>2013-11-29T11:32:59.126Z</time>
      </trkpt>
      <trkpt lat="42.97939" lon="0.01353">
        <ele>1481.4</ele>
        <time>2013-11-29T11:33:00.126Z</time>
      </trkpt>
      <trkpt lat="42.97939" lon="0.01353">
        <ele>1481.3</ele>
        <time>2013-11-29T11:33:01.129Z</time>
      </trkpt>
      <trkpt lat="42.9794" lon="0.01353">
        <ele>1481.2</ele>
        <time>2013-11-29T11:33:02.128Z</time>
      </trkpt>
      <trkpt lat="42.97943" lon="0.01362">
        <ele>1479.8</ele>
        <time>2013-11-29T11:33:06.126Z</time>
      </trkpt>
      <trkpt lat="42.97943" lon="0.01366">
        <ele>1479.1</ele>
        <time>2013-11-29T11:33:07.129Z</time>
      </trkpt>
      <trkpt lat="42.97947" lon="0.01375">
        <ele>1477.6</ele>
        <time>2013-11-29T11:33:15.127Z</time>
      </trkpt>
      <trkpt lat="42.97948" lon="0.01377">
        <ele>1477.1</ele>
        <time>2013-11-29T11:33:16.126Z</time>
      </trkpt>
      <trkpt lat="42.97951" lon="0.01386">
        <ele>1475.7</ele>
        <time>2013-11-29T11:33:19.128Z</time>
      </trkpt>
      <trkpt lat="42.97951" lon="0.0139">
        <ele>1475.2</ele>
        <time>2013-11-29T11:33:20.126Z</time>
      </trkpt>
      <trkpt lat="42.97953" lon="0.01399">
        <ele>1472.4</ele>
        <time>2013-11-29T11:33:22.126Z</time>
      </trkpt>
      <trkpt lat="42.97957" lon="0.01401">
        <ele>1471.5</ele>
        <time>2013-11-29T11:33:23.126Z</time>
      </trkpt>
      <trkpt lat="42.97961" lon="0.01402">
        <ele>1470.8</ele>
        <time>2013-11-29T11:33:24.126Z</time>
      </trkpt>
      <trkpt lat="42.97966" lon="0.01402">
        <ele>1470.3</ele>
        <time>2013-11-29T11:33:25.128Z</time>
      </trkpt>
      <trkpt lat="42.97971" lon="0.01402">
        <ele>1468.9</ele>
        <time>2013-11-29T11:33:26.126Z</time>
      </trkpt>
      <trkpt lat="42.97976" lon="0.01403">
        <ele>1468.2</ele>
        <time>2013-11-29T11:33:27.127Z</time>
      </trkpt>
      <trkpt lat="42.97981" lon="0.01404">
        <ele>1468</ele>
        <time>2013-11-29T11:33:28.126Z</time>
      </trkpt>
      <trkpt lat="42.97985" lon="0.01406">
        <ele>1467.3</ele>
        <time>2013-11-29T11:33:29.125Z</time>
      </trkpt>
      <trkpt lat="42.97988" lon="0.01411">
        <ele>1465.1</ele>
        <time>2013-11-29T11:33:30.126Z</time>
      </trkpt>
      <trkpt lat="42.97991" lon="0.01417">
        <ele>1464.2</ele>
        <time>2013-11-29T11:33:31.128Z</time>
      </trkpt>
      <trkpt lat="42.97993" lon="0.01424">
        <ele>1463.5</ele>
        <time>2013-11-29T11:33:32.125Z</time>
      </trkpt>
      <trkpt lat="42.97993" lon="0.0143">
        <ele>1461.9</ele>
        <time>2013-11-29T11:33:33.127Z</time>
      </trkpt>
      <trkpt lat="42.97989" lon="0.01439">
        <ele>1451.3</ele>
        <time>2013-11-29T11:33:36.126Z</time>
      </trkpt>
      <trkpt lat="42.97987" lon="0.0144">
        <ele>1449.7</ele>
        <time>2013-11-29T11:33:37.129Z</time>
      </trkpt>
      <trkpt lat="42.97983" lon="0.01439">
        <ele>1448.2</ele>
        <time>2013-11-29T11:33:45.127Z</time>
      </trkpt>
      <trkpt lat="42.97983" lon="0.01438">
        <ele>1448.2</ele>
        <time>2013-11-29T11:33:46.125Z</time>
      </trkpt>
      <trkpt lat="42.97984" lon="0.01438">
        <ele>1447.7</ele>
        <time>2013-11-29T11:34:12.125Z</time>
      </trkpt>
      <trkpt lat="42.97984" lon="0.01439">
        <ele>1447.7</ele>
        <time>2013-11-29T11:34:13.128Z</time>
      </trkpt>
      <trkpt lat="42.97987" lon="0.01447">
        <ele>1437.4</ele>
        <time>2013-11-29T11:34:17.126Z</time>
      </trkpt>
      <trkpt lat="42.97989" lon="0.0145">
        <ele>1435.7</ele>
        <time>2013-11-29T11:34:18.125Z</time>
      </trkpt>
      <trkpt lat="42.97996" lon="0.01453">
        <ele>1433.9</ele>
        <time>2013-11-29T11:34:20.125Z</time>
      </trkpt>
      <trkpt lat="42.98001" lon="0.01455">
        <ele>1433.6</ele>
        <time>2013-11-29T11:34:21.127Z</time>
      </trkpt>
      <trkpt lat="42.98008" lon="0.0146">
        <ele>1427.6</ele>
        <time>2013-11-29T11:34:23.125Z</time>
      </trkpt>
      <trkpt lat="42.98012" lon="0.01462">
        <ele>1427.3</ele>
        <time>2013-11-29T11:34:24.125Z</time>
      </trkpt>
      <trkpt lat="42.98019" lon="0.01468">
        <ele>1422.7</ele>
        <time>2013-11-29T11:34:26.125Z</time>
      </trkpt>
      <trkpt lat="42.98022" lon="0.01471">
        <ele>1421.4</ele>
        <time>2013-11-29T11:34:27.127Z</time>
      </trkpt>
      <trkpt lat="42.98027" lon="0.0148">
        <ele>1419.2</ele>
        <time>2013-11-29T11:34:29.125Z</time>
      </trkpt>
      <trkpt lat="42.98026" lon="0.01488">
        <ele>1412</ele>
        <time>2013-11-29T11:34:30.125Z</time>
      </trkpt>
      <trkpt lat="42.98025" lon="0.01496">
        <ele>1409</ele>
        <time>2013-11-29T11:34:31.128Z</time>
      </trkpt>
      <trkpt lat="42.98025" lon="0.01504">
        <ele>1406.9</ele>
        <time>2013-11-29T11:34:32.125Z</time>
      </trkpt>
      <trkpt lat="42.98024" lon="0.01512">
        <ele>1404.6</ele>
        <time>2013-11-29T11:34:33.127Z</time>
      </trkpt>
      <trkpt lat="42.98022" lon="0.01522">
        <ele>1399</ele>
        <time>2013-11-29T11:34:34.125Z</time>
      </trkpt>
      <trkpt lat="42.98019" lon="0.01532">
        <ele>1396</ele>
        <time>2013-11-29T11:34:35.125Z</time>
      </trkpt>
      <trkpt lat="42.98016" lon="0.01543">
        <ele>1394.4</ele>
        <time>2013-11-29T11:34:36.125Z</time>
      </trkpt>
      <trkpt lat="42.98013" lon="0.01552">
        <ele>1393.3</ele>
        <time>2013-11-29T11:34:37.128Z</time>
      </trkpt>
      <trkpt lat="42.9801" lon="0.0156">
        <ele>1391.9</ele>
        <time>2013-11-29T11:34:38.125Z</time>
      </trkpt>
      <trkpt lat="42.98009" lon="0.01561">
        <ele>1380.5</ele>
        <time>2013-11-29T11:34:45.126Z</time>
      </trkpt>
      <trkpt lat="42.9801" lon="0.01559">
        <ele>1380.5</ele>
        <time>2013-11-29T11:34:46.125Z</time>
      </trkpt>
      <trkpt lat="42.9801" lon="0.01558">
        <ele>1380.5</ele>
        <time>2013-11-29T11:34:47.125Z</time>
      </trkpt>
      <trkpt lat="42.9801" lon="0.01557">
        <ele>1380.5</ele>
        <time>2013-11-29T11:34:48.125Z</time>
      </trkpt>
      <trkpt lat="42.98011" lon="0.01555">
        <ele>1380.5</ele>
        <time>2013-11-29T11:34:53.125Z</time>
      </trkpt>
      <trkpt lat="42.98011" lon="0.01555">
        <ele>1380.5</ele>
        <time>2013-11-29T11:34:54.125Z</time>
      </trkpt>
      <trkpt lat="42.98011" lon="0.01555">
        <ele>1379.3</ele>
        <time>2013-11-29T11:35:00.125Z</time>
      </trkpt>
      <trkpt lat="42.98012" lon="0.01555">
        <ele>1379.2</ele>
        <time>2013-11-29T11:35:01.128Z</time>
      </trkpt>
      <trkpt lat="42.98019" lon="0.01551">
        <ele>1376.5</ele>
        <time>2013-11-29T11:35:04.125Z</time>
      </trkpt>
      <trkpt lat="42.98024" lon="0.01551">
        <ele>1375.7</ele>
        <time>2013-11-29T11:35:05.125Z</time>
      </trkpt>
      <trkpt lat="42.98029" lon="0.01551">
        <ele>1375.2</ele>
        <time>2013-11-29T11:35:06.125Z</time>
      </trkpt>
      <trkpt lat="42.98034" lon="0.01551">
        <ele>1374.3</ele>
        <time>2013-11-29T11:35:07.128Z</time>
      </trkpt>
      <trkpt lat="42.98041" lon="0.01553">
        <ele>1371.7</ele>
        <time>2013-11-29T11:35:17.125Z</time>
      </trkpt>
      <trkpt lat="42.98043" lon="0.01555">
        <ele>1369.8</ele>
        <time>2013-11-29T11:35:18.125Z</time>
      </trkpt>
      <trkpt lat="42.98046" lon="0.01562">
        <ele>1366</ele>
        <time>2013-11-29T11:35:20.165Z</time>
      </trkpt>
      <trkpt lat="42.98048" lon="0.01567">
        <ele>1364.1</ele>
        <time>2013-11-29T11:35:21.126Z</time>
      </trkpt>
      <trkpt lat="42.9805" lon="0.01578">
        <ele>1359.9</ele>
        <time>2013-11-29T11:35:25.128Z</time>
      </trkpt>
      <trkpt lat="42.9805" lon="0.01579">
        <ele>1359.9</ele>
        <time>2013-11-29T11:35:26.125Z</time>
      </trkpt>
      <trkpt lat="42.9805" lon="0.01577">
        <ele>1359.9</ele>
        <time>2013-11-29T11:35:29.125Z</time>
      </trkpt>
      <trkpt lat="42.9805" lon="0.01577">
        <ele>1359.9</ele>
        <time>2013-11-29T11:35:30.125Z</time>
      </trkpt>
      <trkpt lat="42.98049" lon="0.01575">
        <ele>1359.9</ele>
        <time>2013-11-29T11:35:45.126Z</time>
      </trkpt>
      <trkpt lat="42.98049" lon="0.01578">
        <ele>1356.9</ele>
        <time>2013-11-29T11:35:46.125Z</time>
      </trkpt>
      <trkpt lat="42.98053" lon="0.01582">
        <ele>1354.2</ele>
        <time>2013-11-29T11:35:56.125Z</time>
      </trkpt>
      <trkpt lat="42.98052" lon="0.01582">
        <ele>1354.2</ele>
        <time>2013-11-29T11:35:57.126Z</time>
      </trkpt>
      <trkpt lat="42.98052" lon="0.01582">
        <ele>1354.2</ele>
        <time>2013-11-29T11:36:54.125Z</time>
      </trkpt>
      <trkpt lat="42.98055" lon="0.01583">
        <ele>1351.9</ele>
        <time>2013-11-29T11:36:55.127Z</time>
      </trkpt>
      <trkpt lat="42.98059" lon="0.01588">
        <ele>1345.5</ele>
        <time>2013-11-29T11:37:05.124Z</time>
      </trkpt>
      <trkpt lat="42.98059" lon="0.01588">
        <ele>1345.5</ele>
        <time>2013-11-29T11:37:06.124Z</time>
      </trkpt>
      <trkpt lat="42.98059" lon="0.01587">
        <ele>1345.5</ele>
        <time>2013-11-29T11:41:06.124Z</time>
      </trkpt>
      <trkpt lat="42.98061" lon="0.0159">
        <ele>1340.3</ele>
        <time>2013-11-29T11:41:07.127Z</time>
      </trkpt>
      <trkpt lat="42.98068" lon="0.01597">
        <ele>1340</ele>
        <time>2013-11-29T11:41:10.124Z</time>
      </trkpt>
      <trkpt lat="42.98069" lon="0.01599">
        <ele>1339.9</ele>
        <time>2013-11-29T11:41:11.124Z</time>
      </trkpt>
      <trkpt lat="42.98063" lon="0.01598">
        <ele>1339</ele>
        <time>2013-11-29T11:41:22.124Z</time>
      </trkpt>
      <trkpt lat="42.98063" lon="0.01598">
        <ele>1339</ele>
        <time>2013-11-29T11:41:23.124Z</time>
      </trkpt>
      <trkpt lat="42.98063" lon="0.01598">
        <ele>1339</ele>
        <time>2013-11-29T11:41:25.127Z</time>
      </trkpt>
      <trkpt lat="42.98065" lon="0.01596">
        <ele>1334.8</ele>
        <time>2013-11-29T11:41:26.124Z</time>
      </trkpt>
      <trkpt lat="42.98073" lon="0.01593">
        <ele>1330.4</ele>
        <time>2013-11-29T11:41:34.124Z</time>
      </trkpt>
      <trkpt lat="42.98073" lon="0.01592">
        <ele>1330.2</ele>
        <time>2013-11-29T11:41:35.123Z</time>
      </trkpt>
      <trkpt lat="42.9808" lon="0.01584">
        <ele>1327.9</ele>
        <time>2013-11-29T11:41:43.166Z</time>
      </trkpt>
      <trkpt lat="42.9808" lon="0.01583">
        <ele>1327.7</ele>
        <time>2013-11-29T11:41:44.124Z</time>
      </trkpt>
      <trkpt lat="42.98087" lon="0.01576">
        <ele>1324.5</ele>
        <time>2013-11-29T11:41:52.124Z</time>
      </trkpt>
      <trkpt lat="42.98088" lon="0.01575">
        <ele>1324</ele>
        <time>2013-11-29T11:41:53.124Z</time>
      </trkpt>
      <trkpt lat="42.98095" lon="0.01567">
        <ele>1319.3</ele>
        <time>2013-11-29T11:42:06.124Z</time>
      </trkpt>
      <trkpt lat="42.98095" lon="0.01567">
        <ele>1319</ele>
        <time>2013-11-29T11:42:07.127Z</time>
      </trkpt>
      <trkpt lat="42.98096" lon="0.01567">
        <ele>1318.2</ele>
        <time>2013-11-29T11:42:09.125Z</time>
      </trkpt>
      <trkpt lat="42.98095" lon="0.01567">
        <ele>1317.7</ele>
        <time>2013-11-29T11:42:10.123Z</time>
      </trkpt>
      <trkpt lat="42.98096" lon="0.01567">
        <ele>1315.7</ele>
        <time>2013-11-29T11:42:13.127Z</time>
      </trkpt>
      <trkpt lat="42.98096" lon="0.01566">
        <ele>1315.4</ele>
        <time>2013-11-29T11:42:14.123Z</time>
      </trkpt>
      <trkpt lat="42.98104" lon="0.01563">
        <ele>1311.3</ele>
        <time>2013-11-29T11:42:22.124Z</time>
      </trkpt>
      <trkpt lat="42.98105" lon="0.01563">
        <ele>1310.8</ele>
        <time>2013-11-29T11:42:23.124Z</time>
      </trkpt>
      <trkpt lat="42.98104" lon="0.01563">
        <ele>1309.4</ele>
        <time>2013-11-29T11:42:24.123Z</time>
      </trkpt>
      <trkpt lat="42.98103" lon="0.01563">
        <ele>1309.2</ele>
        <time>2013-11-29T11:42:25.127Z</time>
      </trkpt>
      <trkpt lat="42.98102" lon="0.01562">
        <ele>1308.6</ele>
        <time>2013-11-29T11:42:26.123Z</time>
      </trkpt>
      <trkpt lat="42.98101" lon="0.01563">
        <ele>1308.6</ele>
        <time>2013-11-29T11:42:29.123Z</time>
      </trkpt>
      <trkpt lat="42.98102" lon="0.01562">
        <ele>1307</ele>
        <time>2013-11-29T11:42:30.123Z</time>
      </trkpt>
      <trkpt lat="42.98103" lon="0.01562">
        <ele>1306.3</ele>
        <time>2013-11-29T11:42:31.128Z</time>
      </trkpt>
      <trkpt lat="42.98111" lon="0.0156">
        <ele>1302.1</ele>
        <time>2013-11-29T11:42:39.125Z</time>
      </trkpt>
      <trkpt lat="42.98112" lon="0.0156">
        <ele>1301.6</ele>
        <time>2013-11-29T11:42:40.123Z</time>
      </trkpt>
      <trkpt lat="42.9812" lon="0.01555">
        <ele>1296.1</ele>
        <time>2013-11-29T11:42:50.123Z</time>
      </trkpt>
      <trkpt lat="42.9812" lon="0.01554">
        <ele>1295.5</ele>
        <time>2013-11-29T11:42:51.126Z</time>
      </trkpt>
      <trkpt lat="42.98127" lon="0.01548">
        <ele>1291.2</ele>
        <time>2013-11-29T11:43:00.123Z</time>
      </trkpt>
      <trkpt lat="42.98128" lon="0.01547">
        <ele>1290.4</ele>
        <time>2013-11-29T11:43:01.128Z</time>
      </trkpt>
      <trkpt lat="42.98137" lon="0.01546">
        <ele>1286.6</ele>
        <time>2013-11-29T11:43:07.127Z</time>
      </trkpt>
      <trkpt lat="42.98138" lon="0.01546">
        <ele>1286.1</ele>
        <time>2013-11-29T11:43:08.123Z</time>
      </trkpt>
      <trkpt lat="42.98142" lon="0.0155">
        <ele>1278.8</ele>
        <time>2013-11-29T11:43:19.127Z</time>
      </trkpt>
      <trkpt lat="42.98142" lon="0.0155">
        <ele>1278.1</ele>
        <time>2013-11-29T11:43:20.123Z</time>
      </trkpt>
      <trkpt lat="42.98143" lon="0.01551">
        <ele>1277.2</ele>
        <time>2013-11-29T11:43:21.126Z</time>
      </trkpt>
      <trkpt lat="42.98151" lon="0.01554">
        <ele>1270.5</ele>
        <time>2013-11-29T11:43:34.123Z</time>
      </trkpt>
      <trkpt lat="42.98151" lon="0.01554">
        <ele>1270</ele>
        <time>2013-11-29T11:43:35.177Z</time>
      </trkpt>
      <trkpt lat="42.98158" lon="0.01562">
        <ele>1264.9</ele>
        <time>2013-11-29T11:43:53.123Z</time>
      </trkpt>
      <trkpt lat="42.98158" lon="0.01562">
        <ele>1264.7</ele>
        <time>2013-11-29T11:43:54.123Z</time>
      </trkpt>
      <trkpt lat="42.98159" lon="0.01564">
        <ele>1263.3</ele>
        <time>2013-11-29T11:44:00.123Z</time>
      </trkpt>
      <trkpt lat="42.98159" lon="0.01564">
        <ele>1263.1</ele>
        <time>2013-11-29T11:44:01.128Z</time>
      </trkpt>
      <trkpt lat="42.98158" lon="0.01564">
        <ele>1262.6</ele>
        <time>2013-11-29T11:47:20.123Z</time>
      </trkpt>
      <trkpt lat="42.98157" lon="0.01569">
        <ele>1260.6</ele>
        <time>2013-11-29T11:47:21.124Z</time>
      </trkpt>
      <trkpt lat="42.98156" lon="0.01576">
        <ele>1260.3</ele>
        <time>2013-11-29T11:47:29.122Z</time>
      </trkpt>
      <trkpt lat="42.98156" lon="0.01576">
        <ele>1260.3</ele>
        <time>2013-11-29T11:47:30.122Z</time>
      </trkpt>
      <trkpt lat="42.98156" lon="0.01575">
        <ele>1260.3</ele>
        <time>2013-11-29T11:47:34.123Z</time>
      </trkpt>
      <trkpt lat="42.98152" lon="0.01576">
        <ele>1256.5</ele>
        <time>2013-11-29T11:47:35.123Z</time>
      </trkpt>
      <trkpt lat="42.98144" lon="0.01573">
        <ele>1255.1</ele>
        <time>2013-11-29T11:47:49.125Z</time>
      </trkpt>
      <trkpt lat="42.98143" lon="0.01572">
        <ele>1254.9</ele>
        <time>2013-11-29T11:47:50.122Z</time>
      </trkpt>
      <trkpt lat="42.98143" lon="0.01571">
        <ele>1254.9</ele>
        <time>2013-11-29T11:47:55.126Z</time>
      </trkpt>
      <trkpt lat="42.98143" lon="0.01571">
        <ele>1254.9</ele>
        <time>2013-11-29T11:47:56.162Z</time>
      </trkpt>
      <trkpt lat="42.98143" lon="0.01572">
        <ele>1254.9</ele>
        <time>2013-11-29T11:47:59.122Z</time>
      </trkpt>
      <trkpt lat="42.9814" lon="0.01571">
        <ele>1249.8</ele>
        <time>2013-11-29T11:48:00.123Z</time>
      </trkpt>
      <trkpt lat="42.98132" lon="0.01568">
        <ele>1248.8</ele>
        <time>2013-11-29T11:48:03.124Z</time>
      </trkpt>
      <trkpt lat="42.98129" lon="0.01568">
        <ele>1248.2</ele>
        <time>2013-11-29T11:48:04.122Z</time>
      </trkpt>
      <trkpt lat="42.9812" lon="0.01565">
        <ele>1247</ele>
        <time>2013-11-29T11:48:09.123Z</time>
      </trkpt>
      <trkpt lat="42.98119" lon="0.01564">
        <ele>1246.8</ele>
        <time>2013-11-29T11:48:10.122Z</time>
      </trkpt>
      <trkpt lat="42.98115" lon="0.01555">
        <ele>1242.7</ele>
        <time>2013-11-29T11:48:18.122Z</time>
      </trkpt>
      <trkpt lat="42.98114" lon="0.01554">
        <ele>1241.6</ele>
        <time>2013-11-29T11:48:19.125Z</time>
      </trkpt>
      <trkpt lat="42.9811" lon="0.01544">
        <ele>1235.9</ele>
        <time>2013-11-29T11:48:29.122Z</time>
      </trkpt>
      <trkpt lat="42.9811" lon="0.01543">
        <ele>1235.5</ele>
        <time>2013-11-29T11:48:30.122Z</time>
      </trkpt>
      <trkpt lat="42.98105" lon="0.01534">
        <ele>1229.6</ele>
        <time>2013-11-29T11:48:45.123Z</time>
      </trkpt>
      <trkpt lat="42.98105" lon="0.01533">
        <ele>1228.6</ele>
        <time>2013-11-29T11:48:46.122Z</time>
      </trkpt>
      <trkpt lat="42.98104" lon="0.01527">
        <ele>1224.3</ele>
        <time>2013-11-29T11:48:58.122Z</time>
      </trkpt>
      <trkpt lat="42.98104" lon="0.01527">
        <ele>1224.3</ele>
        <time>2013-11-29T11:48:59.122Z</time>
      </trkpt>
      <trkpt lat="42.98103" lon="0.01526">
        <ele>1223.9</ele>
        <time>2013-11-29T11:49:00.122Z</time>
      </trkpt>
      <trkpt lat="42.98103" lon="0.01523">
        <ele>1223.2</ele>
        <time>2013-11-29T11:49:06.122Z</time>
      </trkpt>
      <trkpt lat="42.98103" lon="0.01523">
        <ele>1223.2</ele>
        <time>2013-11-29T11:49:07.177Z</time>
      </trkpt>
      <trkpt lat="42.98103" lon="0.01524">
        <ele>1223.2</ele>
        <time>2013-11-29T11:49:53.122Z</time>
      </trkpt>
      <trkpt lat="42.98104" lon="0.01523">
        <ele>1217.1</ele>
        <time>2013-11-29T11:49:54.122Z</time>
      </trkpt>
      <trkpt lat="42.98106" lon="0.01511">
        <ele>1214.1</ele>
        <time>2013-11-29T11:50:05.122Z</time>
      </trkpt>
      <trkpt lat="42.98106" lon="0.0151">
        <ele>1213.9</ele>
        <time>2013-11-29T11:50:06.122Z</time>
      </trkpt>
      <trkpt lat="42.98104" lon="0.01502">
        <ele>1212.5</ele>
        <time>2013-11-29T11:50:15.123Z</time>
      </trkpt>
      <trkpt lat="42.98104" lon="0.01503">
        <ele>1212.2</ele>
        <time>2013-11-29T11:50:16.122Z</time>
      </trkpt>
      <trkpt lat="42.98105" lon="0.01504">
        <ele>1212.1</ele>
        <time>2013-11-29T11:50:17.122Z</time>
      </trkpt>
      <trkpt lat="42.98111" lon="0.01508">
        <ele>1210.2</ele>
        <time>2013-11-29T11:50:26.122Z</time>
      </trkpt>
      <trkpt lat="42.98113" lon="0.0151">
        <ele>1209.8</ele>
        <time>2013-11-29T11:50:27.123Z</time>
      </trkpt>
      <trkpt lat="42.98119" lon="0.01514">
        <ele>1206.8</ele>
        <time>2013-11-29T11:50:29.122Z</time>
      </trkpt>
      <trkpt lat="42.98121" lon="0.01516">
        <ele>1205.7</ele>
        <time>2013-11-29T11:50:30.173Z</time>
      </trkpt>
      <trkpt lat="42.98129" lon="0.01521">
        <ele>1202.1</ele>
        <time>2013-11-29T11:50:34.122Z</time>
      </trkpt>
      <trkpt lat="42.9813" lon="0.01521">
        <ele>1201.6</ele>
        <time>2013-11-29T11:50:35.122Z</time>
      </trkpt>
      <trkpt lat="42.98139" lon="0.01522">
        <ele>1198.4</ele>
        <time>2013-11-29T11:50:42.122Z</time>
      </trkpt>
      <trkpt lat="42.9814" lon="0.01523">
        <ele>1197.7</ele>
        <time>2013-11-29T11:50:43.125Z</time>
      </trkpt>
      <trkpt lat="42.98148" lon="0.01524">
        <ele>1194.4</ele>
        <time>2013-11-29T11:50:54.122Z</time>
      </trkpt>
      <trkpt lat="42.98149" lon="0.01523">
        <ele>1193.8</ele>
        <time>2013-11-29T11:50:55.125Z</time>
      </trkpt>
      <trkpt lat="42.98158" lon="0.01521">
        <ele>1189.5</ele>
        <time>2013-11-29T11:51:08.122Z</time>
      </trkpt>
      <trkpt lat="42.98158" lon="0.0152">
        <ele>1189.2</ele>
        <time>2013-11-29T11:51:09.124Z</time>
      </trkpt>
      <trkpt lat="42.98157" lon="0.01509">
        <ele>1185</ele>
        <time>2013-11-29T11:51:26.122Z</time>
      </trkpt>
      <trkpt lat="42.98157" lon="0.01508">
        <ele>1184.6</ele>
        <time>2013-11-29T11:51:27.124Z</time>
      </trkpt>
      <trkpt lat="42.98154" lon="0.01501">
        <ele>1182.6</ele>
        <time>2013-11-29T11:51:39.124Z</time>
      </trkpt>
      <trkpt lat="42.98154" lon="0.01501">
        <ele>1182.6</ele>
        <time>2013-11-29T11:51:40.122Z</time>
      </trkpt>
      <trkpt lat="42.98154" lon="0.01502">
        <ele>1182.6</ele>
        <time>2013-11-29T11:52:34.122Z</time>
      </trkpt>
      <trkpt lat="42.98155" lon="0.015">
        <ele>1181.9</ele>
        <time>2013-11-29T11:52:35.122Z</time>
      </trkpt>
      <trkpt lat="42.98149" lon="0.01491">
        <ele>1181.2</ele>
        <time>2013-11-29T11:52:43.128Z</time>
      </trkpt>
      <trkpt lat="42.98149" lon="0.0149">
        <ele>1181.2</ele>
        <time>2013-11-29T11:52:44.122Z</time>
      </trkpt>
      <trkpt lat="42.98142" lon="0.01482">
        <ele>1181.2</ele>
        <time>2013-11-29T11:52:57.136Z</time>
      </trkpt>
      <trkpt lat="42.98142" lon="0.01481">
        <ele>1181.2</ele>
        <time>2013-11-29T11:52:58.122Z</time>
      </trkpt>
      <trkpt lat="42.98142" lon="0.01481">
        <ele>1181.2</ele>
        <time>2013-11-29T11:53:01.125Z</time>
      </trkpt>
      <trkpt lat="42.98142" lon="0.01481">
        <ele>1181.2</ele>
        <time>2013-11-29T11:53:02.129Z</time>
      </trkpt>
      <trkpt lat="42.98142" lon="0.01481">
        <ele>1181.2</ele>
        <time>2013-11-29T12:04:57.121Z</time>
      </trkpt>
      <trkpt lat="42.98141" lon="0.0148">
        <ele>1182.2</ele>
        <time>2013-11-29T12:04:58.120Z</time>
      </trkpt>
      <trkpt lat="42.98133" lon="0.01473">
        <ele>1182.5</ele>
        <time>2013-11-29T12:05:06.119Z</time>
      </trkpt>
      <trkpt lat="42.98132" lon="0.01473">
        <ele>1182.4</ele>
        <time>2013-11-29T12:05:07.122Z</time>
      </trkpt>
      <trkpt lat="42.98124" lon="0.01467">
        <ele>1182.1</ele>
        <time>2013-11-29T12:05:20.119Z</time>
      </trkpt>
      <trkpt lat="42.98124" lon="0.01467">
        <ele>1182.1</ele>
        <time>2013-11-29T12:05:21.120Z</time>
      </trkpt>
      <trkpt lat="42.98116" lon="0.01461">
        <ele>1182.7</ele>
        <time>2013-11-29T12:05:35.120Z</time>
      </trkpt>
      <trkpt lat="42.98115" lon="0.01461">
        <ele>1182.7</ele>
        <time>2013-11-29T12:05:36.120Z</time>
      </trkpt>
      <trkpt lat="42.98112" lon="0.0145">
        <ele>1183.1</ele>
        <time>2013-11-29T12:05:49.122Z</time>
      </trkpt>
      <trkpt lat="42.98111" lon="0.01449">
        <ele>1183.1</ele>
        <time>2013-11-29T12:05:50.119Z</time>
      </trkpt>
      <trkpt lat="42.98108" lon="0.01438">
        <ele>1183.9</ele>
        <time>2013-11-29T12:06:07.122Z</time>
      </trkpt>
      <trkpt lat="42.98107" lon="0.01437">
        <ele>1184</ele>
        <time>2013-11-29T12:06:08.119Z</time>
      </trkpt>
      <trkpt lat="42.98104" lon="0.01427">
        <ele>1184.3</ele>
        <time>2013-11-29T12:06:19.122Z</time>
      </trkpt>
      <trkpt lat="42.98104" lon="0.01426">
        <ele>1184.4</ele>
        <time>2013-11-29T12:06:20.119Z</time>
      </trkpt>
      <trkpt lat="42.98101" lon="0.01415">
        <ele>1184.7</ele>
        <time>2013-11-29T12:06:31.122Z</time>
      </trkpt>
      <trkpt lat="42.98101" lon="0.01413">
        <ele>1184.8</ele>
        <time>2013-11-29T12:06:32.119Z</time>
      </trkpt>
      <trkpt lat="42.98101" lon="0.01402">
        <ele>1185.3</ele>
        <time>2013-11-29T12:06:42.119Z</time>
      </trkpt>
      <trkpt lat="42.98101" lon="0.014">
        <ele>1185.3</ele>
        <time>2013-11-29T12:06:43.122Z</time>
      </trkpt>
      <trkpt lat="42.981" lon="0.01388">
        <ele>1185.7</ele>
        <time>2013-11-29T12:06:56.119Z</time>
      </trkpt>
      <trkpt lat="42.981" lon="0.01388">
        <ele>1185.8</ele>
        <time>2013-11-29T12:06:57.120Z</time>
      </trkpt>
      <trkpt lat="42.98095" lon="0.01378">
        <ele>1186.4</ele>
        <time>2013-11-29T12:07:08.119Z</time>
      </trkpt>
      <trkpt lat="42.98095" lon="0.01377">
        <ele>1186.5</ele>
        <time>2013-11-29T12:07:09.120Z</time>
      </trkpt>
      <trkpt lat="42.98088" lon="0.01369">
        <ele>1187.5</ele>
        <time>2013-11-29T12:07:23.119Z</time>
      </trkpt>
      <trkpt lat="42.98088" lon="0.01369">
        <ele>1187.6</ele>
        <time>2013-11-29T12:07:24.119Z</time>
      </trkpt>
      <trkpt lat="42.9808" lon="0.01369">
        <ele>1188.5</ele>
        <time>2013-11-29T12:07:37.124Z</time>
      </trkpt>
      <trkpt lat="42.98079" lon="0.01369">
        <ele>1188.6</ele>
        <time>2013-11-29T12:07:38.119Z</time>
      </trkpt>
      <trkpt lat="42.98074" lon="0.01367">
        <ele>1189.7</ele>
        <time>2013-11-29T12:07:48.119Z</time>
      </trkpt>
      <trkpt lat="42.98074" lon="0.01367">
        <ele>1189.8</ele>
        <time>2013-11-29T12:07:49.162Z</time>
      </trkpt>
      <trkpt lat="42.98074" lon="0.01367">
        <ele>1189.9</ele>
        <time>2013-11-29T12:07:50.119Z</time>
      </trkpt>
      <trkpt lat="42.98073" lon="0.01367">
        <ele>1190</ele>
        <time>2013-11-29T12:07:51.119Z</time>
      </trkpt>
      <trkpt lat="42.98065" lon="0.01365">
        <ele>1191.2</ele>
        <time>2013-11-29T12:08:00.119Z</time>
      </trkpt>
      <trkpt lat="42.98064" lon="0.01365">
        <ele>1191.4</ele>
        <time>2013-11-29T12:08:01.122Z</time>
      </trkpt>
      <trkpt lat="42.98059" lon="0.01355">
        <ele>1193.2</ele>
        <time>2013-11-29T12:08:18.119Z</time>
      </trkpt>
      <trkpt lat="42.98059" lon="0.01354">
        <ele>1193.4</ele>
        <time>2013-11-29T12:08:19.122Z</time>
      </trkpt>
      <trkpt lat="42.98065" lon="0.01344">
        <ele>1194.3</ele>
        <time>2013-11-29T12:08:29.118Z</time>
      </trkpt>
      <trkpt lat="42.98066" lon="0.01344">
        <ele>1194.4</ele>
        <time>2013-11-29T12:08:30.118Z</time>
      </trkpt>
      <trkpt lat="42.98075" lon="0.01342">
        <ele>1195.3</ele>
        <time>2013-11-29T12:08:44.118Z</time>
      </trkpt>
      <trkpt lat="42.98075" lon="0.01341">
        <ele>1195.3</ele>
        <time>2013-11-29T12:08:45.119Z</time>
      </trkpt>
      <trkpt lat="42.98083" lon="0.01336">
        <ele>1196.1</ele>
        <time>2013-11-29T12:08:57.175Z</time>
      </trkpt>
      <trkpt lat="42.98084" lon="0.01336">
        <ele>1196.2</ele>
        <time>2013-11-29T12:08:58.119Z</time>
      </trkpt>
      <trkpt lat="42.98093" lon="0.01334">
        <ele>1196.6</ele>
        <time>2013-11-29T12:09:04.118Z</time>
      </trkpt>
      <trkpt lat="42.98093" lon="0.01333">
        <ele>1196.7</ele>
        <time>2013-11-29T12:09:05.119Z</time>
      </trkpt>
      <trkpt lat="42.98102" lon="0.0133">
        <ele>1197.4</ele>
        <time>2013-11-29T12:09:16.119Z</time>
      </trkpt>
      <trkpt lat="42.98103" lon="0.01329">
        <ele>1197.5</ele>
        <time>2013-11-29T12:09:17.118Z</time>
      </trkpt>
      <trkpt lat="42.98106" lon="0.01327">
        <ele>1198.2</ele>
        <time>2013-11-29T12:09:26.118Z</time>
      </trkpt>
      <trkpt lat="42.98105" lon="0.01327">
        <ele>1198.2</ele>
        <time>2013-11-29T12:09:27.167Z</time>
      </trkpt>
      <trkpt lat="42.98105" lon="0.01327">
        <ele>1198.2</ele>
        <time>2013-11-29T12:09:35.119Z</time>
      </trkpt>
      <trkpt lat="42.98104" lon="0.01326">
        <ele>1199.5</ele>
        <time>2013-11-29T12:09:36.119Z</time>
      </trkpt>
      <trkpt lat="42.98095" lon="0.01322">
        <ele>1200.8</ele>
        <time>2013-11-29T12:09:50.119Z</time>
      </trkpt>
      <trkpt lat="42.98095" lon="0.01322">
        <ele>1200.9</ele>
        <time>2013-11-29T12:09:51.119Z</time>
      </trkpt>
      <trkpt lat="42.98087" lon="0.0132">
        <ele>1203.3</ele>
        <time>2013-11-29T12:10:13.121Z</time>
      </trkpt>
      <trkpt lat="42.98088" lon="0.0132">
        <ele>1203.3</ele>
        <time>2013-11-29T12:10:14.118Z</time>
      </trkpt>
      <trkpt lat="42.98088" lon="0.0132">
        <ele>1203.3</ele>
        <time>2013-11-29T12:10:59.118Z</time>
      </trkpt>
      <trkpt lat="42.98085" lon="0.01317">
        <ele>1203.8</ele>
        <time>2013-11-29T12:11:00.134Z</time>
      </trkpt>
      <trkpt lat="42.98082" lon="0.01314">
        <ele>1203.9</ele>
        <time>2013-11-29T12:11:07.121Z</time>
      </trkpt>
      <trkpt lat="42.98083" lon="0.01314">
        <ele>1203.9</ele>
        <time>2013-11-29T12:11:08.118Z</time>
      </trkpt>
      <trkpt lat="42.98083" lon="0.01314">
        <ele>1203.9</ele>
        <time>2013-11-29T12:20:18.004Z</time>
      </trkpt>
      <trkpt lat="42.98079" lon="0.01314">
        <ele>1209.8</ele>
        <time>2013-11-29T12:20:19.008Z</time>
      </trkpt>
      <trkpt lat="42.98073" lon="0.01313">
        <ele>1209.8</ele>
        <time>2013-11-29T12:20:27.841Z</time>
      </trkpt>
      <trkpt lat="42.98073" lon="0.01313">
        <ele>1209.8</ele>
        <time>2013-11-29T12:20:28.005Z</time>
      </trkpt>
      <trkpt lat="42.98073" lon="0.01313">
        <ele>1209.8</ele>
        <time>2013-11-29T12:21:11.004Z</time>
      </trkpt>
      <trkpt lat="42.98075" lon="0.01314">
        <ele>1209.8</ele>
        <time>2013-11-29T12:21:12.004Z</time>
      </trkpt>
      <trkpt lat="42.98079" lon="0.01314">
        <ele>1209.7</ele>
        <time>2013-11-29T12:21:19.007Z</time>
      </trkpt>
      <trkpt lat="42.98078" lon="0.01313">
        <ele>1209.7</ele>
        <time>2013-11-29T12:21:20.004Z</time>
      </trkpt>
      <trkpt lat="42.98078" lon="0.01313">
        <ele>1209.7</ele>
        <time>2013-11-29T12:24:32.853Z</time>
      </trkpt>
      <trkpt lat="42.98079" lon="0.01312">
        <ele>1210.5</ele>
        <time>2013-11-29T12:24:33.004Z</time>
      </trkpt>
      <trkpt lat="42.98081" lon="0.01312">
        <ele>1210.5</ele>
        <time>2013-11-29T12:24:38.009Z</time>
      </trkpt>
      <trkpt lat="42.98081" lon="0.01312">
        <ele>1210.5</ele>
        <time>2013-11-29T12:24:39.004Z</time>
      </trkpt>
      <trkpt lat="42.98081" lon="0.01312">
        <ele>1210.5</ele>
        <time>2013-11-29T12:28:52.003Z</time>
      </trkpt>
      <trkpt lat="42.98077" lon="0.01314">
        <ele>1211.4</ele>
        <time>2013-11-29T12:28:53.003Z</time>
      </trkpt>
      <trkpt lat="42.98071" lon="0.01316">
        <ele>1211.4</ele>
        <time>2013-11-29T12:29:01.006Z</time>
      </trkpt>
      <trkpt lat="42.98071" lon="0.01316">
        <ele>1211.4</ele>
        <time>2013-11-29T12:29:02.045Z</time>
      </trkpt>
      <trkpt lat="42.98072" lon="0.01315">
        <ele>1213.7</ele>
        <time>2013-11-29T12:33:58.002Z</time>
      </trkpt>
      <trkpt lat="42.98073" lon="0.01316">
        <ele>1215.3</ele>
        <time>2013-11-29T12:33:59.002Z</time>
      </trkpt>
      <trkpt lat="42.98076" lon="0.01322">
        <ele>1215.4</ele>
        <time>2013-11-29T12:34:08.001Z</time>
      </trkpt>
      <trkpt lat="42.98076" lon="0.01322">
        <ele>1215.4</ele>
        <time>2013-11-29T12:34:09.003Z</time>
      </trkpt>
      <trkpt lat="42.98076" lon="0.01321">
        <ele>1215.5</ele>
        <time>2013-11-29T12:34:11.002Z</time>
      </trkpt>
      <trkpt lat="42.98076" lon="0.01321">
        <ele>1215.6</ele>
        <time>2013-11-29T12:34:12.002Z</time>
      </trkpt>
      <trkpt lat="42.98076" lon="0.01321">
        <ele>1215.6</ele>
        <time>2013-11-29T12:34:12.834Z</time>
      </trkpt>
      <trkpt lat="42.98077" lon="0.01321">
        <ele>1215.7</ele>
        <time>2013-11-29T12:34:13.004Z</time>
      </trkpt>
      <trkpt lat="42.98076" lon="0.0132">
        <ele>1215.8</ele>
        <time>2013-11-29T12:34:14.002Z</time>
      </trkpt>
      <trkpt lat="42.98076" lon="0.0132">
        <ele>1215.9</ele>
        <time>2013-11-29T12:34:15.003Z</time>
      </trkpt>
      <trkpt lat="42.98076" lon="0.01319">
        <ele>1215.9</ele>
        <time>2013-11-29T12:34:16.002Z</time>
      </trkpt>
      <trkpt lat="42.98076" lon="0.01319">
        <ele>1215.9</ele>
        <time>2013-11-29T12:34:17.002Z</time>
      </trkpt>
      <trkpt lat="42.98075" lon="0.01321">
        <ele>1217.1</ele>
        <time>2013-11-29T12:35:03.005Z</time>
      </trkpt>
      <trkpt lat="42.98076" lon="0.01319">
        <ele>1217.6</ele>
        <time>2013-11-29T12:35:04.001Z</time>
      </trkpt>
      <trkpt lat="42.98081" lon="0.01313">
        <ele>1218.3</ele>
        <time>2013-11-29T12:35:19.003Z</time>
      </trkpt>
      <trkpt lat="42.98081" lon="0.01313">
        <ele>1218.3</ele>
        <time>2013-11-29T12:35:20.001Z</time>
      </trkpt>
      <trkpt lat="42.9808" lon="0.01314">
        <ele>1218.7</ele>
        <time>2013-11-29T12:35:52.913Z</time>
      </trkpt>
      <trkpt lat="42.9808" lon="0.01314">
        <ele>1218.7</ele>
        <time>2013-11-29T12:35:53.001Z</time>
      </trkpt>
      <trkpt lat="42.98078" lon="0.01315">
        <ele>1218.8</ele>
        <time>2013-11-29T12:36:00.027Z</time>
      </trkpt>
      <trkpt lat="42.98078" lon="0.01315">
        <ele>1218.8</ele>
        <time>2013-11-29T12:36:01.004Z</time>
      </trkpt>
      <trkpt lat="42.98078" lon="0.01313">
        <ele>1219</ele>
        <time>2013-11-29T12:36:15.002Z</time>
      </trkpt>
      <trkpt lat="42.98079" lon="0.01312">
        <ele>1219</ele>
        <time>2013-11-29T12:36:16.001Z</time>
      </trkpt>
      <trkpt lat="42.98079" lon="0.01312">
        <ele>1218.9</ele>
        <time>2013-11-29T12:36:18.001Z</time>
      </trkpt>
      <trkpt lat="42.98079" lon="0.01312">
        <ele>1219</ele>
        <time>2013-11-29T12:36:19.003Z</time>
      </trkpt>
      <trkpt lat="42.98079" lon="0.01311">
        <ele>1219.6</ele>
        <time>2013-11-29T12:36:24.001Z</time>
      </trkpt>
      <trkpt lat="42.98079" lon="0.01311">
        <ele>1219.6</ele>
        <time>2013-11-29T12:36:25.003Z</time>
      </trkpt>
      <trkpt lat="42.98082" lon="0.01308">
        <ele>1220.3</ele>
        <time>2013-11-29T12:36:33.033Z</time>
      </trkpt>
      <trkpt lat="42.98081" lon="0.01309">
        <ele>1220.3</ele>
        <time>2013-11-29T12:36:34.001Z</time>
      </trkpt>
      <trkpt lat="42.9808" lon="0.01309">
        <ele>1220.5</ele>
        <time>2013-11-29T12:36:35.001Z</time>
      </trkpt>
      <trkpt lat="42.9808" lon="0.0131">
        <ele>1220.6</ele>
        <time>2013-11-29T12:36:36.001Z</time>
      </trkpt>
      <trkpt lat="42.98079" lon="0.01311">
        <ele>1221.1</ele>
        <time>2013-11-29T12:36:40.001Z</time>
      </trkpt>
      <trkpt lat="42.98079" lon="0.01311">
        <ele>1221.2</ele>
        <time>2013-11-29T12:36:41.001Z</time>
      </trkpt>
      <trkpt lat="42.98079" lon="0.01311">
        <ele>1221.6</ele>
        <time>2013-11-29T12:36:42.876Z</time>
      </trkpt>
      <trkpt lat="42.98079" lon="0.0131">
        <ele>1221.6</ele>
        <time>2013-11-29T12:36:43.003Z</time>
      </trkpt>
      <trkpt lat="42.98077" lon="0.01309">
        <ele>1221.6</ele>
        <time>2013-11-29T12:36:48.035Z</time>
      </trkpt>
      <trkpt lat="42.98077" lon="0.01309">
        <ele>1221.6</ele>
        <time>2013-11-29T12:36:49.003Z</time>
      </trkpt>
      <trkpt lat="42.98078" lon="0.01308">
        <ele>1221.6</ele>
        <time>2013-11-29T12:36:50.002Z</time>
      </trkpt>
      <trkpt lat="42.98079" lon="0.01308">
        <ele>1221.7</ele>
        <time>2013-11-29T12:36:51.002Z</time>
      </trkpt>
      <trkpt lat="42.98079" lon="0.01307">
        <ele>1221.9</ele>
        <time>2013-11-29T12:36:53.056Z</time>
      </trkpt>
      <trkpt lat="42.98079" lon="0.01307">
        <ele>1221.9</ele>
        <time>2013-11-29T12:36:54.001Z</time>
      </trkpt>
      <trkpt lat="42.98079" lon="0.01308">
        <ele>1221.9</ele>
        <time>2013-11-29T12:37:15.002Z</time>
      </trkpt>
      <trkpt lat="42.9808" lon="0.01308">
        <ele>1222.1</ele>
        <time>2013-11-29T12:37:16.001Z</time>
      </trkpt>
      <trkpt lat="42.98082" lon="0.01308">
        <ele>1222.3</ele>
        <time>2013-11-29T12:37:22.849Z</time>
      </trkpt>
      <trkpt lat="42.98082" lon="0.01308">
        <ele>1222.3</ele>
        <time>2013-11-29T12:37:23.001Z</time>
      </trkpt>
      <trkpt lat="42.98082" lon="0.01307">
        <ele>1222.6</ele>
        <time>2013-11-29T12:37:31.003Z</time>
      </trkpt>
      <trkpt lat="42.98083" lon="0.01308">
        <ele>1222.8</ele>
        <time>2013-11-29T12:37:32.001Z</time>
      </trkpt>
      <trkpt lat="42.98084" lon="0.0131">
        <ele>1223.2</ele>
        <time>2013-11-29T12:37:38.001Z</time>
      </trkpt>
      <trkpt lat="42.98084" lon="0.0131">
        <ele>1223.2</ele>
        <time>2013-11-29T12:37:39.003Z</time>
      </trkpt>
      <trkpt lat="42.98084" lon="0.0131">
        <ele>1223.2</ele>
        <time>2013-11-29T12:37:46.004Z</time>
      </trkpt>
      <trkpt lat="42.98084" lon="0.01309">
        <ele>1223.9</ele>
        <time>2013-11-29T12:37:47.006Z</time>
      </trkpt>
      <trkpt lat="42.98086" lon="0.01307">
        <ele>1224.5</ele>
        <time>2013-11-29T12:37:56.005Z</time>
      </trkpt>
      <trkpt lat="42.98086" lon="0.01308">
        <ele>1224.5</ele>
        <time>2013-11-29T12:37:57.005Z</time>
      </trkpt>
      <trkpt lat="42.98086" lon="0.01308">
        <ele>1224.5</ele>
        <time>2013-11-29T12:38:01.005Z</time>
      </trkpt>
      <trkpt lat="42.98085" lon="0.0131">
        <ele>1224.4</ele>
        <time>2013-11-29T12:38:02.004Z</time>
      </trkpt>
      <trkpt lat="42.98078" lon="0.01317">
        <ele>1224.6</ele>
        <time>2013-11-29T12:38:10.003Z</time>
      </trkpt>
      <trkpt lat="42.98077" lon="0.01317">
        <ele>1224.6</ele>
        <time>2013-11-29T12:38:11.005Z</time>
      </trkpt>
      <trkpt lat="42.98075" lon="0.01323">
        <ele>1224.6</ele>
        <time>2013-11-29T12:38:27.857Z</time>
      </trkpt>
      <trkpt lat="42.98075" lon="0.01323">
        <ele>1224.6</ele>
        <time>2013-11-29T12:38:28.024Z</time>
      </trkpt>
      <trkpt lat="42.98075" lon="0.01323">
        <ele>1224.6</ele>
        <time>2013-11-29T12:38:36.002Z</time>
      </trkpt>
      <trkpt lat="42.98074" lon="0.01323">
        <ele>1225.5</ele>
        <time>2013-11-29T12:38:37.004Z</time>
      </trkpt>
      <trkpt lat="42.98068" lon="0.01325">
        <ele>1225.5</ele>
        <time>2013-11-29T12:38:47.918Z</time>
      </trkpt>
      <trkpt lat="42.98068" lon="0.01324">
        <ele>1225.6</ele>
        <time>2013-11-29T12:38:48.002Z</time>
      </trkpt>
      <trkpt lat="42.9807" lon="0.01324">
        <ele>1225.6</ele>
        <time>2013-11-29T12:39:25.003Z</time>
      </trkpt>
      <trkpt lat="42.9807" lon="0.01323">
        <ele>1226.3</ele>
        <time>2013-11-29T12:39:26.002Z</time>
      </trkpt>
      <trkpt lat="42.98072" lon="0.01322">
        <ele>1226.4</ele>
        <time>2013-11-29T12:39:33.002Z</time>
      </trkpt>
      <trkpt lat="42.98072" lon="0.01321">
        <ele>1226.4</ele>
        <time>2013-11-29T12:39:34.001Z</time>
      </trkpt>
      <trkpt lat="42.98072" lon="0.01322">
        <ele>1226.4</ele>
        <time>2013-11-29T12:39:55.003Z</time>
      </trkpt>
      <trkpt lat="42.98074" lon="0.0132">
        <ele>1225</ele>
        <time>2013-11-29T12:39:56.002Z</time>
      </trkpt>
      <trkpt lat="42.98081" lon="0.01315">
        <ele>1224.9</ele>
        <time>2013-11-29T12:40:07.834Z</time>
      </trkpt>
      <trkpt lat="42.98082" lon="0.01314">
        <ele>1224.9</ele>
        <time>2013-11-29T12:40:08.001Z</time>
      </trkpt>
      <trkpt lat="42.98075" lon="0.01318">
        <ele>1224.9</ele>
        <time>2013-11-29T12:40:45.001Z</time>
      </trkpt>
      <trkpt lat="42.98075" lon="0.01318">
        <ele>1224.9</ele>
        <time>2013-11-29T12:40:46.000Z</time>
      </trkpt>
      <trkpt lat="42.98076" lon="0.01317">
        <ele>1225</ele>
        <time>2013-11-29T12:40:56.001Z</time>
      </trkpt>
      <trkpt lat="42.98077" lon="0.01316">
        <ele>1225</ele>
        <time>2013-11-29T12:40:57.002Z</time>
      </trkpt>
      <trkpt lat="42.98078" lon="0.01314">
        <ele>1225</ele>
        <time>2013-11-29T12:41:00.027Z</time>
      </trkpt>
      <trkpt lat="42.98077" lon="0.01314">
        <ele>1225</ele>
        <time>2013-11-29T12:41:01.003Z</time>
      </trkpt>
      <trkpt lat="42.98077" lon="0.01316">
        <ele>1224.7</ele>
        <time>2013-11-29T12:41:04.001Z</time>
      </trkpt>
      <trkpt lat="42.98076" lon="0.01317">
        <ele>1224.6</ele>
        <time>2013-11-29T12:41:05.001Z</time>
      </trkpt>
      <trkpt lat="42.98075" lon="0.0132">
        <ele>1223.9</ele>
        <time>2013-11-29T12:41:17.850Z</time>
      </trkpt>
      <trkpt lat="42.98075" lon="0.0132">
        <ele>1223.9</ele>
        <time>2013-11-29T12:41:18.001Z</time>
      </trkpt>
      <trkpt lat="42.98075" lon="0.01319">
        <ele>1222.8</ele>
        <time>2013-11-29T12:41:31.004Z</time>
      </trkpt>
      <trkpt lat="42.98075" lon="0.01319">
        <ele>1222.7</ele>
        <time>2013-11-29T12:41:32.000Z</time>
      </trkpt>
      <trkpt lat="42.98078" lon="0.01317">
        <ele>1222.9</ele>
        <time>2013-11-29T12:41:41.001Z</time>
      </trkpt>
      <trkpt lat="42.98077" lon="0.01318">
        <ele>1222.8</ele>
        <time>2013-11-29T12:41:42.000Z</time>
      </trkpt>
      <trkpt lat="42.98077" lon="0.01318">
        <ele>1222.8</ele>
        <time>2013-11-29T12:41:43.035Z</time>
      </trkpt>
      <trkpt lat="42.98076" lon="0.01319">
        <ele>1222.8</ele>
        <time>2013-11-29T12:41:44.000Z</time>
      </trkpt>
      <trkpt lat="42.98074" lon="0.01314">
        <ele>1221.9</ele>
        <time>2013-11-29T12:41:53.075Z</time>
      </trkpt>
      <trkpt lat="42.98074" lon="0.01314">
        <ele>1221.9</ele>
        <time>2013-11-29T12:41:54.000Z</time>
      </trkpt>
      <trkpt lat="42.98075" lon="0.01315">
        <ele>1222.1</ele>
        <time>2013-11-29T12:41:57.001Z</time>
      </trkpt>
      <trkpt lat="42.98075" lon="0.01316">
        <ele>1222.2</ele>
        <time>2013-11-29T12:41:58.035Z</time>
      </trkpt>
      <trkpt lat="42.98076" lon="0.01316">
        <ele>1222.2</ele>
        <time>2013-11-29T12:42:01.002Z</time>
      </trkpt>
      <trkpt lat="42.98076" lon="0.01317">
        <ele>1222.2</ele>
        <time>2013-11-29T12:42:02.000Z</time>
      </trkpt>
      <trkpt lat="42.98075" lon="0.01316">
        <ele>1222.2</ele>
        <time>2013-11-29T12:42:10.000Z</time>
      </trkpt>
      <trkpt lat="42.98074" lon="0.01316">
        <ele>1223.7</ele>
        <time>2013-11-29T12:42:11.000Z</time>
      </trkpt>
      <trkpt lat="42.98071" lon="0.01318">
        <ele>1223.4</ele>
        <time>2013-11-29T12:42:18.000Z</time>
      </trkpt>
      <trkpt lat="42.98071" lon="0.01318">
        <ele>1223.4</ele>
        <time>2013-11-29T12:42:19.002Z</time>
      </trkpt>
      <trkpt lat="42.98072" lon="0.01317">
        <ele>1223.4</ele>
        <time>2013-11-29T12:42:59.000Z</time>
      </trkpt>
      <trkpt lat="42.98073" lon="0.01316">
        <ele>1224.3</ele>
        <time>2013-11-29T12:43:00.000Z</time>
      </trkpt>
      <trkpt lat="42.98076" lon="0.0131">
        <ele>1224.3</ele>
        <time>2013-11-29T12:43:09.001Z</time>
      </trkpt>
      <trkpt lat="42.98076" lon="0.01311">
        <ele>1224.3</ele>
        <time>2013-11-29T12:43:10.000Z</time>
      </trkpt>
      <trkpt lat="42.98075" lon="0.01311">
        <ele>1224.3</ele>
        <time>2013-11-29T12:43:19.002Z</time>
      </trkpt>
      <trkpt lat="42.98073" lon="0.01315">
        <ele>1222.6</ele>
        <time>2013-11-29T12:43:20.000Z</time>
      </trkpt>
      <trkpt lat="42.98071" lon="0.0132">
        <ele>1222.4</ele>
        <time>2013-11-29T12:43:28.000Z</time>
      </trkpt>
      <trkpt lat="42.98071" lon="0.0132">
        <ele>1222.5</ele>
        <time>2013-11-29T12:43:29.000Z</time>
      </trkpt>
      <trkpt lat="42.98072" lon="0.0132">
        <ele>1222.4</ele>
        <time>2013-11-29T12:43:30.000Z</time>
      </trkpt>
      <trkpt lat="42.98076" lon="0.01317">
        <ele>1222.2</ele>
        <time>2013-11-29T12:43:40.000Z</time>
      </trkpt>
      <trkpt lat="42.98076" lon="0.01317">
        <ele>1222.2</ele>
        <time>2013-11-29T12:43:41.000Z</time>
      </trkpt>
      <trkpt lat="42.98076" lon="0.01318">
        <ele>1221.9</ele>
        <time>2013-11-29T12:43:49.999Z</time>
      </trkpt>
      <trkpt lat="42.98075" lon="0.01319">
        <ele>1222</ele>
        <time>2013-11-29T12:43:51.001Z</time>
      </trkpt>
      <trkpt lat="42.98073" lon="0.01323">
        <ele>1222.7</ele>
        <time>2013-11-29T12:44:03.051Z</time>
      </trkpt>
      <trkpt lat="42.98073" lon="0.01322">
        <ele>1222.7</ele>
        <time>2013-11-29T12:44:03.999Z</time>
      </trkpt>
      <trkpt lat="42.98074" lon="0.01322">
        <ele>1222.7</ele>
        <time>2013-11-29T12:44:23.999Z</time>
      </trkpt>
      <trkpt lat="42.98075" lon="0.01321">
        <ele>1223.5</ele>
        <time>2013-11-29T12:44:25.001Z</time>
      </trkpt>
      <trkpt lat="42.98079" lon="0.01317">
        <ele>1223.5</ele>
        <time>2013-11-29T12:44:39.000Z</time>
      </trkpt>
      <trkpt lat="42.98078" lon="0.01317">
        <ele>1223.6</ele>
        <time>2013-11-29T12:44:39.999Z</time>
      </trkpt>
      <trkpt lat="42.98077" lon="0.01317">
        <ele>1223.8</ele>
        <time>2013-11-29T12:44:55.999Z</time>
      </trkpt>
      <trkpt lat="42.98078" lon="0.01316">
        <ele>1223.4</ele>
        <time>2013-11-29T12:44:57.001Z</time>
      </trkpt>
      <trkpt lat="42.98081" lon="0.01312">
        <ele>1222.9</ele>
        <time>2013-11-29T12:45:04.999Z</time>
      </trkpt>
      <trkpt lat="42.98081" lon="0.01312">
        <ele>1222.9</ele>
        <time>2013-11-29T12:45:05.999Z</time>
      </trkpt>
      <trkpt lat="42.9808" lon="0.01314">
        <ele>1223</ele>
        <time>2013-11-29T12:45:08.027Z</time>
      </trkpt>
      <trkpt lat="42.9808" lon="0.01314">
        <ele>1222.9</ele>
        <time>2013-11-29T12:45:09.000Z</time>
      </trkpt>
      <trkpt lat="42.98078" lon="0.01317">
        <ele>1222.8</ele>
        <time>2013-11-29T12:45:16.999Z</time>
      </trkpt>
      <trkpt lat="42.98078" lon="0.01317">
        <ele>1222.8</ele>
        <time>2013-11-29T12:45:18.029Z</time>
      </trkpt>
      <trkpt lat="42.98078" lon="0.01317">
        <ele>1222.8</ele>
        <time>2013-11-29T12:45:19.001Z</time>
      </trkpt>
      <trkpt lat="42.98077" lon="0.01318">
        <ele>1222.7</ele>
        <time>2013-11-29T12:45:20.035Z</time>
      </trkpt>
      <trkpt lat="42.98076" lon="0.01319">
        <ele>1222.6</ele>
        <time>2013-11-29T12:45:25.001Z</time>
      </trkpt>
      <trkpt lat="42.98076" lon="0.01319">
        <ele>1222.6</ele>
        <time>2013-11-29T12:45:25.999Z</time>
      </trkpt>
      <trkpt lat="42.98077" lon="0.01319">
        <ele>1222.9</ele>
        <time>2013-11-29T12:46:27.988Z</time>
      </trkpt>
      <trkpt lat="42.98077" lon="0.01319">
        <ele>1223</ele>
        <time>2013-11-29T12:46:28.024Z</time>
      </trkpt>
      <trkpt lat="42.9808" lon="0.01316">
        <ele>1223</ele>
        <time>2013-11-29T12:46:36.014Z</time>
      </trkpt>
      <trkpt lat="42.9808" lon="0.01316">
        <ele>1223</ele>
        <time>2013-11-29T12:46:37.001Z</time>
      </trkpt>
      <trkpt lat="42.98079" lon="0.01317">
        <ele>1222.9</ele>
        <time>2013-11-29T12:46:49.001Z</time>
      </trkpt>
      <trkpt lat="42.98079" lon="0.01317">
        <ele>1222.9</ele>
        <time>2013-11-29T12:46:49.999Z</time>
      </trkpt>
      <trkpt lat="42.98078" lon="0.0132">
        <ele>1223.1</ele>
        <time>2013-11-29T12:46:55.001Z</time>
      </trkpt>
      <trkpt lat="42.98078" lon="0.0132">
        <ele>1223.1</ele>
        <time>2013-11-29T12:46:55.999Z</time>
      </trkpt>
      <trkpt lat="42.98078" lon="0.0132">
        <ele>1223.1</ele>
        <time>2013-11-29T12:46:57.000Z</time>
      </trkpt>
      <trkpt lat="42.98077" lon="0.0132">
        <ele>1223.6</ele>
        <time>2013-11-29T12:46:57.999Z</time>
      </trkpt>
      <trkpt lat="42.98077" lon="0.0132">
        <ele>1223.7</ele>
        <time>2013-11-29T12:46:59.998Z</time>
      </trkpt>
      <trkpt lat="42.98077" lon="0.01319">
        <ele>1223.6</ele>
        <time>2013-11-29T12:47:01.001Z</time>
      </trkpt>
      <trkpt lat="42.98077" lon="0.01319">
        <ele>1223.6</ele>
        <time>2013-11-29T12:47:02.831Z</time>
      </trkpt>
      <trkpt lat="42.98077" lon="0.01318">
        <ele>1223.5</ele>
        <time>2013-11-29T12:47:03.002Z</time>
      </trkpt>
      <trkpt lat="42.98075" lon="0.01307">
        <ele>1223.7</ele>
        <time>2013-11-29T12:47:15.999Z</time>
      </trkpt>
      <trkpt lat="42.98075" lon="0.01306">
        <ele>1223.7</ele>
        <time>2013-11-29T12:47:16.999Z</time>
      </trkpt>
      <trkpt lat="42.98075" lon="0.01301">
        <ele>1225.1</ele>
        <time>2013-11-29T12:47:36.157Z</time>
      </trkpt>
      <trkpt lat="42.98075" lon="0.01301">
        <ele>1225.1</ele>
        <time>2013-11-29T12:47:37.155Z</time>
      </trkpt>
      <trkpt lat="42.98075" lon="0.01301">
        <ele>1225.1</ele>
        <time>2013-11-29T12:47:43.155Z</time>
      </trkpt>
      <trkpt lat="42.98076" lon="0.01301">
        <ele>1226.1</ele>
        <time>2013-11-29T12:47:44.156Z</time>
      </trkpt>
      <trkpt lat="42.98085" lon="0.01302">
        <ele>1227.6</ele>
        <time>2013-11-29T12:47:53.155Z</time>
      </trkpt>
      <trkpt lat="42.98086" lon="0.01302">
        <ele>1227.8</ele>
        <time>2013-11-29T12:47:54.157Z</time>
      </trkpt>
      <trkpt lat="42.98087" lon="0.01301">
        <ele>1228.4</ele>
        <time>2013-11-29T12:47:59.155Z</time>
      </trkpt>
      <trkpt lat="42.98087" lon="0.01301">
        <ele>1228.4</ele>
        <time>2013-11-29T12:48:00.157Z</time>
      </trkpt>
      <trkpt lat="42.98086" lon="0.01301">
        <ele>1228.4</ele>
        <time>2013-11-29T12:48:03.157Z</time>
      </trkpt>
      <trkpt lat="42.98085" lon="0.013">
        <ele>1228.4</ele>
        <time>2013-11-29T12:48:04.155Z</time>
      </trkpt>
      <trkpt lat="42.98083" lon="0.01289">
        <ele>1229.1</ele>
        <time>2013-11-29T12:48:14.156Z</time>
      </trkpt>
      <trkpt lat="42.98083" lon="0.01288">
        <ele>1229.2</ele>
        <time>2013-11-29T12:48:15.155Z</time>
      </trkpt>
      <trkpt lat="42.98083" lon="0.01277">
        <ele>1230.3</ele>
        <time>2013-11-29T12:48:28.155Z</time>
      </trkpt>
      <trkpt lat="42.98083" lon="0.01275">
        <ele>1230.4</ele>
        <time>2013-11-29T12:48:29.155Z</time>
      </trkpt>
      <trkpt lat="42.9809" lon="0.01267">
        <ele>1234.9</ele>
        <time>2013-11-29T12:48:51.156Z</time>
      </trkpt>
      <trkpt lat="42.9809" lon="0.01267">
        <ele>1235.1</ele>
        <time>2013-11-29T12:48:52.155Z</time>
      </trkpt>
      <trkpt lat="42.98097" lon="0.01275">
        <ele>1238.7</ele>
        <time>2013-11-29T12:49:08.156Z</time>
      </trkpt>
      <trkpt lat="42.98097" lon="0.01275">
        <ele>1238.7</ele>
        <time>2013-11-29T12:49:09.154Z</time>
      </trkpt>
      <trkpt lat="42.98097" lon="0.01275">
        <ele>1238.7</ele>
        <time>2013-11-29T12:49:12.846Z</time>
      </trkpt>
      <trkpt lat="42.98097" lon="0.01275">
        <ele>1238.7</ele>
        <time>2013-11-29T12:49:13.154Z</time>
      </trkpt>
      <trkpt lat="42.98097" lon="0.01275">
        <ele>1238.7</ele>
        <time>2013-11-29T12:49:14.155Z</time>
      </trkpt>
      <trkpt lat="42.98098" lon="0.01273">
        <ele>1239.4</ele>
        <time>2013-11-29T12:49:15.154Z</time>
      </trkpt>
      <trkpt lat="42.98102" lon="0.01262">
        <ele>1241.1</ele>
        <time>2013-11-29T12:49:25.154Z</time>
      </trkpt>
      <trkpt lat="42.98101" lon="0.01261">
        <ele>1241.2</ele>
        <time>2013-11-29T12:49:26.155Z</time>
      </trkpt>
      <trkpt lat="42.98101" lon="0.01249">
        <ele>1243.3</ele>
        <time>2013-11-29T12:49:43.154Z</time>
      </trkpt>
      <trkpt lat="42.98101" lon="0.01249">
        <ele>1243.4</ele>
        <time>2013-11-29T12:49:44.155Z</time>
      </trkpt>
      <trkpt lat="42.98099" lon="0.01237">
        <ele>1246</ele>
        <time>2013-11-29T12:50:04.154Z</time>
      </trkpt>
      <trkpt lat="42.98098" lon="0.01236">
        <ele>1246.1</ele>
        <time>2013-11-29T12:50:05.154Z</time>
      </trkpt>
      <trkpt lat="42.98106" lon="0.01231">
        <ele>1249.5</ele>
        <time>2013-11-29T12:50:27.866Z</time>
      </trkpt>
      <trkpt lat="42.98107" lon="0.0123">
        <ele>1249.6</ele>
        <time>2013-11-29T12:50:28.154Z</time>
      </trkpt>
      <trkpt lat="42.98116" lon="0.01229">
        <ele>1253.6</ele>
        <time>2013-11-29T12:50:46.153Z</time>
      </trkpt>
      <trkpt lat="42.98117" lon="0.01228">
        <ele>1253.8</ele>
        <time>2013-11-29T12:50:47.154Z</time>
      </trkpt>
      <trkpt lat="42.98125" lon="0.01224">
        <ele>1256.6</ele>
        <time>2013-11-29T12:51:00.156Z</time>
      </trkpt>
      <trkpt lat="42.98126" lon="0.01223">
        <ele>1256.9</ele>
        <time>2013-11-29T12:51:01.155Z</time>
      </trkpt>
      <trkpt lat="42.98124" lon="0.01214">
        <ele>1260.2</ele>
        <time>2013-11-29T12:51:20.154Z</time>
      </trkpt>
      <trkpt lat="42.98124" lon="0.01215">
        <ele>1260.2</ele>
        <time>2013-11-29T12:51:21.155Z</time>
      </trkpt>
      <trkpt lat="42.98124" lon="0.01215">
        <ele>1260.2</ele>
        <time>2013-11-29T12:51:37.925Z</time>
      </trkpt>
      <trkpt lat="42.98124" lon="0.01216">
        <ele>1260.4</ele>
        <time>2013-11-29T12:51:38.154Z</time>
      </trkpt>
      <trkpt lat="42.98125" lon="0.01219">
        <ele>1260.6</ele>
        <time>2013-11-29T12:51:46.153Z</time>
      </trkpt>
      <trkpt lat="42.98125" lon="0.01219">
        <ele>1260.6</ele>
        <time>2013-11-29T12:51:47.153Z</time>
      </trkpt>
      <trkpt lat="42.98125" lon="0.01219">
        <ele>1260.6</ele>
        <time>2013-11-29T12:51:47.964Z</time>
      </trkpt>
      <trkpt lat="42.98125" lon="0.01218">
        <ele>1260.5</ele>
        <time>2013-11-29T12:51:48.156Z</time>
      </trkpt>
      <trkpt lat="42.98132" lon="0.01212">
        <ele>1260.9</ele>
        <time>2013-11-29T12:52:00.156Z</time>
      </trkpt>
      <trkpt lat="42.98133" lon="0.0121">
        <ele>1261</ele>
        <time>2013-11-29T12:52:01.153Z</time>
      </trkpt>
      <trkpt lat="42.98138" lon="0.01201">
        <ele>1263.9</ele>
        <time>2013-11-29T12:52:17.984Z</time>
      </trkpt>
      <trkpt lat="42.98138" lon="0.01201">
        <ele>1263.9</ele>
        <time>2013-11-29T12:52:18.156Z</time>
      </trkpt>
      <trkpt lat="42.98138" lon="0.01202">
        <ele>1263.9</ele>
        <time>2013-11-29T12:52:33.002Z</time>
      </trkpt>
      <trkpt lat="42.98139" lon="0.012">
        <ele>1264.7</ele>
        <time>2013-11-29T12:52:33.154Z</time>
      </trkpt>
      <trkpt lat="42.9814" lon="0.01199">
        <ele>1265</ele>
        <time>2013-11-29T12:52:38.007Z</time>
      </trkpt>
      <trkpt lat="42.98139" lon="0.01199">
        <ele>1265</ele>
        <time>2013-11-29T12:52:38.154Z</time>
      </trkpt>
      <trkpt lat="42.98139" lon="0.01199">
        <ele>1265.1</ele>
        <time>2013-11-29T12:52:39.153Z</time>
      </trkpt>
      <trkpt lat="42.98131" lon="0.01194">
        <ele>1266.8</ele>
        <time>2013-11-29T12:52:58.043Z</time>
      </trkpt>
      <trkpt lat="42.9813" lon="0.01193">
        <ele>1267.1</ele>
        <time>2013-11-29T12:52:58.203Z</time>
      </trkpt>
      <trkpt lat="42.98123" lon="0.01187">
        <ele>1270</ele>
        <time>2013-11-29T12:53:13.153Z</time>
      </trkpt>
      <trkpt lat="42.98123" lon="0.01187">
        <ele>1270.3</ele>
        <time>2013-11-29T12:53:14.154Z</time>
      </trkpt>
      <trkpt lat="42.98115" lon="0.0118">
        <ele>1272.2</ele>
        <time>2013-11-29T12:53:30.155Z</time>
      </trkpt>
      <trkpt lat="42.98115" lon="0.0118">
        <ele>1272.3</ele>
        <time>2013-11-29T12:53:31.153Z</time>
      </trkpt>
      <trkpt lat="42.98109" lon="0.01171">
        <ele>1274.1</ele>
        <time>2013-11-29T12:53:48.155Z</time>
      </trkpt>
      <trkpt lat="42.98108" lon="0.01171">
        <ele>1274.4</ele>
        <time>2013-11-29T12:53:49.153Z</time>
      </trkpt>
      <trkpt lat="42.98105" lon="0.01175">
        <ele>1274.7</ele>
        <time>2013-11-29T12:53:58.058Z</time>
      </trkpt>
      <trkpt lat="42.98105" lon="0.01175">
        <ele>1274.7</ele>
        <time>2013-11-29T12:53:58.153Z</time>
      </trkpt>
      <trkpt lat="42.98105" lon="0.01174">
        <ele>1274.7</ele>
        <time>2013-11-29T12:54:00.155Z</time>
      </trkpt>
      <trkpt lat="42.98106" lon="0.01173">
        <ele>1275.2</ele>
        <time>2013-11-29T12:54:01.265Z</time>
      </trkpt>
      <trkpt lat="42.98105" lon="0.01161">
        <ele>1275.7</ele>
        <time>2013-11-29T12:54:14.154Z</time>
      </trkpt>
      <trkpt lat="42.98104" lon="0.0116">
        <ele>1275.8</ele>
        <time>2013-11-29T12:54:15.153Z</time>
      </trkpt>
      <trkpt lat="42.98099" lon="0.01151">
        <ele>1277.5</ele>
        <time>2013-11-29T12:54:26.154Z</time>
      </trkpt>
      <trkpt lat="42.98099" lon="0.01151">
        <ele>1277.5</ele>
        <time>2013-11-29T12:54:27.153Z</time>
      </trkpt>
      <trkpt lat="42.98097" lon="0.01147">
        <ele>1279.4</ele>
        <time>2013-11-29T12:54:35.153Z</time>
      </trkpt>
      <trkpt lat="42.98097" lon="0.01148">
        <ele>1279.4</ele>
        <time>2013-11-29T12:54:36.156Z</time>
      </trkpt>
      <trkpt lat="42.98097" lon="0.01148">
        <ele>1279.4</ele>
        <time>2013-11-29T12:54:51.153Z</time>
      </trkpt>
      <trkpt lat="42.98099" lon="0.01149">
        <ele>1281</ele>
        <time>2013-11-29T12:54:52.153Z</time>
      </trkpt>
      <trkpt lat="42.981" lon="0.01138">
        <ele>1282.7</ele>
        <time>2013-11-29T12:55:04.153Z</time>
      </trkpt>
      <trkpt lat="42.98099" lon="0.01136">
        <ele>1282.9</ele>
        <time>2013-11-29T12:55:05.153Z</time>
      </trkpt>
      <trkpt lat="42.98096" lon="0.01125">
        <ele>1284.8</ele>
        <time>2013-11-29T12:55:23.054Z</time>
      </trkpt>
      <trkpt lat="42.98096" lon="0.01125">
        <ele>1284.9</ele>
        <time>2013-11-29T12:55:23.153Z</time>
      </trkpt>
      <trkpt lat="42.98099" lon="0.01113">
        <ele>1285.5</ele>
        <time>2013-11-29T12:55:38.153Z</time>
      </trkpt>
      <trkpt lat="42.98099" lon="0.01112">
        <ele>1285.7</ele>
        <time>2013-11-29T12:55:39.153Z</time>
      </trkpt>
      <trkpt lat="42.98101" lon="0.01105">
        <ele>1287.1</ele>
        <time>2013-11-29T12:55:49.153Z</time>
      </trkpt>
      <trkpt lat="42.981" lon="0.01105">
        <ele>1287.1</ele>
        <time>2013-11-29T12:55:50.154Z</time>
      </trkpt>
      <trkpt lat="42.98101" lon="0.01103">
        <ele>1288.6</ele>
        <time>2013-11-29T12:55:51.153Z</time>
      </trkpt>
      <trkpt lat="42.9811" lon="0.01105">
        <ele>1290.4</ele>
        <time>2013-11-29T12:56:04.153Z</time>
      </trkpt>
      <trkpt lat="42.98111" lon="0.01105">
        <ele>1290.6</ele>
        <time>2013-11-29T12:56:05.153Z</time>
      </trkpt>
      <trkpt lat="42.98115" lon="0.01115">
        <ele>1292.2</ele>
        <time>2013-11-29T12:56:15.153Z</time>
      </trkpt>
      <trkpt lat="42.98115" lon="0.01117">
        <ele>1292.3</ele>
        <time>2013-11-29T12:56:16.153Z</time>
      </trkpt>
      <trkpt lat="42.98124" lon="0.0112">
        <ele>1296.2</ele>
        <time>2013-11-29T12:56:34.152Z</time>
      </trkpt>
      <trkpt lat="42.98124" lon="0.01121">
        <ele>1296.3</ele>
        <time>2013-11-29T12:56:35.152Z</time>
      </trkpt>
      <trkpt lat="42.98133" lon="0.01124">
        <ele>1301.6</ele>
        <time>2013-11-29T12:56:57.950Z</time>
      </trkpt>
      <trkpt lat="42.98133" lon="0.01125">
        <ele>1301.8</ele>
        <time>2013-11-29T12:56:58.153Z</time>
      </trkpt>
      <trkpt lat="42.98141" lon="0.01125">
        <ele>1304.7</ele>
        <time>2013-11-29T12:57:13.153Z</time>
      </trkpt>
      <trkpt lat="42.98142" lon="0.01125">
        <ele>1305</ele>
        <time>2013-11-29T12:57:14.153Z</time>
      </trkpt>
      <trkpt lat="42.98148" lon="0.01116">
        <ele>1310.2</ele>
        <time>2013-11-29T12:57:33.153Z</time>
      </trkpt>
      <trkpt lat="42.98148" lon="0.01115">
        <ele>1310.4</ele>
        <time>2013-11-29T12:57:34.153Z</time>
      </trkpt>
      <trkpt lat="42.98146" lon="0.01103">
        <ele>1312.7</ele>
        <time>2013-11-29T12:57:47.930Z</time>
      </trkpt>
      <trkpt lat="42.98145" lon="0.01103">
        <ele>1312.9</ele>
        <time>2013-11-29T12:57:48.156Z</time>
      </trkpt>
      <trkpt lat="42.98153" lon="0.01097">
        <ele>1317.2</ele>
        <time>2013-11-29T12:58:17.988Z</time>
      </trkpt>
      <trkpt lat="42.98154" lon="0.01097">
        <ele>1317.2</ele>
        <time>2013-11-29T12:58:18.154Z</time>
      </trkpt>
      <trkpt lat="42.9816" lon="0.01105">
        <ele>1322.1</ele>
        <time>2013-11-29T12:58:39.153Z</time>
      </trkpt>
      <trkpt lat="42.98161" lon="0.01105">
        <ele>1322.1</ele>
        <time>2013-11-29T12:58:40.152Z</time>
      </trkpt>
      <trkpt lat="42.98161" lon="0.01104">
        <ele>1322.1</ele>
        <time>2013-11-29T12:58:43.021Z</time>
      </trkpt>
      <trkpt lat="42.98161" lon="0.01104">
        <ele>1322.1</ele>
        <time>2013-11-29T12:58:43.152Z</time>
      </trkpt>
      <trkpt lat="42.98161" lon="0.01104">
        <ele>1324.3</ele>
        <time>2013-11-29T12:58:58.152Z</time>
      </trkpt>
      <trkpt lat="42.9816" lon="0.01106">
        <ele>1324.7</ele>
        <time>2013-11-29T12:58:59.152Z</time>
      </trkpt>
      <trkpt lat="42.98155" lon="0.01111">
        <ele>1325.2</ele>
        <time>2013-11-29T12:59:11.152Z</time>
      </trkpt>
      <trkpt lat="42.98155" lon="0.01111">
        <ele>1325.2</ele>
        <time>2013-11-29T12:59:12.154Z</time>
      </trkpt>
      <trkpt lat="42.98156" lon="0.0111">
        <ele>1325.6</ele>
        <time>2013-11-29T12:59:15.152Z</time>
      </trkpt>
      <trkpt lat="42.98156" lon="0.0111">
        <ele>1325.8</ele>
        <time>2013-11-29T12:59:16.152Z</time>
      </trkpt>
      <trkpt lat="42.98161" lon="0.01101">
        <ele>1327.4</ele>
        <time>2013-11-29T12:59:30.155Z</time>
      </trkpt>
      <trkpt lat="42.98161" lon="0.01099">
        <ele>1327.5</ele>
        <time>2013-11-29T12:59:31.152Z</time>
      </trkpt>
      <trkpt lat="42.98161" lon="0.01087">
        <ele>1328.2</ele>
        <time>2013-11-29T12:59:41.152Z</time>
      </trkpt>
      <trkpt lat="42.9816" lon="0.01087">
        <ele>1328.2</ele>
        <time>2013-11-29T12:59:42.195Z</time>
      </trkpt>
      <trkpt lat="42.98157" lon="0.0108">
        <ele>1328.1</ele>
        <time>2013-11-29T12:59:55.152Z</time>
      </trkpt>
      <trkpt lat="42.98157" lon="0.0108">
        <ele>1328.1</ele>
        <time>2013-11-29T12:59:56.153Z</time>
      </trkpt>
      <trkpt lat="42.98157" lon="0.01081">
        <ele>1328.1</ele>
        <time>2013-11-29T13:00:08.153Z</time>
      </trkpt>
      <trkpt lat="42.98159" lon="0.01079">
        <ele>1328.5</ele>
        <time>2013-11-29T13:00:09.152Z</time>
      </trkpt>
      <trkpt lat="42.98161" lon="0.01068">
        <ele>1329</ele>
        <time>2013-11-29T13:00:20.153Z</time>
      </trkpt>
      <trkpt lat="42.98161" lon="0.01067">
        <ele>1329</ele>
        <time>2013-11-29T13:00:21.152Z</time>
      </trkpt>
      <trkpt lat="42.98155" lon="0.01058">
        <ele>1329.8</ele>
        <time>2013-11-29T13:00:34.152Z</time>
      </trkpt>
      <trkpt lat="42.98154" lon="0.01058">
        <ele>1329.8</ele>
        <time>2013-11-29T13:00:35.152Z</time>
      </trkpt>
      <trkpt lat="42.98154" lon="0.01057">
        <ele>1330.1</ele>
        <time>2013-11-29T13:00:40.152Z</time>
      </trkpt>
      <trkpt lat="42.98154" lon="0.01057">
        <ele>1330.1</ele>
        <time>2013-11-29T13:00:41.152Z</time>
      </trkpt>
      <trkpt lat="42.98154" lon="0.01057">
        <ele>1330.1</ele>
        <time>2013-11-29T13:00:42.899Z</time>
      </trkpt>
      <trkpt lat="42.98155" lon="0.01057">
        <ele>1330.9</ele>
        <time>2013-11-29T13:00:43.152Z</time>
      </trkpt>
      <trkpt lat="42.98163" lon="0.01054">
        <ele>1332.1</ele>
        <time>2013-11-29T13:00:58.151Z</time>
      </trkpt>
      <trkpt lat="42.98164" lon="0.01053">
        <ele>1332</ele>
        <time>2013-11-29T13:00:59.152Z</time>
      </trkpt>
      <trkpt lat="42.98173" lon="0.01054">
        <ele>1333.9</ele>
        <time>2013-11-29T13:01:16.151Z</time>
      </trkpt>
      <trkpt lat="42.98173" lon="0.01055">
        <ele>1334</ele>
        <time>2013-11-29T13:01:17.152Z</time>
      </trkpt>
      <trkpt lat="42.9818" lon="0.01047">
        <ele>1336</ele>
        <time>2013-11-29T13:01:33.152Z</time>
      </trkpt>
      <trkpt lat="42.9818" lon="0.01045">
        <ele>1336.1</ele>
        <time>2013-11-29T13:01:34.152Z</time>
      </trkpt>
      <trkpt lat="42.98187" lon="0.01038">
        <ele>1339</ele>
        <time>2013-11-29T13:01:54.154Z</time>
      </trkpt>
      <trkpt lat="42.98188" lon="0.01038">
        <ele>1339.1</ele>
        <time>2013-11-29T13:01:55.152Z</time>
      </trkpt>
      <trkpt lat="42.98196" lon="0.01043">
        <ele>1341.6</ele>
        <time>2013-11-29T13:02:08.152Z</time>
      </trkpt>
      <trkpt lat="42.98196" lon="0.01043">
        <ele>1341.7</ele>
        <time>2013-11-29T13:02:09.151Z</time>
      </trkpt>
      <trkpt lat="42.98205" lon="0.01041">
        <ele>1345</ele>
        <time>2013-11-29T13:02:30.154Z</time>
      </trkpt>
      <trkpt lat="42.98205" lon="0.01041">
        <ele>1345.1</ele>
        <time>2013-11-29T13:02:31.151Z</time>
      </trkpt>
      <trkpt lat="42.98206" lon="0.0104">
        <ele>1345.2</ele>
        <time>2013-11-29T13:02:34.151Z</time>
      </trkpt>
      <trkpt lat="42.98205" lon="0.0104">
        <ele>1345.1</ele>
        <time>2013-11-29T13:02:35.151Z</time>
      </trkpt>
      <trkpt lat="42.98205" lon="0.0104">
        <ele>1345.8</ele>
        <time>2013-11-29T13:02:44.152Z</time>
      </trkpt>
      <trkpt lat="42.98205" lon="0.0104">
        <ele>1345.8</ele>
        <time>2013-11-29T13:02:45.151Z</time>
      </trkpt>
      <trkpt lat="42.98203" lon="0.01028">
        <ele>1346.7</ele>
        <time>2013-11-29T13:03:00.154Z</time>
      </trkpt>
      <trkpt lat="42.98203" lon="0.01027">
        <ele>1346.8</ele>
        <time>2013-11-29T13:03:01.151Z</time>
      </trkpt>
      <trkpt lat="42.982" lon="0.01016">
        <ele>1347.6</ele>
        <time>2013-11-29T13:03:15.151Z</time>
      </trkpt>
      <trkpt lat="42.982" lon="0.01016">
        <ele>1347.6</ele>
        <time>2013-11-29T13:03:16.151Z</time>
      </trkpt>
      <trkpt lat="42.98193" lon="0.01009">
        <ele>1348.5</ele>
        <time>2013-11-29T13:03:28.152Z</time>
      </trkpt>
      <trkpt lat="42.98192" lon="0.01009">
        <ele>1348.6</ele>
        <time>2013-11-29T13:03:29.151Z</time>
      </trkpt>
      <trkpt lat="42.98192" lon="0.01006">
        <ele>1349.2</ele>
        <time>2013-11-29T13:03:38.152Z</time>
      </trkpt>
      <trkpt lat="42.98192" lon="0.01006">
        <ele>1349.2</ele>
        <time>2013-11-29T13:03:39.151Z</time>
      </trkpt>
      <trkpt lat="42.98192" lon="0.01005">
        <ele>1349.6</ele>
        <time>2013-11-29T13:03:45.151Z</time>
      </trkpt>
      <trkpt lat="42.98192" lon="0.01005">
        <ele>1349.7</ele>
        <time>2013-11-29T13:03:46.151Z</time>
      </trkpt>
      <trkpt lat="42.98198" lon="0.00996">
        <ele>1350.7</ele>
        <time>2013-11-29T13:04:01.151Z</time>
      </trkpt>
      <trkpt lat="42.98199" lon="0.00996">
        <ele>1350.7</ele>
        <time>2013-11-29T13:04:02.152Z</time>
      </trkpt>
      <trkpt lat="42.98199" lon="0.00993">
        <ele>1350.9</ele>
        <time>2013-11-29T13:04:10.151Z</time>
      </trkpt>
      <trkpt lat="42.98199" lon="0.00993">
        <ele>1350.9</ele>
        <time>2013-11-29T13:04:11.151Z</time>
      </trkpt>
      <trkpt lat="42.98199" lon="0.00993">
        <ele>1350.9</ele>
        <time>2013-11-29T13:04:16.151Z</time>
      </trkpt>
      <trkpt lat="42.982" lon="0.00994">
        <ele>1351.9</ele>
        <time>2013-11-29T13:04:17.151Z</time>
      </trkpt>
      <trkpt lat="42.98203" lon="0.00993">
        <ele>1352.2</ele>
        <time>2013-11-29T13:04:25.151Z</time>
      </trkpt>
      <trkpt lat="42.98203" lon="0.00993">
        <ele>1352.2</ele>
        <time>2013-11-29T13:04:26.152Z</time>
      </trkpt>
      <trkpt lat="42.98203" lon="0.00993">
        <ele>1352.2</ele>
        <time>2013-11-29T13:04:34.151Z</time>
      </trkpt>
      <trkpt lat="42.98204" lon="0.00991">
        <ele>1353.2</ele>
        <time>2013-11-29T13:04:35.151Z</time>
      </trkpt>
      <trkpt lat="42.98201" lon="0.00993">
        <ele>1354.1</ele>
        <time>2013-11-29T13:04:57.955Z</time>
      </trkpt>
      <trkpt lat="42.98202" lon="0.00993">
        <ele>1354.1</ele>
        <time>2013-11-29T13:04:58.151Z</time>
      </trkpt>
      <trkpt lat="42.98202" lon="0.00993">
        <ele>1354.1</ele>
        <time>2013-11-29T13:05:04.151Z</time>
      </trkpt>
      <trkpt lat="42.98203" lon="0.00991">
        <ele>1354.9</ele>
        <time>2013-11-29T13:05:05.151Z</time>
      </trkpt>
      <trkpt lat="42.98208" lon="0.00981">
        <ele>1355</ele>
        <time>2013-11-29T13:05:10.151Z</time>
      </trkpt>
      <trkpt lat="42.98208" lon="0.0098">
        <ele>1355</ele>
        <time>2013-11-29T13:05:11.151Z</time>
      </trkpt>
      <trkpt lat="42.98204" lon="0.0097">
        <ele>1357</ele>
        <time>2013-11-29T13:05:27.887Z</time>
      </trkpt>
      <trkpt lat="42.98204" lon="0.0097">
        <ele>1357</ele>
        <time>2013-11-29T13:05:28.151Z</time>
      </trkpt>
      <trkpt lat="42.98205" lon="0.00958">
        <ele>1358.7</ele>
        <time>2013-11-29T13:05:42.904Z</time>
      </trkpt>
      <trkpt lat="42.98204" lon="0.00957">
        <ele>1358.7</ele>
        <time>2013-11-29T13:05:43.152Z</time>
      </trkpt>
      <trkpt lat="42.98203" lon="0.00945">
        <ele>1360.5</ele>
        <time>2013-11-29T13:05:56.153Z</time>
      </trkpt>
      <trkpt lat="42.98203" lon="0.00944">
        <ele>1360.6</ele>
        <time>2013-11-29T13:05:57.152Z</time>
      </trkpt>
      <trkpt lat="42.98205" lon="0.00933">
        <ele>1362.8</ele>
        <time>2013-11-29T13:06:11.151Z</time>
      </trkpt>
      <trkpt lat="42.98205" lon="0.00932">
        <ele>1363</ele>
        <time>2013-11-29T13:06:12.154Z</time>
      </trkpt>
      <trkpt lat="42.98206" lon="0.00928">
        <ele>1364.2</ele>
        <time>2013-11-29T13:06:21.151Z</time>
      </trkpt>
      <trkpt lat="42.98206" lon="0.00928">
        <ele>1364.2</ele>
        <time>2013-11-29T13:06:22.152Z</time>
      </trkpt>
      <trkpt lat="42.98205" lon="0.00928">
        <ele>1366</ele>
        <time>2013-11-29T13:06:49.151Z</time>
      </trkpt>
      <trkpt lat="42.98204" lon="0.00929">
        <ele>1368.6</ele>
        <time>2013-11-29T13:06:50.152Z</time>
      </trkpt>
      <trkpt lat="42.98205" lon="0.00917">
        <ele>1370.2</ele>
        <time>2013-11-29T13:07:06.153Z</time>
      </trkpt>
      <trkpt lat="42.98205" lon="0.00916">
        <ele>1370.3</ele>
        <time>2013-11-29T13:07:07.151Z</time>
      </trkpt>
      <trkpt lat="42.98207" lon="0.00904">
        <ele>1371.8</ele>
        <time>2013-11-29T13:07:19.151Z</time>
      </trkpt>
      <trkpt lat="42.98208" lon="0.00904">
        <ele>1371.9</ele>
        <time>2013-11-29T13:07:20.152Z</time>
      </trkpt>
      <trkpt lat="42.98207" lon="0.00892">
        <ele>1373.1</ele>
        <time>2013-11-29T13:07:35.151Z</time>
      </trkpt>
      <trkpt lat="42.98206" lon="0.00891">
        <ele>1373.2</ele>
        <time>2013-11-29T13:07:36.153Z</time>
      </trkpt>
      <trkpt lat="42.98205" lon="0.0089">
        <ele>1373.6</ele>
        <time>2013-11-29T13:07:42.904Z</time>
      </trkpt>
      <trkpt lat="42.98205" lon="0.0089">
        <ele>1373.6</ele>
        <time>2013-11-29T13:07:43.151Z</time>
      </trkpt>
      <trkpt lat="42.98205" lon="0.0089">
        <ele>1373.6</ele>
        <time>2013-11-29T13:07:44.152Z</time>
      </trkpt>
      <trkpt lat="42.98205" lon="0.0089">
        <ele>1374.3</ele>
        <time>2013-11-29T13:07:45.151Z</time>
      </trkpt>
      <trkpt lat="42.98204" lon="0.00879">
        <ele>1376.2</ele>
        <time>2013-11-29T13:08:02.859Z</time>
      </trkpt>
      <trkpt lat="42.98204" lon="0.00879">
        <ele>1376.2</ele>
        <time>2013-11-29T13:08:03.152Z</time>
      </trkpt>
      <trkpt lat="42.98205" lon="0.00879">
        <ele>1377.9</ele>
        <time>2013-11-29T13:08:08.152Z</time>
      </trkpt>
      <trkpt lat="42.98205" lon="0.00879">
        <ele>1377.9</ele>
        <time>2013-11-29T13:08:09.151Z</time>
      </trkpt>
      <trkpt lat="42.98211" lon="0.00871">
        <ele>1378.4</ele>
        <time>2013-11-29T13:08:17.882Z</time>
      </trkpt>
      <trkpt lat="42.98212" lon="0.00869">
        <ele>1378.5</ele>
        <time>2013-11-29T13:08:18.153Z</time>
      </trkpt>
      <trkpt lat="42.98213" lon="0.00865">
        <ele>1379.4</ele>
        <time>2013-11-29T13:08:25.150Z</time>
      </trkpt>
      <trkpt lat="42.98213" lon="0.00866">
        <ele>1379.4</ele>
        <time>2013-11-29T13:08:26.151Z</time>
      </trkpt>
      <trkpt lat="42.98212" lon="0.00865">
        <ele>1379.8</ele>
        <time>2013-11-29T13:08:30.152Z</time>
      </trkpt>
      <trkpt lat="42.98212" lon="0.00865">
        <ele>1379.8</ele>
        <time>2013-11-29T13:08:31.151Z</time>
      </trkpt>
      <trkpt lat="42.9821" lon="0.00853">
        <ele>1379.9</ele>
        <time>2013-11-29T13:08:46.150Z</time>
      </trkpt>
      <trkpt lat="42.9821" lon="0.00853">
        <ele>1379.9</ele>
        <time>2013-11-29T13:08:47.151Z</time>
      </trkpt>
      <trkpt lat="42.98203" lon="0.00848">
        <ele>1380.4</ele>
        <time>2013-11-29T13:08:55.150Z</time>
      </trkpt>
      <trkpt lat="42.98201" lon="0.00847">
        <ele>1380.4</ele>
        <time>2013-11-29T13:08:56.151Z</time>
      </trkpt>
      <trkpt lat="42.98193" lon="0.00844">
        <ele>1381.5</ele>
        <time>2013-11-29T13:09:05.151Z</time>
      </trkpt>
      <trkpt lat="42.98192" lon="0.00844">
        <ele>1381.7</ele>
        <time>2013-11-29T13:09:06.153Z</time>
      </trkpt>
      <trkpt lat="42.98184" lon="0.0084">
        <ele>1382.4</ele>
        <time>2013-11-29T13:09:14.151Z</time>
      </trkpt>
      <trkpt lat="42.98183" lon="0.00839">
        <ele>1382.5</ele>
        <time>2013-11-29T13:09:15.151Z</time>
      </trkpt>
      <trkpt lat="42.98177" lon="0.0083">
        <ele>1385.3</ele>
        <time>2013-11-29T13:09:27.887Z</time>
      </trkpt>
      <trkpt lat="42.98177" lon="0.0083">
        <ele>1385.4</ele>
        <time>2013-11-29T13:09:28.151Z</time>
      </trkpt>
      <trkpt lat="42.98182" lon="0.0082">
        <ele>1387.2</ele>
        <time>2013-11-29T13:09:43.150Z</time>
      </trkpt>
      <trkpt lat="42.98182" lon="0.00819">
        <ele>1387.5</ele>
        <time>2013-11-29T13:09:44.151Z</time>
      </trkpt>
      <trkpt lat="42.98175" lon="0.00814">
        <ele>1388.7</ele>
        <time>2013-11-29T13:09:50.151Z</time>
      </trkpt>
      <trkpt lat="42.98174" lon="0.00814">
        <ele>1388.8</ele>
        <time>2013-11-29T13:09:51.150Z</time>
      </trkpt>
      <trkpt lat="42.98165" lon="0.00813">
        <ele>1389.8</ele>
        <time>2013-11-29T13:09:57.941Z</time>
      </trkpt>
      <trkpt lat="42.98163" lon="0.00813">
        <ele>1389.9</ele>
        <time>2013-11-29T13:09:58.151Z</time>
      </trkpt>
      <trkpt lat="42.98156" lon="0.00812">
        <ele>1390.7</ele>
        <time>2013-11-29T13:10:07.863Z</time>
      </trkpt>
      <trkpt lat="42.98154" lon="0.00811">
        <ele>1390.8</ele>
        <time>2013-11-29T13:10:08.151Z</time>
      </trkpt>
      <trkpt lat="42.98148" lon="0.00809">
        <ele>1391</ele>
        <time>2013-11-29T13:10:12.869Z</time>
      </trkpt>
      <trkpt lat="42.98145" lon="0.00808">
        <ele>1391</ele>
        <time>2013-11-29T13:10:13.150Z</time>
      </trkpt>
      <trkpt lat="42.98139" lon="0.00806">
        <ele>1391</ele>
        <time>2013-11-29T13:10:15.195Z</time>
      </trkpt>
      <trkpt lat="42.98137" lon="0.00804">
        <ele>1391.1</ele>
        <time>2013-11-29T13:10:16.151Z</time>
      </trkpt>
      <trkpt lat="42.9813" lon="0.00797">
        <ele>1391.2</ele>
        <time>2013-11-29T13:10:19.150Z</time>
      </trkpt>
      <trkpt lat="42.98128" lon="0.00795">
        <ele>1391.2</ele>
        <time>2013-11-29T13:10:20.151Z</time>
      </trkpt>
      <trkpt lat="42.98122" lon="0.00786">
        <ele>1391.5</ele>
        <time>2013-11-29T13:10:28.150Z</time>
      </trkpt>
      <trkpt lat="42.98121" lon="0.00784">
        <ele>1391.5</ele>
        <time>2013-11-29T13:10:29.150Z</time>
      </trkpt>
      <trkpt lat="42.98115" lon="0.00777">
        <ele>1391.8</ele>
        <time>2013-11-29T13:10:35.150Z</time>
      </trkpt>
      <trkpt lat="42.98114" lon="0.00776">
        <ele>1391.7</ele>
        <time>2013-11-29T13:10:36.153Z</time>
      </trkpt>
      <trkpt lat="42.98106" lon="0.00769">
        <ele>1392</ele>
        <time>2013-11-29T13:10:42.909Z</time>
      </trkpt>
      <trkpt lat="42.98105" lon="0.00768">
        <ele>1392</ele>
        <time>2013-11-29T13:10:43.150Z</time>
      </trkpt>
      <trkpt lat="42.981" lon="0.00764">
        <ele>1391.5</ele>
        <time>2013-11-29T13:10:54.153Z</time>
      </trkpt>
      <trkpt lat="42.98101" lon="0.00764">
        <ele>1391.5</ele>
        <time>2013-11-29T13:10:55.150Z</time>
      </trkpt>
      <trkpt lat="42.98101" lon="0.00765">
        <ele>1391.5</ele>
        <time>2013-11-29T13:10:56.152Z</time>
      </trkpt>
      <trkpt lat="42.981" lon="0.00764">
        <ele>1391</ele>
        <time>2013-11-29T13:10:57.150Z</time>
      </trkpt>
      <trkpt lat="42.98093" lon="0.00755">
        <ele>1390.1</ele>
        <time>2013-11-29T13:11:09.150Z</time>
      </trkpt>
      <trkpt lat="42.98093" lon="0.00755">
        <ele>1390.1</ele>
        <time>2013-11-29T13:11:10.150Z</time>
      </trkpt>
      <trkpt lat="42.98085" lon="0.0075">
        <ele>1389.7</ele>
        <time>2013-11-29T13:11:20.151Z</time>
      </trkpt>
      <trkpt lat="42.98084" lon="0.0075">
        <ele>1389.7</ele>
        <time>2013-11-29T13:11:21.150Z</time>
      </trkpt>
      <trkpt lat="42.98079" lon="0.00745">
        <ele>1389.1</ele>
        <time>2013-11-29T13:11:34.150Z</time>
      </trkpt>
      <trkpt lat="42.98079" lon="0.00746">
        <ele>1389.1</ele>
        <time>2013-11-29T13:11:35.190Z</time>
      </trkpt>
      <trkpt lat="42.9808" lon="0.00746">
        <ele>1389.1</ele>
        <time>2013-11-29T13:11:46.150Z</time>
      </trkpt>
      <trkpt lat="42.98078" lon="0.00746">
        <ele>1389.2</ele>
        <time>2013-11-29T13:11:47.150Z</time>
      </trkpt>
      <trkpt lat="42.98072" lon="0.00748">
        <ele>1388.9</ele>
        <time>2013-11-29T13:11:57.976Z</time>
      </trkpt>
      <trkpt lat="42.98072" lon="0.00748">
        <ele>1388.9</ele>
        <time>2013-11-29T13:11:58.150Z</time>
      </trkpt>
      <trkpt lat="42.98072" lon="0.00747">
        <ele>1388.9</ele>
        <time>2013-11-29T13:12:00.153Z</time>
      </trkpt>
      <trkpt lat="42.98073" lon="0.00746">
        <ele>1388.8</ele>
        <time>2013-11-29T13:12:01.150Z</time>
      </trkpt>
      <trkpt lat="42.98075" lon="0.00736">
        <ele>1388.8</ele>
        <time>2013-11-29T13:12:18.152Z</time>
      </trkpt>
      <trkpt lat="42.98074" lon="0.00736">
        <ele>1388.8</ele>
        <time>2013-11-29T13:12:19.150Z</time>
      </trkpt>
      <trkpt lat="42.98075" lon="0.00735">
        <ele>1388.9</ele>
        <time>2013-11-29T13:12:20.151Z</time>
      </trkpt>
      <trkpt lat="42.98075" lon="0.00734">
        <ele>1388.9</ele>
        <time>2013-11-29T13:12:21.149Z</time>
      </trkpt>
      <trkpt lat="42.98077" lon="0.00723">
        <ele>1389.1</ele>
        <time>2013-11-29T13:12:31.150Z</time>
      </trkpt>
      <trkpt lat="42.98077" lon="0.00722">
        <ele>1389.1</ele>
        <time>2013-11-29T13:12:32.151Z</time>
      </trkpt>
      <trkpt lat="42.98079" lon="0.00716">
        <ele>1389.5</ele>
        <time>2013-11-29T13:12:42.907Z</time>
      </trkpt>
      <trkpt lat="42.98078" lon="0.00717">
        <ele>1390</ele>
        <time>2013-11-29T13:12:43.150Z</time>
      </trkpt>
      <trkpt lat="42.98077" lon="0.00718">
        <ele>1390</ele>
        <time>2013-11-29T13:12:44.151Z</time>
      </trkpt>
      <trkpt lat="42.98069" lon="0.00724">
        <ele>1389.9</ele>
        <time>2013-11-29T13:12:53.149Z</time>
      </trkpt>
      <trkpt lat="42.98069" lon="0.00724">
        <ele>1390</ele>
        <time>2013-11-29T13:12:54.176Z</time>
      </trkpt>
      <trkpt lat="42.98061" lon="0.0072">
        <ele>1390.9</ele>
        <time>2013-11-29T13:13:02.859Z</time>
      </trkpt>
      <trkpt lat="42.9806" lon="0.00719">
        <ele>1390.9</ele>
        <time>2013-11-29T13:13:03.151Z</time>
      </trkpt>
      <trkpt lat="42.98054" lon="0.0071">
        <ele>1391.5</ele>
        <time>2013-11-29T13:13:12.869Z</time>
      </trkpt>
      <trkpt lat="42.98054" lon="0.00709">
        <ele>1391.4</ele>
        <time>2013-11-29T13:13:13.150Z</time>
      </trkpt>
      <trkpt lat="42.98049" lon="0.00699">
        <ele>1391.9</ele>
        <time>2013-11-29T13:13:24.152Z</time>
      </trkpt>
      <trkpt lat="42.98049" lon="0.00698">
        <ele>1391.9</ele>
        <time>2013-11-29T13:13:25.150Z</time>
      </trkpt>
      <trkpt lat="42.98042" lon="0.00691">
        <ele>1391.7</ele>
        <time>2013-11-29T13:13:40.149Z</time>
      </trkpt>
      <trkpt lat="42.98041" lon="0.00691">
        <ele>1391.8</ele>
        <time>2013-11-29T13:13:41.149Z</time>
      </trkpt>
      <trkpt lat="42.98034" lon="0.00683">
        <ele>1392.4</ele>
        <time>2013-11-29T13:13:50.151Z</time>
      </trkpt>
      <trkpt lat="42.98034" lon="0.00683">
        <ele>1392.5</ele>
        <time>2013-11-29T13:13:51.149Z</time>
      </trkpt>
      <trkpt lat="42.98027" lon="0.00676">
        <ele>1392.4</ele>
        <time>2013-11-29T13:13:59.149Z</time>
      </trkpt>
      <trkpt lat="42.98026" lon="0.00675">
        <ele>1392.5</ele>
        <time>2013-11-29T13:14:00.152Z</time>
      </trkpt>
      <trkpt lat="42.98018" lon="0.00671">
        <ele>1392.8</ele>
        <time>2013-11-29T13:14:13.150Z</time>
      </trkpt>
      <trkpt lat="42.98017" lon="0.00671">
        <ele>1392.8</ele>
        <time>2013-11-29T13:14:14.150Z</time>
      </trkpt>
      <trkpt lat="42.9801" lon="0.00664">
        <ele>1394.4</ele>
        <time>2013-11-29T13:14:26.151Z</time>
      </trkpt>
      <trkpt lat="42.9801" lon="0.00663">
        <ele>1394.4</ele>
        <time>2013-11-29T13:14:27.149Z</time>
      </trkpt>
      <trkpt lat="42.98002" lon="0.00658">
        <ele>1395.9</ele>
        <time>2013-11-29T13:14:41.149Z</time>
      </trkpt>
      <trkpt lat="42.98002" lon="0.00657">
        <ele>1396</ele>
        <time>2013-11-29T13:14:42.153Z</time>
      </trkpt>
      <trkpt lat="42.97994" lon="0.00654">
        <ele>1397.3</ele>
        <time>2013-11-29T13:14:57.948Z</time>
      </trkpt>
      <trkpt lat="42.97993" lon="0.00653">
        <ele>1397.5</ele>
        <time>2013-11-29T13:14:58.149Z</time>
      </trkpt>
      <trkpt lat="42.97985" lon="0.00648">
        <ele>1398.8</ele>
        <time>2013-11-29T13:15:12.868Z</time>
      </trkpt>
      <trkpt lat="42.97985" lon="0.00648">
        <ele>1398.8</ele>
        <time>2013-11-29T13:15:13.149Z</time>
      </trkpt>
      <trkpt lat="42.97977" lon="0.00642">
        <ele>1400.4</ele>
        <time>2013-11-29T13:15:31.149Z</time>
      </trkpt>
      <trkpt lat="42.97977" lon="0.00641">
        <ele>1400.4</ele>
        <time>2013-11-29T13:15:32.235Z</time>
      </trkpt>
      <trkpt lat="42.97974" lon="0.00638">
        <ele>1401.6</ele>
        <time>2013-11-29T13:15:42.910Z</time>
      </trkpt>
      <trkpt lat="42.97974" lon="0.00638">
        <ele>1401.6</ele>
        <time>2013-11-29T13:15:43.149Z</time>
      </trkpt>
      <trkpt lat="42.97974" lon="0.00638">
        <ele>1401.6</ele>
        <time>2013-11-29T13:15:46.149Z</time>
      </trkpt>
      <trkpt lat="42.97975" lon="0.00636">
        <ele>1402.5</ele>
        <time>2013-11-29T13:15:47.149Z</time>
      </trkpt>
      <trkpt lat="42.97979" lon="0.00626">
        <ele>1403.1</ele>
        <time>2013-11-29T13:15:58.149Z</time>
      </trkpt>
      <trkpt lat="42.9798" lon="0.00625">
        <ele>1403.2</ele>
        <time>2013-11-29T13:15:59.149Z</time>
      </trkpt>
      <trkpt lat="42.97971" lon="0.00625">
        <ele>1404.3</ele>
        <time>2013-11-29T13:16:22.921Z</time>
      </trkpt>
      <trkpt lat="42.97971" lon="0.00624">
        <ele>1404.4</ele>
        <time>2013-11-29T13:16:23.148Z</time>
      </trkpt>
      <trkpt lat="42.97964" lon="0.00616">
        <ele>1405.2</ele>
        <time>2013-11-29T13:16:40.149Z</time>
      </trkpt>
      <trkpt lat="42.97964" lon="0.00615">
        <ele>1405.3</ele>
        <time>2013-11-29T13:16:41.149Z</time>
      </trkpt>
      <trkpt lat="42.97955" lon="0.00611">
        <ele>1406.5</ele>
        <time>2013-11-29T13:17:03.150Z</time>
      </trkpt>
      <trkpt lat="42.97955" lon="0.0061">
        <ele>1406.5</ele>
        <time>2013-11-29T13:17:04.148Z</time>
      </trkpt>
      <trkpt lat="42.97952" lon="0.00606">
        <ele>1407</ele>
        <time>2013-11-29T13:17:16.149Z</time>
      </trkpt>
      <trkpt lat="42.97952" lon="0.00606">
        <ele>1407</ele>
        <time>2013-11-29T13:17:17.149Z</time>
      </trkpt>
      <trkpt lat="42.97952" lon="0.00606">
        <ele>1407</ele>
        <time>2013-11-29T13:17:21.149Z</time>
      </trkpt>
      <trkpt lat="42.97951" lon="0.00604">
        <ele>1407.4</ele>
        <time>2013-11-29T13:17:22.161Z</time>
      </trkpt>
      <trkpt lat="42.97949" lon="0.00594">
        <ele>1407.9</ele>
        <time>2013-11-29T13:17:28.149Z</time>
      </trkpt>
      <trkpt lat="42.97948" lon="0.00592">
        <ele>1408.4</ele>
        <time>2013-11-29T13:17:29.148Z</time>
      </trkpt>
      <trkpt lat="42.97941" lon="0.00583">
        <ele>1409.9</ele>
        <time>2013-11-29T13:17:41.148Z</time>
      </trkpt>
      <trkpt lat="42.97941" lon="0.00583">
        <ele>1410</ele>
        <time>2013-11-29T13:17:42.151Z</time>
      </trkpt>
      <trkpt lat="42.97946" lon="0.00575">
        <ele>1411</ele>
        <time>2013-11-29T13:17:50.149Z</time>
      </trkpt>
      <trkpt lat="42.97947" lon="0.00573">
        <ele>1411.1</ele>
        <time>2013-11-29T13:17:51.149Z</time>
      </trkpt>
      <trkpt lat="42.97939" lon="0.0057">
        <ele>1413.5</ele>
        <time>2013-11-29T13:18:07.871Z</time>
      </trkpt>
      <trkpt lat="42.97938" lon="0.0057">
        <ele>1413.6</ele>
        <time>2013-11-29T13:18:08.149Z</time>
      </trkpt>
      <trkpt lat="42.97929" lon="0.0057">
        <ele>1414.1</ele>
        <time>2013-11-29T13:18:18.151Z</time>
      </trkpt>
      <trkpt lat="42.97929" lon="0.00569">
        <ele>1414.1</ele>
        <time>2013-11-29T13:18:19.148Z</time>
      </trkpt>
      <trkpt lat="42.9792" lon="0.00568">
        <ele>1415.2</ele>
        <time>2013-11-29T13:18:33.148Z</time>
      </trkpt>
      <trkpt lat="42.97919" lon="0.00568">
        <ele>1415.3</ele>
        <time>2013-11-29T13:18:34.148Z</time>
      </trkpt>
      <trkpt lat="42.97911" lon="0.00563">
        <ele>1416</ele>
        <time>2013-11-29T13:18:51.148Z</time>
      </trkpt>
      <trkpt lat="42.97911" lon="0.00563">
        <ele>1416.1</ele>
        <time>2013-11-29T13:18:52.148Z</time>
      </trkpt>
      <trkpt lat="42.97908" lon="0.00561">
        <ele>1416.6</ele>
        <time>2013-11-29T13:18:59.148Z</time>
      </trkpt>
      <trkpt lat="42.97908" lon="0.00561">
        <ele>1417.6</ele>
        <time>2013-11-29T13:19:00.151Z</time>
      </trkpt>
      <trkpt lat="42.97909" lon="0.00561">
        <ele>1418.6</ele>
        <time>2013-11-29T13:19:03.205Z</time>
      </trkpt>
      <trkpt lat="42.97909" lon="0.0056">
        <ele>1418.8</ele>
        <time>2013-11-29T13:19:04.148Z</time>
      </trkpt>
      <trkpt lat="42.97912" lon="0.0056">
        <ele>1420.2</ele>
        <time>2013-11-29T13:19:11.148Z</time>
      </trkpt>
      <trkpt lat="42.97911" lon="0.00561">
        <ele>1420.4</ele>
        <time>2013-11-29T13:19:12.151Z</time>
      </trkpt>
      <trkpt lat="42.97911" lon="0.00561">
        <ele>1420.5</ele>
        <time>2013-11-29T13:19:13.148Z</time>
      </trkpt>
      <trkpt lat="42.97911" lon="0.00562">
        <ele>1420.5</ele>
        <time>2013-11-29T13:19:14.149Z</time>
      </trkpt>
      <trkpt lat="42.97911" lon="0.00563">
        <ele>1420.5</ele>
        <time>2013-11-29T13:19:16.148Z</time>
      </trkpt>
      <trkpt lat="42.9791" lon="0.00563">
        <ele>1420.5</ele>
        <time>2013-11-29T13:19:17.148Z</time>
      </trkpt>
      <trkpt lat="42.9791" lon="0.00563">
        <ele>1420.5</ele>
        <time>2013-11-29T13:19:19.148Z</time>
      </trkpt>
      <trkpt lat="42.97911" lon="0.00561">
        <ele>1420.8</ele>
        <time>2013-11-29T13:19:20.149Z</time>
      </trkpt>
      <trkpt lat="42.97912" lon="0.0055">
        <ele>1421.3</ele>
        <time>2013-11-29T13:19:34.148Z</time>
      </trkpt>
      <trkpt lat="42.97912" lon="0.0055">
        <ele>1421.3</ele>
        <time>2013-11-29T13:19:35.148Z</time>
      </trkpt>
      <trkpt lat="42.97912" lon="0.0055">
        <ele>1421.3</ele>
        <time>2013-11-29T13:19:39.148Z</time>
      </trkpt>
      <trkpt lat="42.97912" lon="0.00549">
        <ele>1421.7</ele>
        <time>2013-11-29T13:19:40.148Z</time>
      </trkpt>
      <trkpt lat="42.97915" lon="0.00544">
        <ele>1421.9</ele>
        <time>2013-11-29T13:19:49.148Z</time>
      </trkpt>
      <trkpt lat="42.97914" lon="0.00544">
        <ele>1421.9</ele>
        <time>2013-11-29T13:19:50.149Z</time>
      </trkpt>
      <trkpt lat="42.97914" lon="0.00545">
        <ele>1421.9</ele>
        <time>2013-11-29T13:19:54.150Z</time>
      </trkpt>
      <trkpt lat="42.97915" lon="0.00543">
        <ele>1423.2</ele>
        <time>2013-11-29T13:19:55.148Z</time>
      </trkpt>
      <trkpt lat="42.97915" lon="0.0054">
        <ele>1424.4</ele>
        <time>2013-11-29T13:19:59.148Z</time>
      </trkpt>
      <trkpt lat="42.97915" lon="0.00541">
        <ele>1424.4</ele>
        <time>2013-11-29T13:20:00.151Z</time>
      </trkpt>
      <trkpt lat="42.97915" lon="0.00542">
        <ele>1424.4</ele>
        <time>2013-11-29T13:20:31.148Z</time>
      </trkpt>
      <trkpt lat="42.97915" lon="0.00544">
        <ele>1424.9</ele>
        <time>2013-11-29T13:20:32.149Z</time>
      </trkpt>
      <trkpt lat="42.97917" lon="0.00549">
        <ele>1425.7</ele>
        <time>2013-11-29T13:20:43.147Z</time>
      </trkpt>
      <trkpt lat="42.97917" lon="0.00549">
        <ele>1426</ele>
        <time>2013-11-29T13:20:44.148Z</time>
      </trkpt>
      <trkpt lat="42.97916" lon="0.00548">
        <ele>1425.9</ele>
        <time>2013-11-29T13:20:53.148Z</time>
      </trkpt>
      <trkpt lat="42.97916" lon="0.00543">
        <ele>1426.7</ele>
        <time>2013-11-29T13:20:54.150Z</time>
      </trkpt>
      <trkpt lat="42.97913" lon="0.00533">
        <ele>1427.3</ele>
        <time>2013-11-29T13:20:59.148Z</time>
      </trkpt>
      <trkpt lat="42.97912" lon="0.00532">
        <ele>1427.5</ele>
        <time>2013-11-29T13:21:00.151Z</time>
      </trkpt>
      <trkpt lat="42.97908" lon="0.00523">
        <ele>1428.8</ele>
        <time>2013-11-29T13:21:20.148Z</time>
      </trkpt>
      <trkpt lat="42.97908" lon="0.00523">
        <ele>1428.8</ele>
        <time>2013-11-29T13:21:21.147Z</time>
      </trkpt>
      <trkpt lat="42.97907" lon="0.00524">
        <ele>1428.8</ele>
        <time>2013-11-29T13:21:31.147Z</time>
      </trkpt>
      <trkpt lat="42.97906" lon="0.00524">
        <ele>1429</ele>
        <time>2013-11-29T13:21:32.148Z</time>
      </trkpt>
      <trkpt lat="42.97901" lon="0.00515">
        <ele>1429.4</ele>
        <time>2013-11-29T13:21:45.147Z</time>
      </trkpt>
      <trkpt lat="42.97901" lon="0.00514">
        <ele>1429.4</ele>
        <time>2013-11-29T13:21:46.147Z</time>
      </trkpt>
      <trkpt lat="42.97894" lon="0.00505">
        <ele>1429.3</ele>
        <time>2013-11-29T13:21:57.949Z</time>
      </trkpt>
      <trkpt lat="42.97894" lon="0.00505">
        <ele>1429.3</ele>
        <time>2013-11-29T13:21:58.147Z</time>
      </trkpt>
      <trkpt lat="42.97886" lon="0.00498">
        <ele>1429.9</ele>
        <time>2013-11-29T13:22:06.151Z</time>
      </trkpt>
      <trkpt lat="42.97886" lon="0.00497">
        <ele>1429.9</ele>
        <time>2013-11-29T13:22:07.147Z</time>
      </trkpt>
      <trkpt lat="42.9788" lon="0.00489">
        <ele>1431</ele>
        <time>2013-11-29T13:22:17.885Z</time>
      </trkpt>
      <trkpt lat="42.97879" lon="0.00488">
        <ele>1431</ele>
        <time>2013-11-29T13:22:18.151Z</time>
      </trkpt>
      <trkpt lat="42.97872" lon="0.00481">
        <ele>1432.1</ele>
        <time>2013-11-29T13:22:28.147Z</time>
      </trkpt>
      <trkpt lat="42.97872" lon="0.00481">
        <ele>1432.1</ele>
        <time>2013-11-29T13:22:29.147Z</time>
      </trkpt>
      <trkpt lat="42.97865" lon="0.00474">
        <ele>1433.8</ele>
        <time>2013-11-29T13:22:49.147Z</time>
      </trkpt>
      <trkpt lat="42.97864" lon="0.00474">
        <ele>1433.9</ele>
        <time>2013-11-29T13:22:50.148Z</time>
      </trkpt>
      <trkpt lat="42.97856" lon="0.00474">
        <ele>1434.8</ele>
        <time>2013-11-29T13:23:03.150Z</time>
      </trkpt>
      <trkpt lat="42.97855" lon="0.00475">
        <ele>1435</ele>
        <time>2013-11-29T13:23:04.147Z</time>
      </trkpt>
      <trkpt lat="42.97848" lon="0.0047">
        <ele>1436.2</ele>
        <time>2013-11-29T13:23:13.147Z</time>
      </trkpt>
      <trkpt lat="42.97847" lon="0.00468">
        <ele>1436.3</ele>
        <time>2013-11-29T13:23:14.148Z</time>
      </trkpt>
      <trkpt lat="42.9784" lon="0.00461">
        <ele>1438</ele>
        <time>2013-11-29T13:23:22.905Z</time>
      </trkpt>
      <trkpt lat="42.97839" lon="0.0046">
        <ele>1438.1</ele>
        <time>2013-11-29T13:23:23.147Z</time>
      </trkpt>
      <trkpt lat="42.97833" lon="0.00451">
        <ele>1440.2</ele>
        <time>2013-11-29T13:23:35.147Z</time>
      </trkpt>
      <trkpt lat="42.97833" lon="0.00451">
        <ele>1440.3</ele>
        <time>2013-11-29T13:23:36.150Z</time>
      </trkpt>
      <trkpt lat="42.97824" lon="0.0045">
        <ele>1443.5</ele>
        <time>2013-11-29T13:23:53.147Z</time>
      </trkpt>
      <trkpt lat="42.97824" lon="0.00451">
        <ele>1443.5</ele>
        <time>2013-11-29T13:23:54.149Z</time>
      </trkpt>
      <trkpt lat="42.97815" lon="0.00449">
        <ele>1445.7</ele>
        <time>2013-11-29T13:24:03.149Z</time>
      </trkpt>
      <trkpt lat="42.97814" lon="0.00448">
        <ele>1445.9</ele>
        <time>2013-11-29T13:24:04.147Z</time>
      </trkpt>
      <trkpt lat="42.97807" lon="0.00441">
        <ele>1447.7</ele>
        <time>2013-11-29T13:24:14.148Z</time>
      </trkpt>
      <trkpt lat="42.97807" lon="0.0044">
        <ele>1447.9</ele>
        <time>2013-11-29T13:24:15.147Z</time>
      </trkpt>
      <trkpt lat="42.978" lon="0.00433">
        <ele>1450.2</ele>
        <time>2013-11-29T13:24:28.147Z</time>
      </trkpt>
      <trkpt lat="42.978" lon="0.00433">
        <ele>1450.4</ele>
        <time>2013-11-29T13:24:29.147Z</time>
      </trkpt>
      <trkpt lat="42.97791" lon="0.00428">
        <ele>1452.3</ele>
        <time>2013-11-29T13:24:43.147Z</time>
      </trkpt>
      <trkpt lat="42.97791" lon="0.00429">
        <ele>1452.4</ele>
        <time>2013-11-29T13:24:44.148Z</time>
      </trkpt>
      <trkpt lat="42.97783" lon="0.00423">
        <ele>1453.8</ele>
        <time>2013-11-29T13:24:54.150Z</time>
      </trkpt>
      <trkpt lat="42.97782" lon="0.00421">
        <ele>1453.9</ele>
        <time>2013-11-29T13:24:55.147Z</time>
      </trkpt>
      <trkpt lat="42.9778" lon="0.00411">
        <ele>1455.2</ele>
        <time>2013-11-29T13:25:04.147Z</time>
      </trkpt>
      <trkpt lat="42.97779" lon="0.00409">
        <ele>1455.4</ele>
        <time>2013-11-29T13:25:05.147Z</time>
      </trkpt>
      <trkpt lat="42.97774" lon="0.00401">
        <ele>1456.4</ele>
        <time>2013-11-29T13:25:12.881Z</time>
      </trkpt>
      <trkpt lat="42.97773" lon="0.00401">
        <ele>1456.4</ele>
        <time>2013-11-29T13:25:13.147Z</time>
      </trkpt>
      <trkpt lat="42.97766" lon="0.00395">
        <ele>1457.5</ele>
        <time>2013-11-29T13:25:21.147Z</time>
      </trkpt>
      <trkpt lat="42.97766" lon="0.00393">
        <ele>1457.5</ele>
        <time>2013-11-29T13:25:22.193Z</time>
      </trkpt>
      <trkpt lat="42.97762" lon="0.00382">
        <ele>1459.5</ele>
        <time>2013-11-29T13:25:33.147Z</time>
      </trkpt>
      <trkpt lat="42.97761" lon="0.00382">
        <ele>1459.7</ele>
        <time>2013-11-29T13:25:34.147Z</time>
      </trkpt>
      <trkpt lat="42.97755" lon="0.00373">
        <ele>1462.6</ele>
        <time>2013-11-29T13:25:45.147Z</time>
      </trkpt>
      <trkpt lat="42.97754" lon="0.00372">
        <ele>1462.7</ele>
        <time>2013-11-29T13:25:46.147Z</time>
      </trkpt>
      <trkpt lat="42.97748" lon="0.00364">
        <ele>1464.9</ele>
        <time>2013-11-29T13:26:00.150Z</time>
      </trkpt>
      <trkpt lat="42.97748" lon="0.00363">
        <ele>1464.9</ele>
        <time>2013-11-29T13:26:01.147Z</time>
      </trkpt>
      <trkpt lat="42.97741" lon="0.00355">
        <ele>1466.2</ele>
        <time>2013-11-29T13:26:13.147Z</time>
      </trkpt>
      <trkpt lat="42.97741" lon="0.00354">
        <ele>1466.4</ele>
        <time>2013-11-29T13:26:14.148Z</time>
      </trkpt>
      <trkpt lat="42.97734" lon="0.00347">
        <ele>1469.8</ele>
        <time>2013-11-29T13:26:38.040Z</time>
      </trkpt>
      <trkpt lat="42.97733" lon="0.00346">
        <ele>1470</ele>
        <time>2013-11-29T13:26:38.148Z</time>
      </trkpt>
      <trkpt lat="42.97728" lon="0.00338">
        <ele>1472</ele>
        <time>2013-11-29T13:26:54.149Z</time>
      </trkpt>
      <trkpt lat="42.97727" lon="0.00337">
        <ele>1472.2</ele>
        <time>2013-11-29T13:26:55.147Z</time>
      </trkpt>
      <trkpt lat="42.9772" lon="0.00331">
        <ele>1473.8</ele>
        <time>2013-11-29T13:27:10.147Z</time>
      </trkpt>
      <trkpt lat="42.97719" lon="0.00331">
        <ele>1473.9</ele>
        <time>2013-11-29T13:27:11.147Z</time>
      </trkpt>
      <trkpt lat="42.97712" lon="0.00325">
        <ele>1475.9</ele>
        <time>2013-11-29T13:27:28.146Z</time>
      </trkpt>
      <trkpt lat="42.97711" lon="0.00325">
        <ele>1476</ele>
        <time>2013-11-29T13:27:29.146Z</time>
      </trkpt>
      <trkpt lat="42.97702" lon="0.00327">
        <ele>1478.2</ele>
        <time>2013-11-29T13:27:44.147Z</time>
      </trkpt>
      <trkpt lat="42.97702" lon="0.00327">
        <ele>1478.3</ele>
        <time>2013-11-29T13:27:45.147Z</time>
      </trkpt>
      <trkpt lat="42.97693" lon="0.00326">
        <ele>1480.2</ele>
        <time>2013-11-29T13:28:00.149Z</time>
      </trkpt>
      <trkpt lat="42.97692" lon="0.00326">
        <ele>1480.4</ele>
        <time>2013-11-29T13:28:01.146Z</time>
      </trkpt>
      <trkpt lat="42.97689" lon="0.00326">
        <ele>1481.3</ele>
        <time>2013-11-29T13:28:09.146Z</time>
      </trkpt>
      <trkpt lat="42.97689" lon="0.00326">
        <ele>1481.3</ele>
        <time>2013-11-29T13:28:10.146Z</time>
      </trkpt>
      <trkpt lat="42.97689" lon="0.00326">
        <ele>1481.3</ele>
        <time>2013-11-29T13:28:14.147Z</time>
      </trkpt>
      <trkpt lat="42.97688" lon="0.00326">
        <ele>1481.4</ele>
        <time>2013-11-29T13:28:15.146Z</time>
      </trkpt>
      <trkpt lat="42.97684" lon="0.00323">
        <ele>1481.8</ele>
        <time>2013-11-29T13:28:25.146Z</time>
      </trkpt>
      <trkpt lat="42.97684" lon="0.00323">
        <ele>1481.9</ele>
        <time>2013-11-29T13:28:26.147Z</time>
      </trkpt>
      <trkpt lat="42.97685" lon="0.00324">
        <ele>1481.9</ele>
        <time>2013-11-29T13:28:40.146Z</time>
      </trkpt>
      <trkpt lat="42.97684" lon="0.00322">
        <ele>1481.9</ele>
        <time>2013-11-29T13:28:41.146Z</time>
      </trkpt>
      <trkpt lat="42.97683" lon="0.00318">
        <ele>1481.7</ele>
        <time>2013-11-29T13:28:46.146Z</time>
      </trkpt>
      <trkpt lat="42.97683" lon="0.00319">
        <ele>1481.7</ele>
        <time>2013-11-29T13:28:47.146Z</time>
      </trkpt>
      <trkpt lat="42.97683" lon="0.0032">
        <ele>1481.7</ele>
        <time>2013-11-29T13:28:48.149Z</time>
      </trkpt>
      <trkpt lat="42.97683" lon="0.0032">
        <ele>1481.7</ele>
        <time>2013-11-29T13:28:49.146Z</time>
      </trkpt>
      <trkpt lat="42.97684" lon="0.0032">
        <ele>1481.7</ele>
        <time>2013-11-29T13:28:50.147Z</time>
      </trkpt>
      <trkpt lat="42.97684" lon="0.0032">
        <ele>1481.7</ele>
        <time>2013-11-29T13:28:51.146Z</time>
      </trkpt>
      <trkpt lat="42.97684" lon="0.0032">
        <ele>1481.7</ele>
        <time>2013-11-29T13:32:41.145Z</time>
      </trkpt>
      <trkpt lat="42.97681" lon="0.00321">
        <ele>1481.7</ele>
        <time>2013-11-29T13:32:42.148Z</time>
      </trkpt>
      <trkpt lat="42.97674" lon="0.00316">
        <ele>1481.9</ele>
        <time>2013-11-29T13:32:52.977Z</time>
      </trkpt>
      <trkpt lat="42.97673" lon="0.00315">
        <ele>1481.9</ele>
        <time>2013-11-29T13:32:53.145Z</time>
      </trkpt>
      <trkpt lat="42.97667" lon="0.00309">
        <ele>1482.2</ele>
        <time>2013-11-29T13:33:07.881Z</time>
      </trkpt>
      <trkpt lat="42.97666" lon="0.00308">
        <ele>1482.2</ele>
        <time>2013-11-29T13:33:08.147Z</time>
      </trkpt>
      <trkpt lat="42.9766" lon="0.003">
        <ele>1482.3</ele>
        <time>2013-11-29T13:33:18.148Z</time>
      </trkpt>
      <trkpt lat="42.97659" lon="0.00299">
        <ele>1482.3</ele>
        <time>2013-11-29T13:33:19.145Z</time>
      </trkpt>
      <trkpt lat="42.97654" lon="0.0029">
        <ele>1482.2</ele>
        <time>2013-11-29T13:33:28.145Z</time>
      </trkpt>
      <trkpt lat="42.97653" lon="0.00289">
        <ele>1482.2</ele>
        <time>2013-11-29T13:33:29.145Z</time>
      </trkpt>
      <trkpt lat="42.97648" lon="0.00281">
        <ele>1482.3</ele>
        <time>2013-11-29T13:33:39.145Z</time>
      </trkpt>
      <trkpt lat="42.97647" lon="0.0028">
        <ele>1482.3</ele>
        <time>2013-11-29T13:33:40.145Z</time>
      </trkpt>
      <trkpt lat="42.97642" lon="0.00269">
        <ele>1482.5</ele>
        <time>2013-11-29T13:33:49.145Z</time>
      </trkpt>
      <trkpt lat="42.97642" lon="0.00268">
        <ele>1482.5</ele>
        <time>2013-11-29T13:33:50.146Z</time>
      </trkpt>
      <trkpt lat="42.97637" lon="0.00258">
        <ele>1482.9</ele>
        <time>2013-11-29T13:34:01.145Z</time>
      </trkpt>
      <trkpt lat="42.97636" lon="0.00257">
        <ele>1482.9</ele>
        <time>2013-11-29T13:34:02.146Z</time>
      </trkpt>
      <trkpt lat="42.97629" lon="0.00251">
        <ele>1483.2</ele>
        <time>2013-11-29T13:34:12.888Z</time>
      </trkpt>
      <trkpt lat="42.97628" lon="0.0025">
        <ele>1483.2</ele>
        <time>2013-11-29T13:34:13.145Z</time>
      </trkpt>
      <trkpt lat="42.97621" lon="0.00244">
        <ele>1483.7</ele>
        <time>2013-11-29T13:34:23.145Z</time>
      </trkpt>
      <trkpt lat="42.9762" lon="0.00243">
        <ele>1483.7</ele>
        <time>2013-11-29T13:34:24.148Z</time>
      </trkpt>
      <trkpt lat="42.97613" lon="0.00236">
        <ele>1484</ele>
        <time>2013-11-29T13:34:35.145Z</time>
      </trkpt>
      <trkpt lat="42.97613" lon="0.00235">
        <ele>1484.1</ele>
        <time>2013-11-29T13:34:36.148Z</time>
      </trkpt>
      <trkpt lat="42.97606" lon="0.00227">
        <ele>1484.4</ele>
        <time>2013-11-29T13:34:46.145Z</time>
      </trkpt>
      <trkpt lat="42.97605" lon="0.00225">
        <ele>1484.4</ele>
        <time>2013-11-29T13:34:47.198Z</time>
      </trkpt>
      <trkpt lat="42.97599" lon="0.00217">
        <ele>1485.2</ele>
        <time>2013-11-29T13:34:59.145Z</time>
      </trkpt>
      <trkpt lat="42.97598" lon="0.00217">
        <ele>1485.2</ele>
        <time>2013-11-29T13:35:00.148Z</time>
      </trkpt>
      <trkpt lat="42.9759" lon="0.00214">
        <ele>1486.1</ele>
        <time>2013-11-29T13:35:13.145Z</time>
      </trkpt>
      <trkpt lat="42.9759" lon="0.00213">
        <ele>1486.3</ele>
        <time>2013-11-29T13:35:14.146Z</time>
      </trkpt>
      <trkpt lat="42.97584" lon="0.00205">
        <ele>1487.8</ele>
        <time>2013-11-29T13:35:28.144Z</time>
      </trkpt>
      <trkpt lat="42.97583" lon="0.00204">
        <ele>1488</ele>
        <time>2013-11-29T13:35:29.145Z</time>
      </trkpt>
      <trkpt lat="42.97577" lon="0.00196">
        <ele>1488.9</ele>
        <time>2013-11-29T13:35:42.926Z</time>
      </trkpt>
      <trkpt lat="42.97576" lon="0.00196">
        <ele>1489</ele>
        <time>2013-11-29T13:35:43.144Z</time>
      </trkpt>
      <trkpt lat="42.97569" lon="0.00189">
        <ele>1490.3</ele>
        <time>2013-11-29T13:35:54.148Z</time>
      </trkpt>
      <trkpt lat="42.97568" lon="0.00189">
        <ele>1490.4</ele>
        <time>2013-11-29T13:35:55.144Z</time>
      </trkpt>
      <trkpt lat="42.97563" lon="0.00179">
        <ele>1492.5</ele>
        <time>2013-11-29T13:36:10.144Z</time>
      </trkpt>
      <trkpt lat="42.97562" lon="0.00179">
        <ele>1492.5</ele>
        <time>2013-11-29T13:36:11.144Z</time>
      </trkpt>
      <trkpt lat="42.97556" lon="0.00171">
        <ele>1493.9</ele>
        <time>2013-11-29T13:36:25.144Z</time>
      </trkpt>
      <trkpt lat="42.97555" lon="0.0017">
        <ele>1494</ele>
        <time>2013-11-29T13:36:26.145Z</time>
      </trkpt>
      <trkpt lat="42.97547" lon="0.00164">
        <ele>1495.4</ele>
        <time>2013-11-29T13:36:42.973Z</time>
      </trkpt>
      <trkpt lat="42.97547" lon="0.00164">
        <ele>1495.5</ele>
        <time>2013-11-29T13:36:43.144Z</time>
      </trkpt>
      <trkpt lat="42.97539" lon="0.00159">
        <ele>1496.8</ele>
        <time>2013-11-29T13:36:58.144Z</time>
      </trkpt>
      <trkpt lat="42.97538" lon="0.00158">
        <ele>1496.9</ele>
        <time>2013-11-29T13:36:59.144Z</time>
      </trkpt>
      <trkpt lat="42.97531" lon="0.00151">
        <ele>1498</ele>
        <time>2013-11-29T13:37:12.890Z</time>
      </trkpt>
      <trkpt lat="42.9753" lon="0.00151">
        <ele>1498.1</ele>
        <time>2013-11-29T13:37:13.144Z</time>
      </trkpt>
      <trkpt lat="42.97528" lon="0.00149">
        <ele>1498.7</ele>
        <time>2013-11-29T13:37:20.145Z</time>
      </trkpt>
      <trkpt lat="42.97528" lon="0.00149">
        <ele>1498.8</ele>
        <time>2013-11-29T13:37:21.144Z</time>
      </trkpt>
      <trkpt lat="42.97528" lon="0.00149">
        <ele>1499</ele>
        <time>2013-11-29T13:37:23.144Z</time>
      </trkpt>
      <trkpt lat="42.97527" lon="0.00149">
        <ele>1499</ele>
        <time>2013-11-29T13:37:24.195Z</time>
      </trkpt>
      <trkpt lat="42.9752" lon="0.00142">
        <ele>1499.9</ele>
        <time>2013-11-29T13:37:38.145Z</time>
      </trkpt>
      <trkpt lat="42.97519" lon="0.00142">
        <ele>1500</ele>
        <time>2013-11-29T13:37:39.144Z</time>
      </trkpt>
      <trkpt lat="42.97514" lon="0.00132">
        <ele>1501</ele>
        <time>2013-11-29T13:37:49.144Z</time>
      </trkpt>
      <trkpt lat="42.97513" lon="0.00131">
        <ele>1501.1</ele>
        <time>2013-11-29T13:37:50.145Z</time>
      </trkpt>
      <trkpt lat="42.97509" lon="0.00121">
        <ele>1503.2</ele>
        <time>2013-11-29T13:38:09.144Z</time>
      </trkpt>
      <trkpt lat="42.97508" lon="0.00121">
        <ele>1503.3</ele>
        <time>2013-11-29T13:38:10.144Z</time>
      </trkpt>
      <trkpt lat="42.97501" lon="0.00114">
        <ele>1505.2</ele>
        <time>2013-11-29T13:38:28.144Z</time>
      </trkpt>
      <trkpt lat="42.97501" lon="0.00114">
        <ele>1505.3</ele>
        <time>2013-11-29T13:38:29.144Z</time>
      </trkpt>
      <trkpt lat="42.97492" lon="0.0011">
        <ele>1506.9</ele>
        <time>2013-11-29T13:38:45.144Z</time>
      </trkpt>
      <trkpt lat="42.97492" lon="0.00109">
        <ele>1507</ele>
        <time>2013-11-29T13:38:46.144Z</time>
      </trkpt>
      <trkpt lat="42.97485" lon="0.00102">
        <ele>1508</ele>
        <time>2013-11-29T13:38:59.143Z</time>
      </trkpt>
      <trkpt lat="42.97485" lon="0.00101">
        <ele>1508.1</ele>
        <time>2013-11-29T13:39:00.146Z</time>
      </trkpt>
      <trkpt lat="42.97479" lon="0.00094">
        <ele>1509.2</ele>
        <time>2013-11-29T13:39:12.896Z</time>
      </trkpt>
      <trkpt lat="42.97478" lon="0.00093">
        <ele>1509.3</ele>
        <time>2013-11-29T13:39:13.144Z</time>
      </trkpt>
      <trkpt lat="42.97473" lon="0.00083">
        <ele>1511.5</ele>
        <time>2013-11-29T13:39:30.147Z</time>
      </trkpt>
      <trkpt lat="42.97473" lon="0.00082">
        <ele>1511.7</ele>
        <time>2013-11-29T13:39:31.144Z</time>
      </trkpt>
      <trkpt lat="42.97468" lon="0.00073">
        <ele>1514.2</ele>
        <time>2013-11-29T13:39:46.143Z</time>
      </trkpt>
      <trkpt lat="42.97467" lon="0.00072">
        <ele>1514.3</ele>
        <time>2013-11-29T13:39:47.143Z</time>
      </trkpt>
      <trkpt lat="42.9746" lon="0.00066">
        <ele>1515.2</ele>
        <time>2013-11-29T13:39:59.143Z</time>
      </trkpt>
      <trkpt lat="42.97459" lon="0.00065">
        <ele>1515.2</ele>
        <time>2013-11-29T13:40:00.146Z</time>
      </trkpt>
      <trkpt lat="42.97453" lon="0.00058">
        <ele>1516.6</ele>
        <time>2013-11-29T13:40:13.143Z</time>
      </trkpt>
      <trkpt lat="42.97452" lon="0.00057">
        <ele>1516.8</ele>
        <time>2013-11-29T13:40:14.144Z</time>
      </trkpt>
      <trkpt lat="42.97445" lon="0.0005">
        <ele>1518.8</ele>
        <time>2013-11-29T13:40:27.913Z</time>
      </trkpt>
      <trkpt lat="42.97445" lon="0.0005">
        <ele>1519</ele>
        <time>2013-11-29T13:40:28.144Z</time>
      </trkpt>
      <trkpt lat="42.97438" lon="0.00043">
        <ele>1520</ele>
        <time>2013-11-29T13:40:47.980Z</time>
      </trkpt>
      <trkpt lat="42.97438" lon="0.00043">
        <ele>1520</ele>
        <time>2013-11-29T13:40:48.146Z</time>
      </trkpt>
      <trkpt lat="42.97438" lon="0.00044">
        <ele>1520.2</ele>
        <time>2013-11-29T13:40:49.143Z</time>
      </trkpt>
      <trkpt lat="42.9743" lon="0.00042">
        <ele>1521.3</ele>
        <time>2013-11-29T13:41:05.143Z</time>
      </trkpt>
      <trkpt lat="42.97429" lon="0.00042">
        <ele>1521.3</ele>
        <time>2013-11-29T13:41:06.145Z</time>
      </trkpt>
      <trkpt lat="42.97422" lon="0.00035">
        <ele>1522</ele>
        <time>2013-11-29T13:41:15.143Z</time>
      </trkpt>
      <trkpt lat="42.97421" lon="0.00035">
        <ele>1522</ele>
        <time>2013-11-29T13:41:16.143Z</time>
      </trkpt>
      <trkpt lat="42.97414" lon="0.00029">
        <ele>1522.9</ele>
        <time>2013-11-29T13:41:30.146Z</time>
      </trkpt>
      <trkpt lat="42.97413" lon="0.00029">
        <ele>1523</ele>
        <time>2013-11-29T13:41:31.143Z</time>
      </trkpt>
      <trkpt lat="42.97406" lon="0.00023">
        <ele>1523.7</ele>
        <time>2013-11-29T13:41:42.932Z</time>
      </trkpt>
      <trkpt lat="42.97405" lon="0.00023">
        <ele>1523.7</ele>
        <time>2013-11-29T13:41:43.143Z</time>
      </trkpt>
      <trkpt lat="42.97398" lon="0.00015">
        <ele>1524.4</ele>
        <time>2013-11-29T13:41:55.143Z</time>
      </trkpt>
      <trkpt lat="42.97397" lon="0.00014">
        <ele>1524.5</ele>
        <time>2013-11-29T13:41:56.144Z</time>
      </trkpt>
      <trkpt lat="42.97391" lon="6.0E-5">
        <ele>1526</ele>
        <time>2013-11-29T13:42:13.143Z</time>
      </trkpt>
      <trkpt lat="42.97391" lon="5.0E-5">
        <ele>1526.2</ele>
        <time>2013-11-29T13:42:14.185Z</time>
      </trkpt>
      <trkpt lat="42.97391" lon="5.0E-5">
        <ele>1526.3</ele>
        <time>2013-11-29T13:42:18.146Z</time>
      </trkpt>
      <trkpt lat="42.97391" lon="5.0E-5">
        <ele>1526.3</ele>
        <time>2013-11-29T13:42:19.143Z</time>
      </trkpt>
      <trkpt lat="42.97391" lon="5.0E-5">
        <ele>1526.3</ele>
        <time>2013-11-29T13:42:36.145Z</time>
      </trkpt>
      <trkpt lat="42.97389" lon="3.0E-5">
        <ele>1527</ele>
        <time>2013-11-29T13:42:37.143Z</time>
      </trkpt>
      <trkpt lat="42.9738" lon="-1.0E-5">
        <ele>1527.3</ele>
        <time>2013-11-29T13:42:50.144Z</time>
      </trkpt>
      <trkpt lat="42.9738" lon="-1.0E-5">
        <ele>1527.3</ele>
        <time>2013-11-29T13:42:51.143Z</time>
      </trkpt>
      <trkpt lat="42.97371" lon="-3.0E-5">
        <ele>1527.5</ele>
        <time>2013-11-29T13:43:06.146Z</time>
      </trkpt>
      <trkpt lat="42.9737" lon="-3.0E-5">
        <ele>1527.5</ele>
        <time>2013-11-29T13:43:07.143Z</time>
      </trkpt>
      <trkpt lat="42.97363" lon="-0.0001">
        <ele>1527.5</ele>
        <time>2013-11-29T13:43:19.143Z</time>
      </trkpt>
      <trkpt lat="42.97362" lon="-0.00011">
        <ele>1527.5</ele>
        <time>2013-11-29T13:43:20.144Z</time>
      </trkpt>
      <trkpt lat="42.97355" lon="-0.00016">
        <ele>1527.6</ele>
        <time>2013-11-29T13:43:29.143Z</time>
      </trkpt>
      <trkpt lat="42.97354" lon="-0.00016">
        <ele>1527.6</ele>
        <time>2013-11-29T13:43:30.146Z</time>
      </trkpt>
      <trkpt lat="42.97345" lon="-0.00015">
        <ele>1528.1</ele>
        <time>2013-11-29T13:43:47.965Z</time>
      </trkpt>
      <trkpt lat="42.97345" lon="-0.00014">
        <ele>1528.1</ele>
        <time>2013-11-29T13:43:48.146Z</time>
      </trkpt>
      <trkpt lat="42.97343" lon="-4.0E-5">
        <ele>1528.8</ele>
        <time>2013-11-29T13:44:00.146Z</time>
      </trkpt>
      <trkpt lat="42.97342" lon="-3.0E-5">
        <ele>1528.8</ele>
        <time>2013-11-29T13:44:01.143Z</time>
      </trkpt>
      <trkpt lat="42.97334" lon="2.0E-5">
        <ele>1529.7</ele>
        <time>2013-11-29T13:44:19.143Z</time>
      </trkpt>
      <trkpt lat="42.97334" lon="2.0E-5">
        <ele>1529.8</ele>
        <time>2013-11-29T13:44:20.144Z</time>
      </trkpt>
      <trkpt lat="42.97327" lon="-6.0E-5">
        <ele>1530.2</ele>
        <time>2013-11-29T13:44:33.142Z</time>
      </trkpt>
      <trkpt lat="42.97327" lon="-7.0E-5">
        <ele>1530.2</ele>
        <time>2013-11-29T13:44:34.142Z</time>
      </trkpt>
      <trkpt lat="42.97321" lon="-0.00015">
        <ele>1530.9</ele>
        <time>2013-11-29T13:44:49.143Z</time>
      </trkpt>
      <trkpt lat="42.9732" lon="-0.00016">
        <ele>1531</ele>
        <time>2013-11-29T13:44:50.144Z</time>
      </trkpt>
      <trkpt lat="42.97314" lon="-0.00024">
        <ele>1532.2</ele>
        <time>2013-11-29T13:45:03.145Z</time>
      </trkpt>
      <trkpt lat="42.97313" lon="-0.00025">
        <ele>1532.3</ele>
        <time>2013-11-29T13:45:04.142Z</time>
      </trkpt>
      <trkpt lat="42.97305" lon="-0.00026">
        <ele>1533.7</ele>
        <time>2013-11-29T13:45:20.144Z</time>
      </trkpt>
      <trkpt lat="42.97304" lon="-0.00026">
        <ele>1533.7</ele>
        <time>2013-11-29T13:45:21.143Z</time>
      </trkpt>
      <trkpt lat="42.97296" lon="-0.00032">
        <ele>1534.7</ele>
        <time>2013-11-29T13:45:34.142Z</time>
      </trkpt>
      <trkpt lat="42.97296" lon="-0.00033">
        <ele>1534.8</ele>
        <time>2013-11-29T13:45:35.143Z</time>
      </trkpt>
      <trkpt lat="42.97293" lon="-0.00045">
        <ele>1537.2</ele>
        <time>2013-11-29T13:45:55.142Z</time>
      </trkpt>
      <trkpt lat="42.97293" lon="-0.00045">
        <ele>1537.4</ele>
        <time>2013-11-29T13:45:56.143Z</time>
      </trkpt>
      <trkpt lat="42.97285" lon="-0.00051">
        <ele>1539</ele>
        <time>2013-11-29T13:46:09.142Z</time>
      </trkpt>
      <trkpt lat="42.97285" lon="-0.00052">
        <ele>1539.2</ele>
        <time>2013-11-29T13:46:10.142Z</time>
      </trkpt>
      <trkpt lat="42.97279" lon="-0.0006">
        <ele>1540.7</ele>
        <time>2013-11-29T13:46:25.143Z</time>
      </trkpt>
      <trkpt lat="42.97278" lon="-0.00061">
        <ele>1540.8</ele>
        <time>2013-11-29T13:46:26.144Z</time>
      </trkpt>
      <trkpt lat="42.97273" lon="-0.0007">
        <ele>1542.6</ele>
        <time>2013-11-29T13:46:43.144Z</time>
      </trkpt>
      <trkpt lat="42.97273" lon="-0.00071">
        <ele>1542.7</ele>
        <time>2013-11-29T13:46:44.145Z</time>
      </trkpt>
      <trkpt lat="42.97266" lon="-0.00078">
        <ele>1544.2</ele>
        <time>2013-11-29T13:46:55.143Z</time>
      </trkpt>
      <trkpt lat="42.97265" lon="-0.00078">
        <ele>1544.3</ele>
        <time>2013-11-29T13:46:56.145Z</time>
      </trkpt>
      <trkpt lat="42.97259" lon="-0.00087">
        <ele>1546.1</ele>
        <time>2013-11-29T13:47:08.145Z</time>
      </trkpt>
      <trkpt lat="42.97258" lon="-0.00087">
        <ele>1546.2</ele>
        <time>2013-11-29T13:47:09.144Z</time>
      </trkpt>
      <trkpt lat="42.97251" lon="-0.00093">
        <ele>1548.1</ele>
        <time>2013-11-29T13:47:25.143Z</time>
      </trkpt>
      <trkpt lat="42.97251" lon="-0.00095">
        <ele>1548.2</ele>
        <time>2013-11-29T13:47:26.145Z</time>
      </trkpt>
      <trkpt lat="42.97245" lon="-0.00103">
        <ele>1550</ele>
        <time>2013-11-29T13:47:38.144Z</time>
      </trkpt>
      <trkpt lat="42.97244" lon="-0.00104">
        <ele>1550.1</ele>
        <time>2013-11-29T13:47:39.143Z</time>
      </trkpt>
      <trkpt lat="42.97236" lon="-0.00108">
        <ele>1552.7</ele>
        <time>2013-11-29T13:47:58.146Z</time>
      </trkpt>
      <trkpt lat="42.97236" lon="-0.00108">
        <ele>1552.8</ele>
        <time>2013-11-29T13:47:58.171Z</time>
      </trkpt>
      <trkpt lat="42.97228" lon="-0.00114">
        <ele>1554.9</ele>
        <time>2013-11-29T13:48:17.918Z</time>
      </trkpt>
      <trkpt lat="42.97228" lon="-0.00115">
        <ele>1555.1</ele>
        <time>2013-11-29T13:48:18.146Z</time>
      </trkpt>
      <trkpt lat="42.97222" lon="-0.00124">
        <ele>1557.9</ele>
        <time>2013-11-29T13:48:37.939Z</time>
      </trkpt>
      <trkpt lat="42.97222" lon="-0.00124">
        <ele>1558</ele>
        <time>2013-11-29T13:48:38.143Z</time>
      </trkpt>
      <trkpt lat="42.97217" lon="-0.00133">
        <ele>1559.4</ele>
        <time>2013-11-29T13:48:49.142Z</time>
      </trkpt>
      <trkpt lat="42.97216" lon="-0.00134">
        <ele>1559.5</ele>
        <time>2013-11-29T13:48:50.144Z</time>
      </trkpt>
      <trkpt lat="42.9721" lon="-0.00143">
        <ele>1561</ele>
        <time>2013-11-29T13:49:02.888Z</time>
      </trkpt>
      <trkpt lat="42.9721" lon="-0.00143">
        <ele>1561.2</ele>
        <time>2013-11-29T13:49:03.144Z</time>
      </trkpt>
      <trkpt lat="42.97205" lon="-0.00153">
        <ele>1562.8</ele>
        <time>2013-11-29T13:49:15.143Z</time>
      </trkpt>
      <trkpt lat="42.97205" lon="-0.00154">
        <ele>1562.9</ele>
        <time>2013-11-29T13:49:16.143Z</time>
      </trkpt>
      <trkpt lat="42.97198" lon="-0.00161">
        <ele>1564.9</ele>
        <time>2013-11-29T13:49:31.142Z</time>
      </trkpt>
      <trkpt lat="42.97197" lon="-0.00162">
        <ele>1565</ele>
        <time>2013-11-29T13:49:32.143Z</time>
      </trkpt>
      <trkpt lat="42.97191" lon="-0.0017">
        <ele>1566.8</ele>
        <time>2013-11-29T13:49:47.995Z</time>
      </trkpt>
      <trkpt lat="42.9719" lon="-0.0017">
        <ele>1566.9</ele>
        <time>2013-11-29T13:49:48.145Z</time>
      </trkpt>
      <trkpt lat="42.97185" lon="-0.00174">
        <ele>1568.2</ele>
        <time>2013-11-29T13:50:01.142Z</time>
      </trkpt>
      <trkpt lat="42.97185" lon="-0.00174">
        <ele>1568.2</ele>
        <time>2013-11-29T13:50:02.143Z</time>
      </trkpt>
      <trkpt lat="42.97185" lon="-0.00174">
        <ele>1568.2</ele>
        <time>2013-11-29T13:50:16.142Z</time>
      </trkpt>
      <trkpt lat="42.97184" lon="-0.00175">
        <ele>1568.5</ele>
        <time>2013-11-29T13:50:17.142Z</time>
      </trkpt>
      <trkpt lat="42.97179" lon="-0.00178">
        <ele>1568.9</ele>
        <time>2013-11-29T13:50:28.142Z</time>
      </trkpt>
      <trkpt lat="42.97179" lon="-0.00178">
        <ele>1568.9</ele>
        <time>2013-11-29T13:50:29.142Z</time>
      </trkpt>
      <trkpt lat="42.97179" lon="-0.00178">
        <ele>1568.9</ele>
        <time>2013-11-29T13:50:31.142Z</time>
      </trkpt>
      <trkpt lat="42.97178" lon="-0.00179">
        <ele>1569</ele>
        <time>2013-11-29T13:50:32.143Z</time>
      </trkpt>
      <trkpt lat="42.97171" lon="-0.00186">
        <ele>1569.3</ele>
        <time>2013-11-29T13:50:44.143Z</time>
      </trkpt>
      <trkpt lat="42.97171" lon="-0.00187">
        <ele>1569.3</ele>
        <time>2013-11-29T13:50:45.142Z</time>
      </trkpt>
      <trkpt lat="42.97163" lon="-0.00192">
        <ele>1570.2</ele>
        <time>2013-11-29T13:51:01.142Z</time>
      </trkpt>
      <trkpt lat="42.97163" lon="-0.00192">
        <ele>1570.3</ele>
        <time>2013-11-29T13:51:02.143Z</time>
      </trkpt>
      <trkpt lat="42.97156" lon="-0.00199">
        <ele>1571.5</ele>
        <time>2013-11-29T13:51:19.142Z</time>
      </trkpt>
      <trkpt lat="42.97155" lon="-0.00199">
        <ele>1571.6</ele>
        <time>2013-11-29T13:51:20.143Z</time>
      </trkpt>
      <trkpt lat="42.97149" lon="-0.00208">
        <ele>1572.2</ele>
        <time>2013-11-29T13:51:40.141Z</time>
      </trkpt>
      <trkpt lat="42.97148" lon="-0.00208">
        <ele>1572.2</ele>
        <time>2013-11-29T13:51:41.142Z</time>
      </trkpt>
      <trkpt lat="42.97141" lon="-0.00215">
        <ele>1572.7</ele>
        <time>2013-11-29T13:51:55.142Z</time>
      </trkpt>
      <trkpt lat="42.9714" lon="-0.00215">
        <ele>1572.7</ele>
        <time>2013-11-29T13:51:56.143Z</time>
      </trkpt>
      <trkpt lat="42.97132" lon="-0.0022">
        <ele>1573.7</ele>
        <time>2013-11-29T13:52:13.195Z</time>
      </trkpt>
      <trkpt lat="42.97132" lon="-0.00221">
        <ele>1573.7</ele>
        <time>2013-11-29T13:52:14.143Z</time>
      </trkpt>
      <trkpt lat="42.97123" lon="-0.00225">
        <ele>1575.1</ele>
        <time>2013-11-29T13:52:28.141Z</time>
      </trkpt>
      <trkpt lat="42.97123" lon="-0.00226">
        <ele>1575.2</ele>
        <time>2013-11-29T13:52:29.142Z</time>
      </trkpt>
      <trkpt lat="42.97115" lon="-0.00232">
        <ele>1576.7</ele>
        <time>2013-11-29T13:52:51.142Z</time>
      </trkpt>
      <trkpt lat="42.97115" lon="-0.00232">
        <ele>1576.8</ele>
        <time>2013-11-29T13:52:52.143Z</time>
      </trkpt>
      <trkpt lat="42.97114" lon="-0.00232">
        <ele>1576.8</ele>
        <time>2013-11-29T13:52:53.141Z</time>
      </trkpt>
      <trkpt lat="42.97114" lon="-0.00232">
        <ele>1576.9</ele>
        <time>2013-11-29T13:52:54.145Z</time>
      </trkpt>
      <trkpt lat="42.97114" lon="-0.00232">
        <ele>1577</ele>
        <time>2013-11-29T13:52:55.142Z</time>
      </trkpt>
      <trkpt lat="42.97114" lon="-0.00232">
        <ele>1577.1</ele>
        <time>2013-11-29T13:52:56.142Z</time>
      </trkpt>
      <trkpt lat="42.9711" lon="-0.00236">
        <ele>1578.7</ele>
        <time>2013-11-29T13:53:10.141Z</time>
      </trkpt>
      <trkpt lat="42.9711" lon="-0.00236">
        <ele>1579</ele>
        <time>2013-11-29T13:53:11.141Z</time>
      </trkpt>
      <trkpt lat="42.9711" lon="-0.00236">
        <ele>1581.5</ele>
        <time>2013-11-29T13:53:18.144Z</time>
      </trkpt>
      <trkpt lat="42.9711" lon="-0.00236">
        <ele>1581.7</ele>
        <time>2013-11-29T13:53:19.141Z</time>
      </trkpt>
      <trkpt lat="42.97111" lon="-0.00236">
        <ele>1582.1</ele>
        <time>2013-11-29T13:53:20.143Z</time>
      </trkpt>
      <trkpt lat="42.97111" lon="-0.00236">
        <ele>1582.5</ele>
        <time>2013-11-29T13:53:21.141Z</time>
      </trkpt>
      <trkpt lat="42.97111" lon="-0.00236">
        <ele>1582.8</ele>
        <time>2013-11-29T13:53:22.942Z</time>
      </trkpt>
      <trkpt lat="42.97112" lon="-0.00235">
        <ele>1583.2</ele>
        <time>2013-11-29T13:53:23.181Z</time>
      </trkpt>
      <trkpt lat="42.97112" lon="-0.00235">
        <ele>1583.2</ele>
        <time>2013-11-29T13:53:25.141Z</time>
      </trkpt>
      <trkpt lat="42.97112" lon="-0.00235">
        <ele>1583.2</ele>
        <time>2013-11-29T13:53:26.142Z</time>
      </trkpt>
      <trkpt lat="42.97112" lon="-0.00235">
        <ele>1584.4</ele>
        <time>2013-11-29T13:53:32.976Z</time>
      </trkpt>
      <trkpt lat="42.97111" lon="-0.00236">
        <ele>1584.6</ele>
        <time>2013-11-29T13:53:33.142Z</time>
      </trkpt>
      <trkpt lat="42.97104" lon="-0.00241">
        <ele>1588.1</ele>
        <time>2013-11-29T13:53:50.143Z</time>
      </trkpt>
      <trkpt lat="42.97103" lon="-0.00242">
        <ele>1588.2</ele>
        <time>2013-11-29T13:53:51.142Z</time>
      </trkpt>
      <trkpt lat="42.97097" lon="-0.00249">
        <ele>1589.5</ele>
        <time>2013-11-29T13:54:05.141Z</time>
      </trkpt>
      <trkpt lat="42.97096" lon="-0.0025">
        <ele>1589.6</ele>
        <time>2013-11-29T13:54:06.144Z</time>
      </trkpt>
      <trkpt lat="42.9709" lon="-0.00258">
        <ele>1590.5</ele>
        <time>2013-11-29T13:54:16.141Z</time>
      </trkpt>
      <trkpt lat="42.97089" lon="-0.00258">
        <ele>1590.6</ele>
        <time>2013-11-29T13:54:17.141Z</time>
      </trkpt>
      <trkpt lat="42.97082" lon="-0.00263">
        <ele>1592.3</ele>
        <time>2013-11-29T13:54:26.142Z</time>
      </trkpt>
      <trkpt lat="42.97081" lon="-0.00264">
        <ele>1592.5</ele>
        <time>2013-11-29T13:54:27.141Z</time>
      </trkpt>
      <trkpt lat="42.97074" lon="-0.00272">
        <ele>1594.6</ele>
        <time>2013-11-29T13:54:39.141Z</time>
      </trkpt>
      <trkpt lat="42.97074" lon="-0.00272">
        <ele>1594.8</ele>
        <time>2013-11-29T13:54:40.141Z</time>
      </trkpt>
      <trkpt lat="42.97069" lon="-0.00281">
        <ele>1596.7</ele>
        <time>2013-11-29T13:54:50.142Z</time>
      </trkpt>
      <trkpt lat="42.97068" lon="-0.00282">
        <ele>1596.9</ele>
        <time>2013-11-29T13:54:51.142Z</time>
      </trkpt>
      <trkpt lat="42.97062" lon="-0.00291">
        <ele>1598.4</ele>
        <time>2013-11-29T13:55:02.894Z</time>
      </trkpt>
      <trkpt lat="42.97061" lon="-0.00292">
        <ele>1598.5</ele>
        <time>2013-11-29T13:55:03.143Z</time>
      </trkpt>
      <trkpt lat="42.97055" lon="-0.003">
        <ele>1600.3</ele>
        <time>2013-11-29T13:55:16.141Z</time>
      </trkpt>
      <trkpt lat="42.97054" lon="-0.00301">
        <ele>1600.4</ele>
        <time>2013-11-29T13:55:17.141Z</time>
      </trkpt>
      <trkpt lat="42.97049" lon="-0.00311">
        <ele>1602.2</ele>
        <time>2013-11-29T13:55:28.141Z</time>
      </trkpt>
      <trkpt lat="42.97049" lon="-0.00311">
        <ele>1602.3</ele>
        <time>2013-11-29T13:55:29.141Z</time>
      </trkpt>
      <trkpt lat="42.97043" lon="-0.0032">
        <ele>1604</ele>
        <time>2013-11-29T13:55:40.141Z</time>
      </trkpt>
      <trkpt lat="42.97042" lon="-0.00321">
        <ele>1604.2</ele>
        <time>2013-11-29T13:55:41.141Z</time>
      </trkpt>
      <trkpt lat="42.97039" lon="-0.00331">
        <ele>1606.2</ele>
        <time>2013-11-29T13:55:54.144Z</time>
      </trkpt>
      <trkpt lat="42.97038" lon="-0.00332">
        <ele>1606.4</ele>
        <time>2013-11-29T13:55:55.141Z</time>
      </trkpt>
      <trkpt lat="42.97033" lon="-0.00342">
        <ele>1608.5</ele>
        <time>2013-11-29T13:56:06.144Z</time>
      </trkpt>
      <trkpt lat="42.97033" lon="-0.00343">
        <ele>1608.7</ele>
        <time>2013-11-29T13:56:07.141Z</time>
      </trkpt>
      <trkpt lat="42.97027" lon="-0.00351">
        <ele>1611.4</ele>
        <time>2013-11-29T13:56:20.142Z</time>
      </trkpt>
      <trkpt lat="42.97027" lon="-0.00352">
        <ele>1611.6</ele>
        <time>2013-11-29T13:56:21.141Z</time>
      </trkpt>
      <trkpt lat="42.97021" lon="-0.00361">
        <ele>1614.1</ele>
        <time>2013-11-29T13:56:33.141Z</time>
      </trkpt>
      <trkpt lat="42.97021" lon="-0.00361">
        <ele>1614.2</ele>
        <time>2013-11-29T13:56:34.141Z</time>
      </trkpt>
      <trkpt lat="42.97016" lon="-0.00371">
        <ele>1616.4</ele>
        <time>2013-11-29T13:56:46.141Z</time>
      </trkpt>
      <trkpt lat="42.97015" lon="-0.00372">
        <ele>1616.7</ele>
        <time>2013-11-29T13:56:47.140Z</time>
      </trkpt>
      <trkpt lat="42.97009" lon="-0.00379">
        <ele>1618.8</ele>
        <time>2013-11-29T13:56:59.141Z</time>
      </trkpt>
      <trkpt lat="42.97008" lon="-0.0038">
        <ele>1619</ele>
        <time>2013-11-29T13:57:00.143Z</time>
      </trkpt>
      <trkpt lat="42.97001" lon="-0.00387">
        <ele>1620.8</ele>
        <time>2013-11-29T13:57:11.141Z</time>
      </trkpt>
      <trkpt lat="42.97001" lon="-0.00388">
        <ele>1621</ele>
        <time>2013-11-29T13:57:12.146Z</time>
      </trkpt>
      <trkpt lat="42.96998" lon="-0.00394">
        <ele>1622.4</ele>
        <time>2013-11-29T13:57:22.913Z</time>
      </trkpt>
      <trkpt lat="42.96998" lon="-0.00394">
        <ele>1622.4</ele>
        <time>2013-11-29T13:57:23.141Z</time>
      </trkpt>
      <trkpt lat="42.96998" lon="-0.00393">
        <ele>1622.4</ele>
        <time>2013-11-29T13:57:35.141Z</time>
      </trkpt>
      <trkpt lat="42.96998" lon="-0.00394">
        <ele>1623</ele>
        <time>2013-11-29T13:57:36.144Z</time>
      </trkpt>
      <trkpt lat="42.9699" lon="-0.00399">
        <ele>1623.6</ele>
        <time>2013-11-29T13:57:47.970Z</time>
      </trkpt>
      <trkpt lat="42.96989" lon="-0.00399">
        <ele>1623.6</ele>
        <time>2013-11-29T13:57:48.145Z</time>
      </trkpt>
      <trkpt lat="42.96981" lon="-0.00404">
        <ele>1624.4</ele>
        <time>2013-11-29T13:58:01.195Z</time>
      </trkpt>
      <trkpt lat="42.96981" lon="-0.00405">
        <ele>1624.5</ele>
        <time>2013-11-29T13:58:02.142Z</time>
      </trkpt>
      <trkpt lat="42.96972" lon="-0.00408">
        <ele>1625.4</ele>
        <time>2013-11-29T13:58:13.140Z</time>
      </trkpt>
      <trkpt lat="42.96971" lon="-0.00409">
        <ele>1625.5</ele>
        <time>2013-11-29T13:58:14.144Z</time>
      </trkpt>
      <trkpt lat="42.96966" lon="-0.00411">
        <ele>1626.6</ele>
        <time>2013-11-29T13:58:24.143Z</time>
      </trkpt>
      <trkpt lat="42.96966" lon="-0.00411">
        <ele>1626.6</ele>
        <time>2013-11-29T13:58:25.140Z</time>
      </trkpt>
      <trkpt lat="42.96966" lon="-0.00411">
        <ele>1626.6</ele>
        <time>2013-11-29T14:03:24.142Z</time>
      </trkpt>
      <trkpt lat="42.96967" lon="-0.00412">
        <ele>1627</ele>
        <time>2013-11-29T14:03:25.139Z</time>
      </trkpt>
      <trkpt lat="42.96969" lon="-0.00414">
        <ele>1626.8</ele>
        <time>2013-11-29T14:03:31.139Z</time>
      </trkpt>
      <trkpt lat="42.96969" lon="-0.00414">
        <ele>1626.8</ele>
        <time>2013-11-29T14:03:32.140Z</time>
      </trkpt>
      <trkpt lat="42.96969" lon="-0.00414">
        <ele>1626.8</ele>
        <time>2013-11-29T14:07:23.137Z</time>
      </trkpt>
      <trkpt lat="42.96966" lon="-0.00415">
        <ele>1627.1</ele>
        <time>2013-11-29T14:07:24.141Z</time>
      </trkpt>
      <trkpt lat="42.96959" lon="-0.00422">
        <ele>1627.1</ele>
        <time>2013-11-29T14:07:32.943Z</time>
      </trkpt>
      <trkpt lat="42.96958" lon="-0.00422">
        <ele>1627.1</ele>
        <time>2013-11-29T14:07:33.137Z</time>
      </trkpt>
      <trkpt lat="42.96965" lon="-0.00424">
        <ele>1627.1</ele>
        <time>2013-11-29T14:07:48.013Z</time>
      </trkpt>
      <trkpt lat="42.9698" lon="-0.00413">
        <ele>1627.2</ele>
        <time>2013-11-29T14:07:52.138Z</time>
      </trkpt>
      <trkpt lat="42.96975" lon="-0.00415">
        <ele>1627.3</ele>
        <time>2013-11-29T14:08:10.137Z</time>
      </trkpt>
      <trkpt lat="42.96975" lon="-0.00415">
        <ele>1627.3</ele>
        <time>2013-11-29T14:08:11.137Z</time>
      </trkpt>
      <trkpt lat="42.96975" lon="-0.00415">
        <ele>1627.3</ele>
        <time>2013-11-29T14:08:44.138Z</time>
      </trkpt>
      <trkpt lat="42.96974" lon="-0.00416">
        <ele>1627.8</ele>
        <time>2013-11-29T14:08:45.137Z</time>
      </trkpt>
      <trkpt lat="42.96971" lon="-0.00426">
        <ele>1627.7</ele>
        <time>2013-11-29T14:08:48.141Z</time>
      </trkpt>
      <trkpt lat="42.96972" lon="-0.00431">
        <ele>1627.5</ele>
        <time>2013-11-29T14:08:49.137Z</time>
      </trkpt>
      <trkpt lat="42.96974" lon="-0.00436">
        <ele>1627.4</ele>
        <time>2013-11-29T14:08:50.137Z</time>
      </trkpt>
      <trkpt lat="42.96978" lon="-0.00442">
        <ele>1627.2</ele>
        <time>2013-11-29T14:08:51.137Z</time>
      </trkpt>
      <trkpt lat="42.96982" lon="-0.00449">
        <ele>1627</ele>
        <time>2013-11-29T14:08:52.985Z</time>
      </trkpt>
      <trkpt lat="42.96988" lon="-0.00453">
        <ele>1626.4</ele>
        <time>2013-11-29T14:08:53.137Z</time>
      </trkpt>
      <trkpt lat="42.96994" lon="-0.00457">
        <ele>1626.1</ele>
        <time>2013-11-29T14:08:54.141Z</time>
      </trkpt>
      <trkpt lat="42.97" lon="-0.00462">
        <ele>1625.6</ele>
        <time>2013-11-29T14:08:55.137Z</time>
      </trkpt>
      <trkpt lat="42.97007" lon="-0.00468">
        <ele>1625.3</ele>
        <time>2013-11-29T14:08:56.138Z</time>
      </trkpt>
      <trkpt lat="42.97014" lon="-0.00474">
        <ele>1624.8</ele>
        <time>2013-11-29T14:08:57.137Z</time>
      </trkpt>
      <trkpt lat="42.9702" lon="-0.0048">
        <ele>1624.2</ele>
        <time>2013-11-29T14:08:58.137Z</time>
      </trkpt>
      <trkpt lat="42.97027" lon="-0.00481">
        <ele>1623.2</ele>
        <time>2013-11-29T14:08:59.137Z</time>
      </trkpt>
      <trkpt lat="42.97033" lon="-0.00481">
        <ele>1622</ele>
        <time>2013-11-29T14:09:00.141Z</time>
      </trkpt>
      <trkpt lat="42.97038" lon="-0.00479">
        <ele>1621</ele>
        <time>2013-11-29T14:09:01.137Z</time>
      </trkpt>
      <trkpt lat="42.97045" lon="-0.00472">
        <ele>1619.1</ele>
        <time>2013-11-29T14:09:03.138Z</time>
      </trkpt>
      <trkpt lat="42.97047" lon="-0.00469">
        <ele>1617.9</ele>
        <time>2013-11-29T14:09:04.137Z</time>
      </trkpt>
      <trkpt lat="42.97056" lon="-0.00469">
        <ele>1613.5</ele>
        <time>2013-11-29T14:09:10.137Z</time>
      </trkpt>
      <trkpt lat="42.97059" lon="-0.00474">
        <ele>1612.9</ele>
        <time>2013-11-29T14:09:11.137Z</time>
      </trkpt>
      <trkpt lat="42.97064" lon="-0.00482">
        <ele>1612.2</ele>
        <time>2013-11-29T14:09:12.920Z</time>
      </trkpt>
      <trkpt lat="42.97066" lon="-0.00493">
        <ele>1611.4</ele>
        <time>2013-11-29T14:09:13.137Z</time>
      </trkpt>
      <trkpt lat="42.97068" lon="-0.00505">
        <ele>1610.7</ele>
        <time>2013-11-29T14:09:14.138Z</time>
      </trkpt>
      <trkpt lat="42.97069" lon="-0.00517">
        <ele>1610</ele>
        <time>2013-11-29T14:09:15.137Z</time>
      </trkpt>
      <trkpt lat="42.9707" lon="-0.00527">
        <ele>1609.4</ele>
        <time>2013-11-29T14:09:16.137Z</time>
      </trkpt>
      <trkpt lat="42.97072" lon="-0.00537">
        <ele>1608.1</ele>
        <time>2013-11-29T14:09:17.137Z</time>
      </trkpt>
      <trkpt lat="42.97074" lon="-0.00547">
        <ele>1607.2</ele>
        <time>2013-11-29T14:09:18.140Z</time>
      </trkpt>
      <trkpt lat="42.97076" lon="-0.00558">
        <ele>1606.4</ele>
        <time>2013-11-29T14:09:19.175Z</time>
      </trkpt>
      <trkpt lat="42.97077" lon="-0.00566">
        <ele>1605.5</ele>
        <time>2013-11-29T14:09:20.137Z</time>
      </trkpt>
      <trkpt lat="42.97079" lon="-0.00576">
        <ele>1604.6</ele>
        <time>2013-11-29T14:09:21.137Z</time>
      </trkpt>
      <trkpt lat="42.97082" lon="-0.00585">
        <ele>1603.6</ele>
        <time>2013-11-29T14:09:22.931Z</time>
      </trkpt>
      <trkpt lat="42.97085" lon="-0.00596">
        <ele>1602.9</ele>
        <time>2013-11-29T14:09:23.137Z</time>
      </trkpt>
      <trkpt lat="42.97087" lon="-0.00607">
        <ele>1602.1</ele>
        <time>2013-11-29T14:09:24.141Z</time>
      </trkpt>
      <trkpt lat="42.97089" lon="-0.00618">
        <ele>1601.3</ele>
        <time>2013-11-29T14:09:25.137Z</time>
      </trkpt>
      <trkpt lat="42.9709" lon="-0.00628">
        <ele>1600.4</ele>
        <time>2013-11-29T14:09:26.138Z</time>
      </trkpt>
      <trkpt lat="42.97093" lon="-0.00637">
        <ele>1599.6</ele>
        <time>2013-11-29T14:09:27.137Z</time>
      </trkpt>
      <trkpt lat="42.97096" lon="-0.00644">
        <ele>1598.7</ele>
        <time>2013-11-29T14:09:28.151Z</time>
      </trkpt>
      <trkpt lat="42.971" lon="-0.00649">
        <ele>1597.6</ele>
        <time>2013-11-29T14:09:29.137Z</time>
      </trkpt>
      <trkpt lat="42.97104" lon="-0.00652">
        <ele>1596.7</ele>
        <time>2013-11-29T14:09:30.140Z</time>
      </trkpt>
      <trkpt lat="42.9711" lon="-0.0065">
        <ele>1595.3</ele>
        <time>2013-11-29T14:09:31.141Z</time>
      </trkpt>
      <trkpt lat="42.97116" lon="-0.00648">
        <ele>1594.6</ele>
        <time>2013-11-29T14:09:32.943Z</time>
      </trkpt>
      <trkpt lat="42.97123" lon="-0.00647">
        <ele>1593.8</ele>
        <time>2013-11-29T14:09:33.137Z</time>
      </trkpt>
      <trkpt lat="42.97129" lon="-0.00647">
        <ele>1593</ele>
        <time>2013-11-29T14:09:34.137Z</time>
      </trkpt>
      <trkpt lat="42.97136" lon="-0.00647">
        <ele>1592.1</ele>
        <time>2013-11-29T14:09:35.137Z</time>
      </trkpt>
      <trkpt lat="42.97142" lon="-0.00648">
        <ele>1591.2</ele>
        <time>2013-11-29T14:09:36.140Z</time>
      </trkpt>
      <trkpt lat="42.97147" lon="-0.0065">
        <ele>1590.2</ele>
        <time>2013-11-29T14:09:37.137Z</time>
      </trkpt>
      <trkpt lat="42.97151" lon="-0.00654">
        <ele>1589.3</ele>
        <time>2013-11-29T14:09:38.137Z</time>
      </trkpt>
      <trkpt lat="42.97155" lon="-0.00659">
        <ele>1587.8</ele>
        <time>2013-11-29T14:09:39.137Z</time>
      </trkpt>
      <trkpt lat="42.97152" lon="-0.00668">
        <ele>1585.2</ele>
        <time>2013-11-29T14:09:53.005Z</time>
      </trkpt>
      <trkpt lat="42.97152" lon="-0.00667">
        <ele>1585.2</ele>
        <time>2013-11-29T14:09:53.137Z</time>
      </trkpt>
      <trkpt lat="42.97152" lon="-0.00667">
        <ele>1584.6</ele>
        <time>2013-11-29T14:10:10.138Z</time>
      </trkpt>
      <trkpt lat="42.97151" lon="-0.00667">
        <ele>1584.6</ele>
        <time>2013-11-29T14:10:11.146Z</time>
      </trkpt>
      <trkpt lat="42.9715" lon="-0.00667">
        <ele>1584.6</ele>
        <time>2013-11-29T14:10:16.139Z</time>
      </trkpt>
      <trkpt lat="42.9715" lon="-0.00667">
        <ele>1584.6</ele>
        <time>2013-11-29T14:10:17.139Z</time>
      </trkpt>
      <trkpt lat="42.97149" lon="-0.00667">
        <ele>1584.5</ele>
        <time>2013-11-29T14:10:25.139Z</time>
      </trkpt>
      <trkpt lat="42.97149" lon="-0.00667">
        <ele>1584.5</ele>
        <time>2013-11-29T14:10:26.141Z</time>
      </trkpt>
      <trkpt lat="42.9714" lon="-0.00664">
        <ele>1577.3</ele>
        <time>2013-11-29T14:10:33.156Z</time>
      </trkpt>
      <trkpt lat="42.97139" lon="-0.00661">
        <ele>1575.2</ele>
        <time>2013-11-29T14:10:34.139Z</time>
      </trkpt>
      <trkpt lat="42.97138" lon="-0.00672">
        <ele>1569.6</ele>
        <time>2013-11-29T14:10:38.170Z</time>
      </trkpt>
      <trkpt lat="42.97138" lon="-0.0068">
        <ele>1568.4</ele>
        <time>2013-11-29T14:10:39.139Z</time>
      </trkpt>
      <trkpt lat="42.97139" lon="-0.0069">
        <ele>1567.6</ele>
        <time>2013-11-29T14:10:40.140Z</time>
      </trkpt>
      <trkpt lat="42.9714" lon="-0.00701">
        <ele>1566.8</ele>
        <time>2013-11-29T14:10:41.138Z</time>
      </trkpt>
      <trkpt lat="42.97143" lon="-0.00711">
        <ele>1565.3</ele>
        <time>2013-11-29T14:10:43.142Z</time>
      </trkpt>
      <trkpt lat="42.97145" lon="-0.00722">
        <ele>1564.2</ele>
        <time>2013-11-29T14:10:43.206Z</time>
      </trkpt>
      <trkpt lat="42.97147" lon="-0.00731">
        <ele>1563.7</ele>
        <time>2013-11-29T14:10:44.139Z</time>
      </trkpt>
      <trkpt lat="42.9715" lon="-0.00739">
        <ele>1562.8</ele>
        <time>2013-11-29T14:10:45.139Z</time>
      </trkpt>
      <trkpt lat="42.97154" lon="-0.00745">
        <ele>1561.6</ele>
        <time>2013-11-29T14:10:46.139Z</time>
      </trkpt>
      <trkpt lat="42.97159" lon="-0.00751">
        <ele>1560.8</ele>
        <time>2013-11-29T14:10:47.139Z</time>
      </trkpt>
      <trkpt lat="42.97164" lon="-0.00757">
        <ele>1560.1</ele>
        <time>2013-11-29T14:10:48.188Z</time>
      </trkpt>
      <trkpt lat="42.9717" lon="-0.00762">
        <ele>1559.3</ele>
        <time>2013-11-29T14:10:49.138Z</time>
      </trkpt>
      <trkpt lat="42.97176" lon="-0.00767">
        <ele>1558.2</ele>
        <time>2013-11-29T14:10:50.140Z</time>
      </trkpt>
      <trkpt lat="42.97183" lon="-0.00771">
        <ele>1557.2</ele>
        <time>2013-11-29T14:10:51.139Z</time>
      </trkpt>
      <trkpt lat="42.9719" lon="-0.00773">
        <ele>1556.2</ele>
        <time>2013-11-29T14:10:52.139Z</time>
      </trkpt>
      <trkpt lat="42.97197" lon="-0.00773">
        <ele>1555.6</ele>
        <time>2013-11-29T14:10:53.153Z</time>
      </trkpt>
      <trkpt lat="42.97203" lon="-0.00773">
        <ele>1554.9</ele>
        <time>2013-11-29T14:10:54.143Z</time>
      </trkpt>
      <trkpt lat="42.97208" lon="-0.00771">
        <ele>1554.2</ele>
        <time>2013-11-29T14:10:55.138Z</time>
      </trkpt>
      <trkpt lat="42.97215" lon="-0.00767">
        <ele>1552.4</ele>
        <time>2013-11-29T14:10:57.138Z</time>
      </trkpt>
      <trkpt lat="42.97217" lon="-0.00764">
        <ele>1551.5</ele>
        <time>2013-11-29T14:10:58.138Z</time>
      </trkpt>
      <trkpt lat="42.97221" lon="-0.00757">
        <ele>1544.3</ele>
        <time>2013-11-29T14:11:11.138Z</time>
      </trkpt>
      <trkpt lat="42.97221" lon="-0.00757">
        <ele>1544.3</ele>
        <time>2013-11-29T14:11:12.142Z</time>
      </trkpt>
      <trkpt lat="42.9722" lon="-0.00758">
        <ele>1543.7</ele>
        <time>2013-11-29T14:12:35.136Z</time>
      </trkpt>
      <trkpt lat="42.97221" lon="-0.00758">
        <ele>1543.7</ele>
        <time>2013-11-29T14:12:36.140Z</time>
      </trkpt>
      <trkpt lat="42.97229" lon="-0.00757">
        <ele>1543.3</ele>
        <time>2013-11-29T14:12:41.137Z</time>
      </trkpt>
      <trkpt lat="42.97233" lon="-0.00756">
        <ele>1543</ele>
        <time>2013-11-29T14:12:42.141Z</time>
      </trkpt>
      <trkpt lat="42.97241" lon="-0.00757">
        <ele>1542.5</ele>
        <time>2013-11-29T14:12:46.179Z</time>
      </trkpt>
      <trkpt lat="42.97243" lon="-0.00757">
        <ele>1542.4</ele>
        <time>2013-11-29T14:12:47.137Z</time>
      </trkpt>
      <trkpt lat="42.97251" lon="-0.00759">
        <ele>1541.4</ele>
        <time>2013-11-29T14:12:54.141Z</time>
      </trkpt>
      <trkpt lat="42.97252" lon="-0.00759">
        <ele>1541.2</ele>
        <time>2013-11-29T14:12:55.137Z</time>
      </trkpt>
      <trkpt lat="42.97259" lon="-0.00765">
        <ele>1539.5</ele>
        <time>2013-11-29T14:13:02.914Z</time>
      </trkpt>
      <trkpt lat="42.9726" lon="-0.00766">
        <ele>1539.3</ele>
        <time>2013-11-29T14:13:03.138Z</time>
      </trkpt>
      <trkpt lat="42.97267" lon="-0.00774">
        <ele>1537.6</ele>
        <time>2013-11-29T14:13:11.137Z</time>
      </trkpt>
      <trkpt lat="42.97267" lon="-0.00776">
        <ele>1537.3</ele>
        <time>2013-11-29T14:13:12.141Z</time>
      </trkpt>
      <trkpt lat="42.97271" lon="-0.00786">
        <ele>1536.2</ele>
        <time>2013-11-29T14:13:18.140Z</time>
      </trkpt>
      <trkpt lat="42.97272" lon="-0.00787">
        <ele>1536</ele>
        <time>2013-11-29T14:13:19.136Z</time>
      </trkpt>
      <trkpt lat="42.97277" lon="-0.00797">
        <ele>1534.8</ele>
        <time>2013-11-29T14:13:25.136Z</time>
      </trkpt>
      <trkpt lat="42.97278" lon="-0.00798">
        <ele>1534.6</ele>
        <time>2013-11-29T14:13:26.137Z</time>
      </trkpt>
      <trkpt lat="42.97282" lon="-0.00807">
        <ele>1533.3</ele>
        <time>2013-11-29T14:13:32.955Z</time>
      </trkpt>
      <trkpt lat="42.97283" lon="-0.00809">
        <ele>1533.1</ele>
        <time>2013-11-29T14:13:33.136Z</time>
      </trkpt>
      <trkpt lat="42.97288" lon="-0.00817">
        <ele>1531.8</ele>
        <time>2013-11-29T14:13:40.136Z</time>
      </trkpt>
      <trkpt lat="42.97289" lon="-0.00818">
        <ele>1531.7</ele>
        <time>2013-11-29T14:13:41.135Z</time>
      </trkpt>
      <trkpt lat="42.97296" lon="-0.00826">
        <ele>1530</ele>
        <time>2013-11-29T14:13:50.137Z</time>
      </trkpt>
      <trkpt lat="42.97297" lon="-0.00827">
        <ele>1529.9</ele>
        <time>2013-11-29T14:13:51.136Z</time>
      </trkpt>
      <trkpt lat="42.97303" lon="-0.00831">
        <ele>1528.5</ele>
        <time>2013-11-29T14:14:02.912Z</time>
      </trkpt>
      <trkpt lat="42.97303" lon="-0.00831">
        <ele>1528.5</ele>
        <time>2013-11-29T14:14:03.138Z</time>
      </trkpt>
      <trkpt lat="42.97303" lon="-0.00831">
        <ele>1528.5</ele>
        <time>2013-11-29T14:14:57.999Z</time>
      </trkpt>
      <trkpt lat="42.97305" lon="-0.00831">
        <ele>1527.5</ele>
        <time>2013-11-29T14:14:58.135Z</time>
      </trkpt>
      <trkpt lat="42.97306" lon="-0.00834">
        <ele>1526.9</ele>
        <time>2013-11-29T14:15:04.137Z</time>
      </trkpt>
      <trkpt lat="42.97306" lon="-0.00834">
        <ele>1526.9</ele>
        <time>2013-11-29T14:15:05.136Z</time>
      </trkpt>
      <trkpt lat="42.97306" lon="-0.00833">
        <ele>1525.8</ele>
        <time>2013-11-29T14:19:31.205Z</time>
      </trkpt>
      <trkpt lat="42.97306" lon="-0.00833">
        <ele>1525.9</ele>
        <time>2013-11-29T14:19:32.135Z</time>
      </trkpt>
      <trkpt lat="42.97306" lon="-0.00833">
        <ele>1525.9</ele>
        <time>2013-11-29T14:19:32.957Z</time>
      </trkpt>
      <trkpt lat="42.97307" lon="-0.00833">
        <ele>1526</ele>
        <time>2013-11-29T14:19:33.137Z</time>
      </trkpt>
      <trkpt lat="42.97307" lon="-0.00833">
        <ele>1526</ele>
        <time>2013-11-29T14:19:34.134Z</time>
      </trkpt>
      <trkpt lat="42.97307" lon="-0.00833">
        <ele>1526</ele>
        <time>2013-11-29T14:19:35.134Z</time>
      </trkpt>
      <trkpt lat="42.97307" lon="-0.00834">
        <ele>1526</ele>
        <time>2013-11-29T14:20:38.938Z</time>
      </trkpt>
    </trkseg>
  </trk>
</gpx>